[[{"header":{"parameterUnit":"m.s-1","parameterCategory":1,"la1":30.6,"la2":29.2853,"lo1":-89.7004,"lo2":-87.6739,"dy":0.0162,"dx":0.0183,"nx":112,"ny":82,"refTime":"2023-04-07T18:00:00:Z","depth":0,"parameterNumber":2,"parameterNumberName":"U-component_of_WINDS"},"data":[0.0,0.0,0.0,0.0,0.0,0.0,0.0,0.0,0.0,0.0,0.0,0.0,0.0,0.0,0.0,0.0,0.0,0.0,0.0,0.0,0.0,0.0,0.0,0.0,0.0,0.0,0.0,0.0,0.0,0.0,0.0,0.0,0.0,0.0,0.0,0.0,0.0,0.0,0.0,0.0,0.0,0.0,0.0,0.0,0.0,0.0,0.0,0.0,0.0,0.0,0.0,0.0,0.0,0.0,0.0,0.0,0.0,0.0,0.0,0.0,0.0,0.0,0.0,0.0,0.0,0.0,0.0,0.0,0.0,0.0,0.0,0.0,0.0,0.0,0.0,0.0,0.0,0.0,0.0,0.0,0.0,0.0,0.0,0.0,0.0,0.0,0.0,0.0,0.0,0.0,0.9109,0.9125,0.9033,0.8973,0.8973,0.8973,0.8973,0.8973,0.0,0.0,0.0,0.0,0.0,0.0,0.0,0.0,0.0,0.0,0.0,0.0,0.0,0.0,0.0,0.0,0.0,0.0,0.0,0.0,0.0,0.0,0.0,0.0,0.0,0.0,0.0,0.0,0.0,0.0,0.0,0.0,0.0,0.0,0.0,0.0,0.0,0.0,0.0,0.0,0.0,0.0,0.0,0.0,0.0,0.0,0.0,0.0,0.0,0.0,0.0,0.0,0.0,0.0,0.0,0.0,0.0,0.0,0.0,0.0,0.0,0.0,0.0,0.0,0.0,0.0,0.0,0.0,0.0,0.0,0.0,0.0,0.0,0.0,0.0,0.0,0.0,0.0,0.0,0.0,0.0,0.0,0.0,0.0,0.0,0.0,0.0,0.0,0.0,0.0,0.0,0.0,0.0,0.0,0.0,0.0,0.0,0.0,0.0,0.0,0.0,0.0,0.0,0.0,0.9136,0.9269,0.9264,0.9253,0.9253,0.9253,0.9253,0.9253,0.0,0.0,0.0,0.0,0.0,0.0,0.0,0.0,0.0,0.0,0.0,0.0,0.0,0.0,0.0,0.0,0.0,0.0,0.0,0.0,0.0,0.0,0.0,0.0,0.0,0.0,0.0,0.0,0.0,0.0,0.0,0.0,0.0,0.0,0.0,0.0,0.0,0.0,0.0,0.0,0.0,0.0,0.0,0.0,0.0,0.0,0.0,0.0,0.0,0.0,0.0,0.0,0.0,0.0,0.0,0.0,0.0,0.0,0.0,0.0,0.0,0.0,0.0,0.0,0.0,0.0,0.0,0.0,0.0,0.0,0.0,0.0,0.0,0.0,0.0,0.0,0.0,0.0,0.0,0.0,0.0,0.0,0.0,0.0,0.0,0.0,0.0,0.0,0.0,0.0,0.0,0.0,0.0,0.0,0.0,0.0,0.0,0.0,0.0,0.0,0.0,0.0,0.0,0.9427,0.9443,0.9497,0.9503,0.9503,0.9503,0.9503,0.9476,0.9405,0.9302,0.0,0.0,0.0,0.0,0.0,0.0,0.0,0.0,0.0,0.0,0.0,0.0,0.0,0.0,0.0,0.0,0.0,0.0,0.0,0.0,0.0,0.0,0.0,0.0,0.0,0.0,0.0,0.0,0.0,0.0,0.0,0.0,0.0,0.0,0.0,0.0,0.0,0.0,0.0,0.0,0.0,0.0,0.0,0.0,0.0,0.0,0.0,0.0,0.0,0.0,0.0,0.0,0.0,0.0,0.0,0.0,0.0,0.0,0.0,0.0,0.0,0.0,0.0,0.0,0.0,0.0,0.0,0.0,0.0,0.0,0.0,0.0,0.0,0.0,0.0,0.0,0.0,0.0,0.0,0.0,0.0,0.0,0.0,0.0,0.0,0.0,0.0,0.0,0.0,0.0,0.0,0.0,0.0,0.0,0.0,0.0,0.0,0.0,0.0,0.0,0.0,0.0,0.9737,0.9753,0.9753,0.9753,0.9753,0.9753,0.9753,0.9715,0.9617,0.9612,0.0,0.0,0.0,0.0,0.0,0.0,0.0,0.0,0.0,0.0,0.0,0.0,0.0,0.0,0.0,0.0,0.0,0.0,0.0,0.0,0.0,0.0,0.0,0.0,0.0,0.0,0.0,0.0,0.0,0.0,0.0,0.0,0.0,0.0,0.0,0.0,0.0,0.0,0.0,0.0,0.0,0.0,0.0,0.0,0.0,0.0,0.0,0.0,0.0,0.0,0.0,0.0,0.0,0.0,0.0,0.0,0.0,0.0,0.0,0.0,0.0,0.0,0.0,0.0,0.0,0.0,0.0,0.0,0.0,0.0,0.0,0.0,0.0,0.0,0.0,0.0,0.0,0.0,0.0,0.0,0.0,0.0,0.0,0.0,0.0,0.0,0.0,0.0,0.0,0.0,0.0,0.0,0.0,0.0,0.0,0.0,0.0,0.0,0.0,0.0,0.0,0.0,0.9888,0.9998,0.9998,0.9998,0.9998,0.9998,0.9998,0.9992,0.9981,0.9981,0.0,0.0,0.0,0.0,0.0,0.0,0.0,0.0,0.0,0.0,0.0,0.0,0.0,0.0,0.0,0.0,0.0,0.0,0.0,0.0,0.0,0.0,0.0,0.0,0.0,0.0,0.0,0.0,0.0,0.0,0.0,0.0,0.0,0.0,0.0,0.0,0.0,0.0,0.0,0.0,0.0,0.0,0.0,0.0,0.0,0.0,0.0,0.0,0.0,0.0,0.0,0.0,0.0,0.0,0.0,0.0,0.0,0.0,0.0,0.0,0.0,0.0,0.0,0.0,0.0,0.0,0.0,0.0,0.0,0.0,0.0,0.0,0.0,0.0,0.0,0.0,0.0,0.0,0.0,0.0,0.0,0.0,0.0,0.0,0.0,0.0,0.0,0.0,0.0,0.0,0.0,0.0,0.0,0.0,0.0,0.0,0.0,0.0,0.0,0.0,0.0,0.0,1.0172,1.0248,1.0248,1.0248,1.0248,1.0248,1.0248,1.0248,1.0248,0.0,0.0,0.0,0.0,0.0,0.0,0.0,0.0,0.0,0.0,0.0,0.0,0.0,0.0,0.0,0.0,0.0,0.0,0.0,0.0,0.0,0.0,0.0,0.0,0.0,0.0,0.0,0.0,0.0,0.0,0.0,0.0,0.0,0.0,0.0,0.0,0.0,0.0,0.0,0.0,0.0,0.0,0.0,0.0,0.0,0.0,0.0,0.0,0.0,0.0,0.0,0.0,0.0,0.0,0.0,0.0,0.0,0.0,0.0,0.0,0.0,0.0,0.0,0.0,0.0,0.0,0.0,0.0,0.0,0.0,0.0,0.0,0.0,0.0,0.0,0.0,0.0,0.0,0.0,0.0,0.0,0.0,0.0,0.0,0.0,0.0,0.0,0.0,0.0,0.0,0.0,0.0,0.0,0.0,0.0,0.0,0.0,0.0,0.0,0.0,0.0,0.0,1.0259,1.0335,1.0384,1.0384,1.0384,1.0384,1.0384,1.0384,1.0384,1.0384,0.0,0.0,0.0,0.0,0.0,0.0,0.0,0.0,0.0,0.0,0.0,0.0,0.0,0.0,0.0,0.0,0.0,0.0,0.0,0.0,0.0,0.0,0.0,0.0,0.0,0.0,0.0,0.0,0.0,0.0,0.0,0.0,0.0,0.0,0.0,0.0,0.0,0.0,0.0,0.0,0.0,0.0,0.0,0.0,0.0,0.0,0.0,0.0,0.0,0.0,0.0,0.0,0.0,0.0,0.0,0.0,0.0,0.0,0.0,0.0,0.0,0.0,0.0,0.0,0.0,0.0,0.0,0.0,0.0,0.0,0.0,0.0,0.0,0.0,0.0,0.0,0.0,0.0,0.0,0.0,0.0,0.0,0.0,0.0,0.0,0.0,0.0,0.0,0.0,0.0,0.0,0.0,0.0,0.0,0.0,0.0,0.0,0.0,0.0,0.0,0.0,0.0,1.0389,1.0389,1.0389,1.0389,1.0389,1.0389,1.0389,1.0389,1.0389,0.0,0.0,0.0,0.0,0.0,0.0,0.0,0.0,0.0,0.0,0.0,0.0,0.0,0.0,0.0,0.0,0.0,0.0,0.0,0.0,0.0,0.0,0.0,0.0,0.0,0.0,0.0,0.0,0.0,0.0,0.0,0.0,0.0,0.0,0.0,0.0,0.0,0.0,0.0,0.0,0.0,0.0,0.0,0.0,0.0,0.0,0.0,0.0,0.0,0.0,0.0,0.0,0.0,0.0,0.0,0.0,0.0,0.0,0.0,0.0,0.0,0.0,0.0,0.0,0.0,0.0,0.0,0.0,0.0,0.0,0.0,0.0,0.0,0.0,0.0,0.0,0.0,0.0,0.0,0.0,0.0,0.0,0.0,0.0,0.0,0.0,0.0,0.0,0.0,0.0,0.0,0.0,0.0,0.0,0.0,0.0,0.0,0.0,0.0,0.0,0.0,0.0,0.0,1.0549,1.0579,1.0592,1.0592,1.0592,1.0592,1.0592,1.0592,1.0592,1.0592,0.0,0.0,0.0,0.0,0.0,0.0,0.0,0.0,0.0,0.0,0.0,0.0,0.0,0.0,0.0,0.0,0.0,0.0,0.0,0.0,0.0,0.0,0.0,0.0,0.0,0.0,0.0,0.0,0.0,0.0,0.0,0.0,0.0,0.0,0.0,0.0,0.0,0.0,0.0,0.0,0.0,0.0,0.0,0.0,0.0,0.0,0.0,0.0,0.0,0.0,0.0,0.0,0.0,0.0,0.0,0.0,0.0,0.0,0.0,0.0,0.0,0.0,0.0,0.0,0.0,0.0,0.0,0.0,0.0,0.0,0.0,0.0,0.0,0.0,0.0,0.0,0.0,0.0,0.0,0.0,0.0,0.0,0.0,0.0,0.0,0.0,0.0,0.0,0.0,0.0,0.0,0.0,0.0,0.0,0.0,0.0,0.0,0.0,0.0,0.0,0.0,0.0,1.0628,1.0693,1.0695,1.0695,1.0695,1.0695,1.0695,1.0695,1.0695,1.0695,0.0,0.0,0.0,0.0,0.0,0.0,0.0,0.0,0.0,0.0,0.0,0.0,0.0,0.0,0.0,0.0,0.0,0.0,0.0,0.0,0.0,0.0,0.0,0.0,0.0,0.0,0.0,0.0,0.0,0.0,0.0,0.0,0.0,0.0,0.0,0.0,0.0,0.0,0.0,0.0,0.0,0.0,0.0,0.0,0.0,0.0,0.0,0.0,0.0,0.0,0.0,0.0,0.0,0.0,0.0,0.0,0.0,0.0,0.0,0.0,0.0,0.0,0.0,0.0,0.0,0.0,0.0,0.0,0.0,0.0,0.0,0.0,0.0,0.0,0.0,0.0,0.0,0.0,0.0,0.0,0.0,0.0,0.0,0.0,0.0,0.0,0.0,0.0,0.0,0.0,0.0,0.0,0.0,0.0,0.0,0.0,0.0,0.0,0.0,0.0,0.0,0.0,1.0695,1.0695,1.0695,1.0695,1.0695,1.0695,1.0695,1.0695,1.0695,1.0695,0.0,0.0,0.0,0.0,0.0,0.0,0.0,0.0,0.0,0.0,0.0,0.0,0.0,0.0,0.0,0.0,0.0,0.0,0.0,0.0,0.0,0.0,0.0,0.0,0.0,0.0,0.0,0.0,0.0,0.0,0.0,0.0,0.0,0.0,0.0,0.0,0.0,0.0,0.0,0.0,0.0,0.0,0.0,0.0,0.0,0.0,0.0,0.0,0.0,0.0,0.0,0.0,0.0,0.0,0.0,0.0,0.0,0.0,0.0,0.0,1.2935,1.2775,0.0,0.0,0.0,0.0,0.0,0.0,0.0,0.0,0.0,0.0,0.0,0.0,0.0,0.0,0.0,0.0,0.0,0.0,0.0,0.0,0.0,0.0,0.0,0.0,0.0,0.0,0.0,0.0,0.0,0.0,0.0,0.0,0.0,0.0,0.0,0.0,0.0,0.0,0.0,0.0,1.0695,1.0695,1.0695,1.0695,1.0695,1.0695,1.0695,1.0695,1.0695,1.0695,1.0695,0.0,0.0,0.0,0.0,0.0,0.0,0.0,0.0,0.0,0.0,0.0,0.0,0.0,0.0,0.0,0.0,0.0,0.0,0.0,0.0,0.0,0.0,0.0,0.0,0.0,0.0,0.0,0.0,0.0,0.0,0.0,0.0,0.0,0.0,0.0,0.0,0.0,0.0,0.0,0.0,0.0,0.0,0.0,0.0,0.0,0.0,0.0,0.0,0.0,0.0,0.0,0.0,0.0,0.0,0.0,0.0,0.0,0.0,0.0,1.3152,1.3063,0.0,0.0,0.0,0.0,0.0,0.0,0.0,0.0,0.0,0.0,0.0,0.0,0.0,0.0,0.0,0.0,0.0,0.0,0.0,0.0,0.0,0.0,0.0,0.0,0.0,0.0,0.0,0.0,0.0,0.0,0.0,0.0,0.0,0.0,0.0,0.0,0.0,0.0,0.0,0.0,1.0869,1.0869,1.0869,1.0869,1.0869,1.0869,1.0869,1.0869,1.0869,1.0869,1.0869,0.0,0.0,0.0,0.0,0.0,0.0,0.0,0.0,0.0,0.0,0.0,0.0,0.0,0.0,0.0,0.0,0.0,0.0,0.0,0.0,0.0,0.0,0.0,0.0,0.0,0.0,0.0,0.0,0.0,0.0,0.0,0.0,0.0,0.0,0.0,0.0,0.0,0.0,0.0,0.0,0.0,0.0,0.0,0.0,0.0,0.0,0.0,0.0,0.0,0.0,0.0,0.0,0.0,1.3619,1.3648,1.3444,1.3558,1.3558,1.3478,1.3478,1.3449,1.3501,1.3432,0.0,0.0,0.0,0.0,0.0,0.0,0.0,0.0,0.0,0.0,0.0,0.0,0.0,0.0,0.0,0.0,0.0,0.0,0.0,0.0,0.0,0.0,1.1672,1.1285,1.1166,1.1166,1.1166,0.0,0.0,0.0,0.0,0.0,0.0,0.0,0.0,0.0,0.0,0.0,1.1101,1.1101,1.1101,1.1101,1.1101,1.1101,1.1101,1.1101,1.1101,1.1101,1.1101,1.1101,0.0,0.0,0.0,0.0,0.0,0.0,0.0,0.0,0.0,0.0,0.0,0.0,0.0,0.0,0.0,0.0,0.0,0.0,0.0,0.0,0.0,0.0,0.0,0.0,0.0,0.0,0.0,0.0,0.0,0.0,0.0,0.0,1.246,1.2557,0.0,0.0,0.0,0.0,0.0,0.0,0.0,0.0,0.0,0.0,0.0,0.0,0.0,1.3761,1.3741,1.3546,1.3485,1.3558,1.3505,1.3505,1.3565,1.3707,1.3761,1.3741,1.3741,0.0,1.2982,1.2859,0.0,0.0,0.0,0.0,0.0,0.0,0.0,0.0,0.0,0.0,0.0,0.0,0.0,0.0,0.0,0.0,0.0,0.0,0.0,0.0,0.0,0.0,1.1761,1.1494,1.1455,1.1455,1.1455,1.1248,1.1101,1.1101,1.1101,1.1101,0.0,0.0,0.0,0.0,0.0,0.0,1.1101,1.1101,1.1101,1.1101,1.1101,1.1101,1.1101,1.1101,1.1101,1.1101,1.1101,1.1101,1.1101,1.1101,0.0,0.0,0.0,0.0,0.0,0.0,0.0,0.0,0.0,0.0,0.0,0.0,0.0,0.0,0.0,0.0,0.0,0.0,0.0,0.0,0.0,0.0,0.0,0.0,0.0,0.0,0.0,0.0,0.0,1.2994,1.3067,1.3126,1.3366,1.362,0.0,0.0,0.0,0.0,0.0,0.0,0.0,0.0,0.0,1.3885,1.3939,1.3933,1.3795,1.397,1.4112,1.4174,1.4365,1.4492,1.4564,1.4629,1.4657,1.4657,1.4657,1.4493,1.4224,1.3685,1.3378,1.323,0.0,0.0,0.0,0.0,1.2828,1.3192,1.2477,1.2755,1.3393,1.3242,0.0,0.0,0.0,0.0,0.0,0.0,0.0,1.3457,1.291,1.2678,1.247,1.2198,1.1882,1.1661,1.1661,1.158,1.1487,1.1417,1.1677,1.1855,1.1548,1.1504,0.0,0.0,0.0,1.1504,1.1504,1.1504,1.1504,1.1504,1.1444,1.1361,1.1361,1.134,1.1302,1.1302,1.1302,1.1302,1.1302,1.1302,1.1401,0.0,0.0,0.0,0.0,0.0,0.0,0.0,0.0,0.0,0.0,0.0,0.0,0.0,0.0,0.0,0.0,0.0,0.0,0.0,0.0,0.0,0.0,0.0,0.0,0.0,0.0,0.0,0.0,1.3462,1.36,1.3675,1.3766,1.3961,0.0,0.0,0.0,0.0,0.0,0.0,1.4119,1.4396,1.449,1.4293,1.4416,1.4425,1.4305,1.4564,1.4715,1.4801,1.4974,1.5126,1.5169,1.5169,1.5213,1.5336,1.5336,1.543,1.5466,1.4728,1.4277,1.4106,1.4106,1.4126,1.4064,1.3622,1.3887,1.4353,1.3587,1.3971,1.4771,1.4547,1.4618,1.4806,1.478,0.0,0.0,0.0,0.0,1.4142,1.3694,1.3291,1.293,1.2602,1.2158,1.1819,1.1819,1.1932,1.1962,1.1705,1.2073,1.2272,1.1865,1.1819,0.0,1.1819,1.1819,1.1819,1.1819,1.1819,1.1819,1.1819,1.1692,1.1638,1.1638,1.1731,1.1771,1.1771,1.1905,1.195,1.195,1.195,1.195,1.1986,0.0,0.0,0.0,0.0,0.0,0.0,0.0,0.0,0.0,0.0,0.0,0.0,0.0,0.0,0.0,0.0,0.0,0.0,0.0,0.0,0.0,0.0,0.0,0.0,0.0,0.0,0.0,0.0,0.0,1.384,1.4216,0.0,0.0,0.0,0.0,1.4299,1.4676,1.4701,1.4125,1.4945,1.5242,1.48,1.5191,1.5526,1.5682,1.5235,1.5093,1.5243,1.4751,1.4602,1.4738,1.4738,1.501,1.5502,1.5502,1.5729,1.6099,1.5488,1.5281,1.5379,1.5379,1.5475,1.5528,1.508,1.4903,1.4948,1.4896,1.4841,1.4887,1.5278,1.5213,1.4801,1.4367,1.4085,0.0,0.0,1.3298,1.3464,1.3065,1.2887,1.274,1.2384,1.205,1.1819,1.1819,1.2229,1.25,1.1876,1.1813,1.1819,1.1819,0.0,1.1819,1.1819,1.1819,1.1819,1.1819,1.1819,1.1819,1.1819,1.1768,1.1808,1.1808,1.2255,1.2523,1.2523,1.298,1.3208,1.3208,1.3208,1.343,1.3841,1.388,0.0,0.0,0.0,0.0,0.0,0.0,0.0,0.0,0.0,0.0,0.0,0.0,0.0,0.0,0.0,0.0,0.0,0.0,0.0,0.0,0.0,0.0,0.0,0.0,0.0,0.0,0.0,0.0,1.4582,1.4909,0.0,1.5528,1.538,1.5194,1.497,1.5104,1.4949,1.4404,1.4761,1.5078,1.525,1.5078,1.5331,1.6062,1.5883,1.5957,1.634,1.6423,1.6536,1.6552,1.6552,1.6688,1.687,1.687,1.696,1.7081,1.6881,1.6455,1.5928,1.5928,1.6144,1.6429,1.5928,1.5793,1.5748,1.5426,1.5479,1.5794,1.6248,1.6286,1.604,1.5366,1.5564,1.578,1.4631,1.4623,1.4856,1.4719,1.4015,1.3385,1.37,1.2992,1.2233,1.2233,1.2409,1.2521,1.2286,1.2386,1.2421,1.2094,1.2047,1.2047,1.2047,1.2047,1.2047,1.2047,1.2047,1.2047,1.2047,1.1976,1.1928,1.1928,1.2357,1.2586,1.2586,1.3044,1.3318,1.3318,1.3318,1.3364,1.3547,1.3866,1.4075,0.0,0.0,0.0,0.0,0.0,0.0,0.0,0.0,0.0,0.0,0.0,0.0,0.0,0.0,0.0,0.0,0.0,0.0,0.0,0.0,0.0,0.0,0.0,0.0,0.0,1.5017,1.5381,1.5543,1.5823,1.6052,1.6279,1.6122,1.5891,1.5627,1.5582,1.5447,1.5087,1.5321,1.5627,1.6043,1.586,1.6118,1.6857,1.6682,1.6804,1.718,1.7318,1.7442,1.7451,1.7434,1.7534,1.772,1.76,1.7676,1.7908,1.7843,1.7453,1.685,1.6734,1.687,1.7104,1.6779,1.6727,1.6735,1.6408,1.6499,1.6811,1.7075,1.715,1.6992,1.6323,1.6582,1.6857,1.571,1.5618,1.5848,1.5848,1.5031,1.4266,1.4687,1.3903,1.3017,1.3017,1.3017,1.3017,1.3017,1.2887,1.2679,1.2339,1.2297,1.2339,1.253,1.2435,1.2387,1.253,1.2578,1.2578,1.2578,1.2642,1.2686,1.2686,1.3128,1.3343,1.3295,1.3759,1.4012,1.3921,1.3914,1.3914,1.3914,1.4198,1.4356,1.4356,0.0,0.0,0.0,0.0,0.0,0.0,0.0,0.0,0.0,0.0,0.0,0.0,0.0,0.0,0.0,0.0,0.0,0.0,0.0,0.0,0.0,0.0,0.0,1.5749,1.6116,1.6479,1.6703,1.6829,1.6931,1.6931,1.672,1.6475,1.6264,1.6249,1.6211,1.6211,1.6666,1.6971,1.7226,1.7656,1.7967,1.8231,1.7678,1.753,1.7733,1.7267,1.7119,1.7228,1.7112,1.7406,1.7976,1.7593,1.7828,1.8491,1.8312,1.8239,1.8198,1.7794,1.7611,1.7611,1.7611,1.7724,1.7878,1.7878,1.7878,1.7854,1.7676,1.7619,1.7528,1.709,1.6954,1.6863,1.6401,1.6257,1.6257,1.6257,1.5711,1.5194,1.5241,1.4661,1.4091,1.4091,1.4091,1.4091,1.4091,1.3223,1.2542,1.2536,1.2536,1.2725,1.3254,1.2871,0.0,1.3254,1.3303,1.3303,1.3303,1.3788,1.4079,1.4079,1.457,1.4851,1.4709,1.5132,1.535,1.5201,1.5194,1.5194,1.5194,1.5065,1.5037,1.5037,0.0,0.0,0.0,0.0,0.0,0.0,0.0,0.0,0.0,0.0,0.0,0.0,0.0,0.0,0.0,0.0,0.0,0.0,0.0,0.0,0.0,1.6635,1.6743,1.634,1.6544,1.6845,1.7054,1.728,1.747,1.7606,1.757,1.7396,1.7103,1.7057,1.6918,1.6593,1.6686,1.6941,1.7312,1.7296,1.7624,1.8418,1.8026,1.8025,1.8408,1.8312,1.824,1.8288,1.824,1.8344,1.848,1.8376,1.8463,1.8647,1.859,1.8574,1.8533,1.8168,1.803,1.803,1.803,1.783,1.7506,1.7126,1.7033,1.7095,1.7538,1.7655,1.7726,1.8104,1.8191,1.8073,1.746,1.7281,1.7258,1.7088,1.6274,1.5595,1.5938,1.5146,1.4366,1.4366,1.4075,1.3834,1.3834,1.3239,1.2985,1.3581,1.3648,1.3697,1.3837,1.374,1.3697,1.3837,1.3885,1.3885,1.3885,1.4031,1.4079,1.4079,1.457,1.489,1.4851,1.5285,1.5512,1.5465,1.5465,1.5465,1.5465,1.5424,1.5459,0.0,0.0,0.0,0.0,0.0,0.0,0.0,0.0,0.0,0.0,0.0,0.0,0.0,0.0,0.0,0.0,0.0,0.0,0.0,0.0,0.0,0.0,1.7243,1.7434,1.7227,1.7279,1.7345,1.7486,1.77,1.7908,1.8014,1.8095,1.8091,1.7867,1.7891,1.7836,1.7553,1.7553,1.7647,1.7939,1.7796,1.8025,1.8719,1.8416,1.8504,1.8948,1.8874,1.8874,1.8948,1.8866,1.8874,1.8939,1.8785,1.8769,1.8834,1.8834,1.8834,1.8801,0.0,0.0,0.0,0.0,1.8279,1.7899,1.7725,1.7614,1.7615,1.8002,1.8177,1.8304,1.8705,1.8891,1.8858,1.8384,1.8232,1.8192,1.7978,1.7184,1.6496,1.6789,1.6092,1.5353,1.5353,1.5101,1.4855,1.4855,1.4603,0.0,1.5042,1.4471,1.4103,1.4545,1.4397,1.4348,1.4594,1.4594,1.4594,1.4594,1.479,1.4937,1.4937,1.5231,0.0,0.0,0.0,1.5703,1.5593,1.5593,0.0,0.0,0.0,1.5593,1.5593,1.5499,0.0,0.0,1.4938,1.4923,0.0,0.0,0.0,0.0,0.0,0.0,0.0,0.0,0.0,0.0,0.0,0.0,0.0,0.0,0.0,0.0,1.7723,1.8038,1.8217,1.8103,1.7997,1.7981,1.8135,1.828,1.828,1.8434,1.8532,1.8532,1.8631,1.868,1.868,1.8696,0.0,0.0,0.0,1.8883,1.9013,1.8899,1.9004,1.9363,1.92,1.9159,1.9363,1.9151,1.9216,1.9354,1.898,1.8931,1.9069,1.9069,1.9069,1.9053,1.8858,1.8785,1.8801,1.8956,1.8915,1.8761,1.8907,0.0,0.0,1.8681,1.8826,1.8988,1.9004,1.9175,1.9273,1.9086,1.898,1.8939,1.8769,1.8192,1.7692,1.7692,1.7085,1.6548,1.6548,1.6459,1.6421,1.6421,1.637,1.6319,1.6421,1.5095,1.4331,1.5275,1.5025,1.4925,1.5375,1.5425,1.5425,1.5425,1.5881,0.0,1.613,1.6117,1.6049,1.5962,1.5935,1.5825,1.5648,1.5641,1.5641,1.5641,1.5641,1.5641,1.5641,1.5621,1.5614,1.5607,1.5371,1.5235,0.0,0.0,0.0,0.0,0.0,0.0,0.0,0.0,0.0,0.0,0.0,0.0,0.0,0.0,0.0,1.7771,1.8129,1.8459,1.859,1.859,1.8517,1.841,1.8509,1.8623,1.8623,1.8655,1.8671,1.8671,1.8704,1.868,1.868,1.8858,1.8866,1.8728,1.9134,1.9313,1.9257,1.9459,1.9622,1.9687,1.9654,0.0,1.9687,1.9646,1.9654,1.9687,1.9613,1.9605,1.9638,1.9638,1.9638,1.9605,1.9281,1.9159,1.9208,1.924,1.9232,1.911,1.874,1.8735,1.8907,1.8611,1.8727,1.9013,1.9208,1.9281,0.0,1.9086,1.898,1.8939,1.8769,1.8398,1.8059,1.8059,1.7518,1.6997,1.6997,1.6391,1.5865,1.5865,1.55,1.5347,1.5763,1.5915,1.6029,1.6232,1.6181,1.613,1.6232,1.6283,1.6283,1.6283,1.6385,1.6435,1.6435,1.6334,1.6252,1.6225,1.6103,1.6022,1.5995,1.5995,1.5995,1.5995,1.5995,1.5995,1.5995,1.5872,1.586,1.5854,1.5635,1.5506,0.0,0.0,0.0,0.0,0.0,0.0,0.0,0.0,0.0,0.0,0.0,1.6772,1.7174,0.0,1.7844,1.8208,1.8456,1.8623,1.8712,1.8883,1.8891,1.8623,1.8671,1.868,1.868,1.8891,1.8996,1.8996,1.9159,1.9256,1.9256,1.9337,1.9345,1.9256,1.9516,1.9654,1.9713,1.9743,1.9833,1.993,1.9833,1.9792,1.9792,1.9792,1.9792,1.9792,1.9792,1.9792,1.98,1.9575,1.9561,1.9632,1.9457,1.9484,1.9574,1.9574,1.9374,1.9115,1.872,1.8726,1.8803,1.8605,1.8853,1.9264,1.9362,1.9451,1.9484,1.9297,1.9248,1.9232,1.9142,1.8861,1.8613,1.8698,1.8054,1.7462,1.7462,1.6855,1.634,1.634,1.6132,1.6028,1.6288,1.6547,1.67,1.6544,1.6524,1.6524,1.6524,1.6524,1.6524,1.6524,1.6524,1.6524,1.6524,1.6456,1.6415,1.6415,1.6341,1.63,1.63,1.63,1.63,1.63,1.63,1.6266,1.6198,1.6117,1.6092,1.6017,1.5893,1.5778,0.0,0.0,0.0,0.0,0.0,0.0,0.0,1.6608,1.6769,1.6722,1.6838,1.7186,1.7843,1.7922,1.8089,1.8697,1.8834,1.885,1.8923,1.9183,1.9306,1.8964,1.8931,1.8931,1.8931,1.9191,1.9411,1.9411,1.963,1.9792,1.9792,1.9825,1.9825,1.9792,1.9857,1.9946,2.012,1.9955,1.9971,2.0169,1.9963,1.989,1.989,1.989,1.989,1.989,1.989,1.989,1.9855,1.9529,1.9464,1.9493,1.9493,1.9529,1.9583,1.9839,1.9489,1.8903,1.8866,1.8745,1.8641,1.8502,1.8875,1.9414,1.9414,1.9569,1.976,1.9605,1.9565,1.9565,1.9565,1.9375,1.9179,1.9189,1.8581,1.7923,1.7853,1.744,1.7019,1.7019,1.6998,1.6978,1.6978,1.6978,1.6897,1.6646,1.6612,1.6612,1.6612,1.6612,1.6612,1.6612,1.6612,1.6598,1.652,1.6564,1.6551,1.6524,1.6524,1.6524,1.6524,1.6524,1.6524,1.6524,1.6524,1.6463,1.6347,1.6347,1.6286,1.6171,1.6171,1.6008,1.5982,1.5863,1.5967,1.6197,1.647,1.6649,0.0,1.6926,1.7157,1.7111,1.7599,1.8044,1.8131,1.839,1.8705,1.9142,1.9249,1.9363,1.963,1.9703,1.9719,1.9678,1.967,1.967,1.967,1.9703,1.9727,1.9727,1.9768,1.9792,1.9792,1.9946,1.9963,1.9792,2.0093,2.0198,2.012,2.0198,2.0271,2.0288,2.0271,2.0263,2.0263,2.0263,2.0263,2.0263,2.0263,2.0263,2.0263,2.0175,1.9887,1.9493,1.9493,1.9201,1.885,1.9891,1.9579,1.8745,1.9251,1.8995,1.8453,1.8431,1.8699,1.9057,1.9057,1.9421,1.9784,1.976,1.976,1.976,1.976,1.9725,1.9629,1.9292,1.8834,1.8424,1.8042,1.754,1.7168,1.7168,1.7066,1.6978,1.6978,1.6978,1.6971,1.6937,1.6931,1.6931,1.6931,1.6931,1.6931,1.6931,1.6931,1.6876,1.6682,1.6669,1.6615,1.653,1.6524,1.6524,1.6524,1.6524,1.6524,1.6524,1.6524,1.6517,1.6497,1.6497,1.649,1.6469,1.6469,1.6313,1.6344,1.6472,1.6686,1.6989,1.7166,1.7326,1.7546,1.778,1.7944,1.7944,1.8229,1.8525,1.8631,1.8858,1.9118,1.937,1.95,1.9622,1.9768,1.9882,1.9955,1.9955,2.0036,2.002,1.9808,1.989,1.9955,1.9955,2.0044,2.015,2.0255,2.0336,2.0385,2.0462,2.0608,2.0596,2.0576,2.0596,2.0629,2.0629,2.0629,2.0629,2.0629,2.0629,2.0629,2.0629,2.0258,2.0311,2.0576,1.9887,1.9683,1.9736,1.9417,1.8932,1.8477,1.9076,1.9007,1.8626,1.8797,1.8669,1.8395,1.8291,1.837,1.8462,1.8462,1.8869,1.9284,1.9335,1.9538,1.9817,1.9922,1.9955,1.9865,1.9566,1.9106,1.8676,1.8252,1.7699,1.7324,1.7324,1.7277,1.7236,1.7236,1.7236,1.7236,1.7236,1.7087,1.6978,1.6978,1.6978,1.6978,1.6978,1.6978,1.6951,1.689,1.6883,1.6856,1.6795,1.6788,1.6788,1.6788,1.6788,1.6788,1.6788,1.6788,1.6741,1.6601,1.6601,1.656,1.6524,1.6524,1.6456,1.6693,1.6996,1.7454,1.7762,1.7898,1.8018,1.826,1.8428,1.8589,1.8638,1.8744,1.8923,1.9094,1.9281,1.9509,1.9638,1.9776,1.9882,1.993,2.0052,2.0133,2.0133,2.0288,2.0296,2.0036,2.0085,2.0158,2.0206,2.0328,2.0474,2.0661,2.0669,2.0726,2.0901,2.091,2.091,2.091,2.091,2.091,2.091,2.091,2.091,2.091,2.091,2.091,2.0856,2.0428,2.0428,2.0588,1.9731,1.9409,1.9516,1.9033,1.8549,1.8091,1.8229,1.8248,1.8279,1.8283,1.818,1.8047,1.7887,1.7931,1.8034,1.8034,1.8393,1.8811,1.8863,1.9273,1.9766,1.9894,2.0038,2.0067,1.9621,1.9228,1.8808,1.8312,1.7778,1.7487,1.7487,1.7446,1.7419,1.7419,1.7419,1.7419,1.7419,1.7236,1.7087,1.7046,1.7005,1.6978,1.6978,1.6978,1.6978,1.6978,1.6978,1.6978,1.6978,1.6978,1.6978,1.6978,1.6978,1.6978,1.6978,1.6978,1.6924,1.6763,1.6763,1.6682,1.6585,1.6585,1.6564,1.6821,1.7419,1.799,1.8153,1.8407,1.8664,1.8664,1.8712,1.8761,1.8931,1.9167,1.9346,1.9467,1.9646,1.9833,2.0071,2.0104,2.0117,2.0279,2.0312,2.0312,2.0312,2.0474,2.0588,2.0572,2.0409,2.0385,2.0564,2.0588,2.0661,2.0893,2.0901,2.0901,2.091,2.091,2.091,2.091,2.091,2.091,2.091,2.091,2.091,2.091,2.091,2.091,2.091,2.091,2.0535,1.9999,1.9999,1.9355,1.8327,1.8327,1.7958,1.7419,1.7412,1.7459,1.7493,1.7875,1.766,1.7208,1.7065,1.7384,1.7796,1.7796,1.8163,1.8626,1.8626,1.9052,1.9529,1.9537,1.9895,2.0087,1.9326,1.9087,1.8899,1.806,1.7738,1.7595,1.7595,1.7467,1.7419,1.7419,1.7419,1.7419,1.7419,1.7412,1.7351,1.7202,1.7066,1.6978,1.6978,1.6978,1.6978,1.6978,1.6978,1.6978,1.6978,1.6978,1.6978,1.6978,1.6978,1.6978,1.6978,1.6978,1.6978,1.6971,1.6971,1.6897,1.6689,1.6689,1.6615,1.7595,1.7964,1.8204,1.8439,1.8624,1.8785,1.9029,1.9077,1.9159,1.9459,1.9359,1.9241,1.9296,1.9454,1.9544,1.9599,1.9971,2.0255,2.0312,2.0426,2.0507,2.0507,2.0661,2.082,2.082,2.0763,2.0755,2.0812,2.082,2.0848,2.1027,2.1035,2.1092,2.126,2.1205,2.1205,2.1205,2.1205,2.1205,2.1205,2.1205,2.1205,2.1205,2.0824,2.0606,2.0606,1.9796,1.957,1.9687,1.9305,1.9141,1.9133,1.8703,1.8437,1.8211,1.7875,1.7724,1.7779,1.8072,1.8088,1.792,1.7871,1.7697,1.7537,1.7537,1.7957,1.849,1.8817,1.9349,1.9934,2.0306,2.0571,2.0542,1.9869,1.9492,1.9117,1.8456,1.8019,1.7792,1.7792,1.7758,1.7724,1.7724,1.7724,1.7724,1.7724,1.7548,1.7399,1.7351,1.7304,1.727,1.727,1.727,1.7229,1.7127,1.7121,1.708,1.6985,1.6978,1.6978,1.6978,1.6978,1.6978,1.6978,1.6978,1.6978,1.6978,1.6978,1.6951,1.6904,1.6904,1.6876,1.8344,1.859,1.8724,1.902,1.911,1.9167,1.9394,1.9501,1.9582,1.9825,1.9565,1.9285,1.9347,1.9338,1.9355,1.9566,1.9936,2.0252,2.0454,2.0612,2.0686,2.0686,2.0848,2.0978,2.1089,2.1097,2.1072,2.0954,2.0954,2.1027,2.1205,2.1222,2.1278,2.1384,2.1449,2.149,2.149,2.1555,2.1571,2.1571,2.1514,2.149,2.149,2.0812,2.0505,2.045,1.946,1.9136,1.9254,1.8868,1.8813,1.8964,1.8585,1.8412,1.8357,1.8033,1.7915,1.7881,1.8017,1.8042,1.8028,1.7972,1.7742,1.7419,1.7419,1.7688,1.8119,1.8657,1.9248,1.9838,2.0428,2.0749,2.0765,2.0185,1.9783,1.9327,1.8775,1.835,1.8023,1.8023,1.8023,1.8002,1.8004,1.7956,1.7915,1.7915,1.7704,1.7561,1.7453,1.7453,1.7419,1.7419,1.7419,1.7378,1.7283,1.727,1.7236,1.7148,1.7134,1.7114,1.706,1.706,1.7032,1.6985,1.6978,1.6978,1.6978,1.6978,1.6951,1.6897,1.6897,1.687,1.9022,1.925,1.9573,1.9743,1.9792,1.9792,1.98,1.9808,1.9857,2.0104,1.9711,1.9458,1.9681,1.9364,1.9317,1.9907,2.0007,2.0267,2.0803,2.0918,2.0926,2.0926,2.1027,2.1205,2.136,2.1384,2.1319,2.1165,2.1148,2.1213,2.1384,2.1384,2.1384,2.1384,2.161,2.1716,2.1716,2.1847,2.188,2.1872,2.1766,2.1684,2.166,2.0843,2.0474,2.0379,1.982,1.9213,1.8661,1.8661,1.8378,1.7936,1.7936,1.7936,1.7936,1.7936,1.7936,1.786,1.7704,1.7609,1.7575,1.7494,1.7446,1.7446,1.7446,1.7446,1.7547,1.814,1.8679,1.9224,1.9861,2.0452,2.076,2.0333,1.9896,1.9519,1.9095,1.8663,1.8321,1.8321,1.8321,1.8267,1.8124,1.7989,1.7936,1.7936,1.7936,1.7826,1.7629,1.748,1.7446,1.7446,1.7446,1.7439,1.7433,1.7433,1.7433,1.7419,1.7419,1.7358,1.7209,1.7202,1.7141,1.7005,1.7005,1.6998,1.6992,1.6992,1.691,1.6709,1.6709,1.6628,1.9319,1.9553,1.9727,1.9776,1.9792,1.9825,1.9963,1.9995,2.0085,2.0401,1.9758,1.9333,1.9931,1.9676,1.9482,2.0085,2.0461,2.0696,2.091,2.097,2.1059,2.1059,2.1213,2.1343,2.1384,2.1384,2.1425,2.1569,2.1408,2.1343,2.1384,2.1384,2.1384,2.1384,2.1425,2.1569,2.1716,2.1847,2.1647,2.1252,2.1655,2.1639,2.1166,2.0525,1.9942,1.95,1.8874,1.8544,1.8375,1.8301,1.8155,1.8036,1.8036,1.8036,1.8036,1.8036,1.8036,1.8002,1.786,1.7812,1.7812,1.7758,1.7758,1.7758,1.7758,1.7758,1.7909,1.8417,1.8684,1.9027,2.01,2.0482,2.063,2.0823,2.0317,1.9733,1.9478,1.886,1.8321,1.8321,1.8321,1.8301,1.8267,1.8233,1.8199,1.8199,1.8199,1.8111,1.7846,1.7772,1.7758,1.7758,1.7758,1.7704,1.7548,1.7534,1.7487,1.7426,1.7419,1.7405,1.7365,1.7365,1.7344,1.7311,1.7311,1.7249,1.7141,1.7141,1.7066,1.6924,1.6924,1.6904,1.9709,1.9833,1.993,2.0003,2.002,2.0017,1.9943,1.9923,1.9922,2.0004,1.9461,1.9114,1.9796,1.9558,1.9463,2.0217,2.0559,2.0813,2.1083,2.1173,2.1238,2.1238,2.1319,2.1425,2.1545,2.1425,2.149,2.1766,2.162,2.1514,2.1514,2.1579,2.1595,2.1514,2.166,2.1831,2.2026,2.2131,2.1871,2.1237,2.1515,2.1314,2.0667,1.9984,1.9516,1.9106,1.8445,1.8179,1.8124,1.8091,1.8091,1.8091,1.8158,1.8199,1.8199,1.8199,1.8199,1.8179,1.8091,1.8057,1.8036,1.7956,1.7915,1.7915,1.7915,1.7915,1.8033,1.853,1.8868,1.9309,2.0246,2.0678,2.0929,2.1161,2.0575,1.9986,2.0059,1.9262,1.8511,1.8511,1.8464,1.8409,1.8409,1.8355,1.8321,1.8321,1.8321,1.8247,1.8091,1.8002,1.799,1.7915,1.7915,1.7826,1.7758,1.7738,1.7704,1.7623,1.7616,1.7589,1.7467,1.7467,1.7433,1.7419,1.7419,1.7378,1.729,1.729,1.7249,1.7175,1.7107,1.7073,2.0071,2.0136,2.0133,2.0288,2.0336,2.0236,1.9809,1.972,1.9684,1.9403,1.9002,1.8945,1.9614,1.9385,1.9422,2.0474,2.0623,2.0772,2.1329,2.1384,2.1384,2.1384,2.1384,2.1449,2.162,2.1545,2.1555,2.1856,2.1806,2.1725,2.1701,2.1831,2.1831,2.1701,2.2017,2.2212,2.2209,2.2291,2.2003,2.1245,2.1221,2.0865,2.0171,1.9569,1.9142,1.8951,1.841,1.8111,1.8044,1.8111,1.8145,1.8158,1.8301,1.8355,1.8355,1.8355,1.8355,1.8335,1.8321,1.8321,1.8287,1.8002,1.797,1.797,1.797,1.7914,1.8011,1.8509,1.9041,1.9632,2.0238,2.0827,2.1321,2.1384,2.0754,2.0275,2.0522,1.9626,1.8742,1.8762,1.8654,1.8565,1.8565,1.8464,1.8375,1.8375,1.8375,1.8375,1.8355,1.8213,1.8077,1.799,1.7956,1.7956,1.7956,1.7936,1.7915,1.7915,1.7915,1.7812,1.7629,1.7629,1.7616,1.748,1.748,1.7467,1.7453,1.7453,1.7439,1.7419,1.7283,1.7222,2.0112,2.0174,2.0288,2.0312,2.0434,2.0397,1.9832,1.9907,2.0008,1.9645,1.9154,1.9214,2.0327,2.0079,2.0097,2.1079,2.1266,2.1266,2.1384,2.1384,2.1384,2.1384,2.1384,2.1408,2.1425,2.1585,2.1701,2.1912,2.2042,2.2042,2.1896,2.1766,2.1766,2.1839,2.2082,2.1699,2.0709,2.1364,2.1086,2.0023,2.0464,2.0384,1.9828,1.9669,1.9353,1.882,1.8698,1.8698,1.8606,1.8498,1.8407,1.8407,1.8477,1.8498,1.8498,1.8498,1.8498,1.8477,1.8355,1.8321,1.8265,1.8247,1.8233,1.8233,1.8233,1.8145,1.8057,1.8168,1.8524,1.9019,1.9577,2.0183,2.0772,2.1266,2.0993,2.0466,2.0101,1.9241,1.8599,1.8742,1.8742,1.8728,1.8728,1.8708,1.8694,1.8694,1.8694,1.864,1.8511,1.8375,1.8267,1.8247,1.8124,1.8057,1.8057,1.7935,1.7915,1.7915,1.7915,1.7902,1.7826,1.7826,1.7868,1.7792,1.7792,1.7724,1.7554,1.7554,1.7487,1.7419,1.7392,1.7378,2.0174,2.0255,2.0344,2.0442,2.0531,2.0433,1.9692,1.9714,1.969,1.9054,1.8776,1.8944,1.9842,1.9785,1.9903,2.0634,2.0792,2.0856,2.1001,2.1176,2.1319,2.137,2.1465,2.153,2.153,2.162,2.1822,2.2042,2.2066,2.2066,2.2066,2.1977,2.1904,2.1699,2.1778,2.1367,2.049,2.0868,2.0601,1.9683,1.9965,1.9806,1.9219,1.9219,1.9004,1.864,1.864,1.8599,1.8531,1.8531,1.8474,1.8531,1.862,1.8654,1.8654,1.8654,1.8654,1.864,1.8565,1.8552,1.8552,1.8552,1.8443,1.8321,1.8321,1.8267,1.8213,1.8213,1.8551,1.9055,1.9328,2.0061,2.081,2.0993,2.1072,2.0803,1.9847,1.9454,1.9227,1.8888,1.882,1.882,1.882,1.882,1.882,1.882,1.882,1.8786,1.8654,1.8586,1.8498,1.8335,1.8247,1.8213,1.8213,1.8145,1.8077,1.7989,1.7989,1.7948,1.7915,1.7915,1.7915,1.7915,1.7915,1.7826,1.7758,1.7758,1.7717,1.765,1.7575,1.7487,2.0244,2.032,2.0361,2.0547,2.0621,2.0423,1.9636,1.9595,1.9422,1.8534,1.8477,1.8744,1.9283,1.9398,1.9527,2.0041,2.0194,2.0429,2.0703,2.1041,2.1275,2.1451,2.1651,2.1701,2.1716,2.1781,2.1896,2.2172,2.1985,2.1872,2.2009,2.1935,2.168,2.1302,2.1302,2.1021,2.0421,2.0421,2.0081,1.9502,1.9502,1.9284,1.882,1.882,1.8694,1.8586,1.8586,1.8511,1.8423,1.8531,1.8586,1.8586,1.8766,1.882,1.882,1.882,1.882,1.882,1.882,1.882,1.882,1.882,1.8606,1.8409,1.8587,1.8566,1.8589,1.8709,1.9142,1.9609,1.9609,2.0391,2.1149,2.0968,2.1152,2.1025,1.9919,1.984,1.9761,1.898,1.8841,1.882,1.882,1.882,1.882,1.882,1.882,1.882,1.882,1.882,1.8674,1.8443,1.8389,1.8319,1.8319,1.8335,1.8267,1.8145,1.8145,1.8091,1.7968,1.7935,1.7914,1.7914,1.7936,1.7915,1.7915,1.7915,1.7915,1.7915,1.7758,1.7649,2.0204,2.032,2.0361,2.0547,2.0718,2.0653,1.9802,1.9849,1.9729,1.8713,1.864,1.8926,1.9319,1.9398,1.9527,2.0041,2.0194,2.0467,2.0899,2.1103,2.1314,2.1621,2.179,2.1847,2.174,2.1961,2.2147,2.2188,2.1761,2.1482,2.1398,2.0965,2.0702,2.0667,2.0667,2.0385,1.9806,1.9799,1.9502,1.8878,1.8878,1.882,1.882,1.882,1.8762,1.8742,1.8742,1.8786,1.8728,1.8742,1.8742,1.8742,1.8762,1.882,1.882,1.882,1.882,1.882,1.882,1.882,1.882,1.882,1.88,1.8888,1.9409,1.9476,1.9484,2.0055,2.0528,2.0842,2.0842,2.1309,2.1816,2.1799,2.139,2.0961,2.0569,1.9993,1.9455,1.908,1.8909,1.882,1.882,1.882,1.882,1.882,1.882,1.882,1.882,1.882,1.88,1.8786,1.8599,1.8454,1.8454,1.8389,1.8265,1.8301,1.8301,1.8287,1.8287,1.8145,1.8077,1.8077,1.7935,1.7915,1.7915,1.7915,1.7915,1.7915,1.7902,1.7846,2.0212,2.0401,2.0531,2.071,2.0889,2.0783,1.9976,1.9945,1.9822,1.8733,1.8654,1.8865,1.9027,1.9103,1.9196,1.9423,1.9627,2.0006,2.0689,2.0986,2.1302,2.1775,2.1977,2.2066,2.2033,2.2107,2.2074,2.1785,2.0925,2.0406,2.0347,2.0506,2.0428,2.0081,2.0081,1.9741,1.9161,1.9161,1.9045,1.882,1.882,1.882,1.882,1.882,1.882,1.882,1.882,1.882,1.882,1.882,1.882,1.882,1.882,1.882,1.882,1.882,1.882,1.882,1.882,1.882,1.882,1.882,1.9045,1.9342,1.9219,1.9127,1.9194,1.9828,2.0072,2.0293,2.0686,2.1139,2.1629,2.1969,2.1783,2.1396,2.0765,2.0384,1.9965,1.9244,1.9061,1.9006,1.8918,1.8905,1.8871,1.8841,1.882,1.882,1.882,1.882,1.882,1.882,1.8708,1.8674,1.8674,1.862,1.8552,1.8407,1.8443,1.8409,1.8321,1.8267,1.8233,1.8233,1.8077,1.8002,1.8002,1.7914,1.7915,1.7915,1.7915,1.7915,2.0176,2.0458,2.0637,2.0861,2.0919,2.0748,2.0094,1.9903,1.9661,1.8744,1.8728,1.883,1.883,1.8959,1.9061,1.9061,1.9342,1.9793,2.0394,2.0834,2.1223,2.1536,2.1877,2.1982,2.1763,2.1755,2.1523,2.1006,2.0204,1.9625,1.9458,1.9864,1.9864,1.9458,1.94,1.9219,1.882,1.882,1.882,1.882,1.882,1.882,1.882,1.882,1.882,1.882,1.882,1.882,1.882,1.882,1.882,1.882,1.882,1.882,1.882,1.882,1.882,1.882,1.882,1.8943,1.9045,1.9045,1.9465,1.9864,1.9465,1.9465,1.9741,2.0327,2.0508,2.0609,2.1064,2.1283,2.1542,2.2155,2.2009,2.1618,2.0923,2.0721,2.0372,1.9447,1.9237,1.9169,1.9081,1.9061,1.9006,1.8905,1.8909,1.883,1.883,1.8796,1.882,1.882,1.882,1.882,1.882,1.882,1.8766,1.8599,1.8599,1.8552,1.8464,1.8409,1.8332,1.8332,1.8233,1.8158,1.8158,1.8002,1.7935,1.7935,1.7936,1.7915,2.0103,2.0458,2.0637,2.0861,2.0682,2.0433,2.0155,1.9739,1.9282,1.8902,1.8884,1.8993,1.8993,1.9094,1.9203,1.9203,1.9678,2.0086,2.0086,2.0679,2.1049,2.0819,2.1424,2.1487,2.0682,2.0601,2.0363,1.9741,1.9683,1.9458,1.882,1.882,1.882,1.882,1.882,1.882,1.882,1.882,1.882,1.882,1.882,1.882,1.882,1.882,1.882,1.882,1.882,1.882,1.882,1.882,1.882,1.882,1.882,1.882,1.882,1.882,1.882,1.882,1.882,1.9161,1.9683,1.9683,2.0081,2.0601,2.0601,2.1021,2.1607,2.2283,2.2464,2.2464,2.2464,2.2003,2.1664,2.2349,2.2003,2.141,2.1152,2.0915,2.0547,1.9605,1.9305,1.9203,1.9203,1.9203,1.9203,1.9203,1.9081,1.8993,1.8993,1.8909,1.882,1.882,1.882,1.882,1.882,1.882,1.882,1.882,1.882,1.882,1.8762,1.8599,1.8474,1.8474,1.8389,1.8321,1.8321,1.8158,1.8091,1.8091,1.7935,1.7915,1.9364,1.9677,1.9953,2.0007,2.0109,2.014,1.9725,1.9484,1.9282,1.8902,1.8854,1.8871,1.8972,1.9115,1.9322,1.9737,2.0112,2.04,2.076,2.099,2.1093,2.1034,2.1098,2.1145,2.1202,2.0443,2.0081,2.032,1.956,1.9001,1.882,1.882,1.882,1.882,1.882,1.882,1.882,1.882,1.882,1.882,1.882,1.882,1.882,1.882,1.882,1.882,1.882,1.882,1.882,1.882,1.882,1.882,1.882,1.882,1.882,1.882,1.882,1.882,1.882,1.8943,1.9103,1.9103,1.9741,2.0601,2.0601,2.0724,2.1006,2.1664,2.2126,2.253,2.253,2.2003,2.1549,2.1764,2.1368,2.0822,2.0502,2.0354,2.0167,1.9703,1.9556,1.9488,1.9379,1.9359,1.9325,1.9217,1.9169,1.9128,1.9128,1.9006,1.8918,1.8918,1.883,1.882,1.882,1.882,1.882,1.882,1.882,1.882,1.882,1.8766,1.8694,1.8694,1.8552,1.8464,1.8464,1.8321,1.8247,1.8247,1.8091,1.8023,1.8938,1.9325,1.9577,1.9577,1.9692,1.9782,1.9441,1.9275,1.9115,1.8865,1.8909,1.8959,1.9061,1.9237,1.9499,1.9919,2.0376,2.0668,2.0577,2.09,2.099,2.0738,2.0363,2.0335,2.0805,1.9864,1.9446,1.99,1.9219,1.882,1.882,1.882,1.882,1.882,1.882,1.882,1.882,1.882,1.882,1.882,1.882,1.882,1.882,1.882,1.882,1.882,1.882,1.882,0.0,1.882,1.882,1.882,1.882,1.882,1.882,1.882,1.882,1.882,1.9045,1.9284,1.9502,1.9741,2.0501,2.1302,2.1302,2.1302,2.1426,2.1764,2.2184,2.253,2.253,2.183,2.1245,2.1426,2.0848,2.0241,2.0133,2.0086,2.0014,1.9778,1.9725,1.9684,1.9535,1.9522,1.9481,1.9393,1.9325,1.9291,1.9291,1.9169,1.9081,1.9081,1.8938,1.8909,1.8909,1.8854,1.882,1.882,1.882,1.882,1.882,1.882,1.882,1.882,1.8674,1.862,1.862,1.8477,1.8375,1.8321,1.8213,1.8179,0.0,1.9253,1.9497,1.9497,1.9416,1.9362,1.9362,1.9071,0.0,1.8841,1.8993,1.9203,1.9217,1.9447,1.9705,1.9765,2.0532,2.0751,1.9899,2.0472,2.076,2.025,1.9487,1.9224,1.9704,1.9037,1.8606,1.8865,1.882,1.882,1.882,1.882,1.882,1.882,1.882,1.882,1.882,1.882,1.882,1.882,1.882,1.882,1.882,1.882,1.882,1.882,1.882,1.882,1.882,1.882,1.882,1.882,1.882,1.882,1.882,1.882,1.882,1.8878,1.9458,2.0023,2.0544,2.1187,2.1764,2.2291,2.2349,2.2407,2.2464,2.2464,2.2407,2.2407,2.2407,2.1483,2.0667,2.1245,2.0501,1.9717,1.9949,2.0006,1.9933,1.9697,1.9705,1.9705,1.9725,1.9725,1.9725,1.9725,1.9535,1.9447,1.9447,1.9305,1.9217,1.9217,1.9094,1.9006,1.9006,1.8909,1.882,1.882,1.882,1.882,1.882,1.882,1.882,1.882,1.882,1.882,1.882,1.862,1.8477,1.8355,1.8335,1.8335,1.8115,0.0,1.8607,1.8607,1.8756,1.8946,0.0,1.8844,1.8854,1.8918,1.8993,1.9115,1.9345,1.9434,1.9669,2.0151,2.0706,2.0878,2.0303,1.9953,2.0014,2.0584,1.966,1.9341,2.0284,1.9365,1.8946,1.9444,1.9045,1.882,1.882,1.882,1.882,1.882,1.882,1.882,1.882,1.882,1.882,1.882,1.882,1.882,1.882,1.882,1.882,1.882,1.882,1.882,1.882,1.882,1.882,1.882,1.882,1.882,1.882,1.882,1.882,1.882,1.8943,1.9103,1.9342,1.9922,2.0204,2.0443,2.0905,2.1706,2.2407,2.1887,2.173,2.1607,2.1187,2.0486,1.9965,2.0081,1.956,1.9035,1.9235,1.9269,1.9299,1.9434,1.9481,1.9522,1.9644,1.9725,1.9725,1.9725,1.9684,1.961,1.961,1.9468,1.9379,1.9379,1.9237,1.9149,1.9149,1.8918,1.882,1.882,1.882,1.882,1.882,1.882,1.882,1.882,1.882,1.882,1.882,1.8728,1.8694,1.8654,1.8531,1.8477,1.7915,1.8091,1.8321,1.8321,1.8552,1.882,1.882,1.8875,1.8871,1.8884,1.9047,1.9217,1.9305,1.9379,1.9574,1.9998,2.0414,2.0656,2.0691,2.0225,1.9947,2.027,1.9694,1.9398,1.959,1.9057,1.8854,1.9284,1.9001,1.882,1.882,1.882,1.882,1.882,1.882,1.882,1.882,1.882,1.882,1.882,1.882,1.882,1.882,1.882,1.882,1.882,1.882,1.882,1.882,1.882,1.882,1.882,1.882,1.882,1.882,1.882,1.882,1.882,1.9103,1.94,1.9683,2.0023,2.0088,2.0146,2.0486,2.1064,2.1549,2.1187,2.1064,2.1021,2.0667,2.0146,1.9683,1.9683,1.9219,1.8854,1.8959,1.8993,1.9081,1.9379,1.9374,1.9481,1.9684,1.9725,1.9725,1.9725,1.9725,1.9725,1.9725,1.959,1.9535,1.9535,1.9393,1.9305,1.9305,1.9094,1.8938,1.8929,1.8854,1.882,1.882,1.882,1.882,1.882,1.882,1.882,1.882,1.882,1.882,1.882,1.8674,1.864,1.7901,1.8111,1.8321,1.8321,1.8552,1.882,1.882,1.8871,1.8918,1.8875,1.9115,1.9359,1.9217,1.9345,1.9488,1.9758,2.0024,2.0494,2.1218,2.0752,2.0226,2.0023,1.9741,1.9344,1.8744,1.8623,1.862,1.88,1.882,1.882,1.882,1.882,1.882,1.882,1.882,1.882,1.882,1.882,1.882,1.882,1.882,1.882,1.882,1.882,1.882,1.882,1.882,1.882,1.882,1.882,1.882,1.882,1.882,1.882,1.882,1.882,1.882,1.8878,1.9502,2.0081,2.0601,2.0601,2.0544,2.0486,2.0544,2.0486,2.0327,2.0428,2.0486,2.0428,2.0327,1.9965,1.956,1.956,1.9161,1.8854,1.8918,1.8959,1.904,1.9345,1.9393,1.9447,1.9684,1.9725,1.9725,1.9725,1.9347,1.911,1.911,1.8738,1.8488,1.8488,1.8682,1.8865,1.8865,1.9079,1.9183,1.9061,1.8943,1.8841,1.882,1.882,1.882,1.882,1.882,1.882,1.882,1.882,1.882,1.882,1.882,1.882,1.8023,1.8179,1.8321,1.8321,1.8552,1.882,1.882,1.8841,1.883,1.8938,1.9115,1.9237,1.9203,1.9434,1.9723,2.0028,2.0537,2.124,2.213,2.0942,2.0269,2.1102,1.9864,1.9103,1.9488,1.9069,1.8742,1.882,1.882,1.882,1.882,1.882,1.882,1.882,1.882,1.882,1.882,1.882,1.882,1.882,1.882,1.882,1.882,1.882,1.882,1.882,1.882,1.882,1.882,1.882,1.882,1.882,1.882,1.882,1.882,1.882,1.882,1.8878,1.9502,2.0081,2.0601,2.0601,2.0262,1.9907,2.0428,1.9864,1.9161,1.9683,1.9864,1.9741,1.9219,1.9001,1.8943,1.8943,1.8878,1.882,1.8854,1.8854,1.8884,1.9183,1.9237,1.9325,1.9671,1.9725,1.9725,1.9725,1.7751,1.6332,1.6332,1.4374,1.3033,1.3033,1.4979,1.6243,1.6243,1.8195,1.9379,1.9359,1.9115,1.8905,1.882,1.882,1.882,1.882,1.882,1.882,1.882,1.882,1.882,1.882,1.882,1.882,1.8057,1.8199,1.8378,1.8711,1.8768,1.8841,1.8871,1.8938,1.8993,1.8993,1.9237,1.9379,1.9128,1.9562,2.0049,2.0421,2.0805,2.1196,2.1545,2.1219,2.094,2.0922,2.0268,1.9705,1.9612,1.9106,1.882,1.882,1.882,1.882,1.882,1.882,1.882,1.882,1.882,1.882,1.882,1.882,1.882,1.882,1.882,1.882,1.882,1.882,1.882,1.882,1.882,1.882,1.882,1.882,1.9001,1.9284,1.9284,1.9502,1.9741,1.9741,1.9741,1.9806,2.0081,2.0385,2.0601,2.0601,2.0204,1.9741,2.0023,1.9502,1.8878,1.9161,1.9219,1.9161,1.8878,1.882,1.882,1.882,1.882,1.882,1.882,1.882,1.8909,1.9149,1.9203,1.8873,1.7708,1.7569,1.7081,1.5661,1.4374,1.3579,1.3579,1.2535,1.1804,1.1804,1.2906,1.3579,1.3579,1.5917,1.7967,1.9206,1.9183,1.904,1.8884,1.8884,1.885,1.882,1.882,1.882,1.882,1.882,1.882,1.882,1.882,1.882,1.8111,1.8247,1.8489,1.91,1.9139,1.9059,1.9231,1.9376,1.9466,1.9328,1.9548,1.9681,1.9289,1.9775,2.0421,2.0812,2.1194,2.1363,2.1226,2.1503,2.1402,2.0567,2.0426,2.0088,1.9397,1.9027,1.882,1.882,1.882,1.882,1.882,1.882,1.8841,1.8875,1.8875,1.883,1.8871,1.8871,1.883,1.882,1.882,1.882,1.882,1.882,1.882,1.882,1.882,1.8878,1.9001,1.9001,1.9342,1.9922,1.9922,2.0204,2.0601,2.0601,2.0667,2.0782,2.0667,2.0782,2.1006,2.0724,2.0262,1.9922,1.9922,1.94,1.882,1.8943,1.8885,1.882,1.882,1.882,1.882,1.882,1.882,1.882,1.882,1.882,1.8888,1.9094,1.9183,1.8449,1.6077,1.565,1.4806,1.2176,1.1257,1.0885,1.0885,1.033,0.9965,0.9965,1.0514,1.1134,1.1743,1.364,1.5828,1.8235,1.892,1.9183,1.904,1.904,1.8972,1.8875,1.8875,1.8854,1.882,1.882,1.882,1.882,1.882,1.882,1.8267,1.8409,1.8632,1.9205,1.9511,1.9727,1.996,2.0251,2.0428,2.0273,2.0153,2.0006,1.9843,2.035,2.0797,2.1012,2.1833,2.2389,2.2365,2.1903,2.1268,2.0644,2.0081,1.9502,1.8922,1.882,1.882,1.882,1.882,1.882,1.882,1.882,1.883,1.8972,1.8972,1.904,1.9169,1.9169,1.9027,1.882,1.882,1.882,1.882,1.882,1.882,1.882,1.882,1.9103,1.9625,1.9625,1.9965,2.0544,2.0544,2.0544,2.0601,2.0601,2.0963,2.1368,2.0782,2.1368,2.2184,2.1006,2.0544,2.0544,2.0544,1.9741,1.8943,1.9502,1.9219,1.882,1.882,1.882,1.882,1.882,1.882,1.882,1.882,1.882,1.8816,1.8972,1.9115,1.8416,1.5959,1.5596,1.4806,1.2176,0.972,0.819,0.819,0.5978,0.444,0.444,0.6714,0.917,1.1617,1.1988,1.3208,1.5761,1.8094,1.9345,1.9183,1.9183,1.9115,1.8972,1.8972,1.8905,1.882,1.882,1.882,1.882,1.882,1.882,1.8145,1.8287,1.8623,1.959,2.0071,2.0268,2.0212,2.0445,2.0586,2.0527,2.0422,2.0394,2.043,2.0672,2.0819,2.0878,2.1805,2.2225,2.1426,2.1426,2.1426,2.1187,2.032,1.9741,1.9922,1.9219,1.882,1.882,1.882,1.882,1.882,1.8909,1.8938,1.8993,1.9081,1.9149,1.9203,1.9203,1.9149,1.9027,1.8938,1.8909,1.882,1.882,1.882,1.882,1.9219,1.9502,1.9741,2.0081,2.0601,2.1187,2.1641,2.1764,2.1764,2.1764,2.1945,2.2011,2.1368,2.1483,2.1764,2.0905,2.0327,2.0023,2.0023,1.9465,1.882,1.9103,1.9001,1.882,1.882,1.882,1.882,1.882,1.882,1.882,1.882,1.7884,1.7095,1.7237,1.6064,1.427,1.1778,1.1073,0.9965,0.7271,0.604,0.5424,0.5424,0.4501,0.3888,0.3888,0.4809,0.6466,0.917,0.9348,1.0514,1.3094,1.5684,1.7798,1.9239,1.9345,1.9271,1.9128,1.9115,1.9047,1.8905,1.8905,1.8909,1.882,1.882,1.882,1.8057,1.8233,1.861,1.9625,2.0191,2.049,2.0546,2.0808,2.1064,2.0965,2.0907,2.0842,2.0892,2.1017,2.1038,2.0855,2.1584,2.1887,2.1006,2.1245,2.1483,2.1483,2.0601,2.0081,2.0262,1.956,1.9103,1.9103,1.9103,1.9103,1.9103,1.8967,1.8959,1.9061,1.9149,1.9257,1.9345,1.9345,1.9325,1.9271,1.9354,1.9283,1.8905,1.9125,1.9248,1.9307,1.9891,2.0219,2.04,2.0799,2.1283,2.1887,2.2349,2.253,2.253,2.253,2.2349,2.2068,2.1426,2.1245,2.1086,2.0262,1.9864,1.9683,1.9465,1.9103,1.882,1.882,1.882,1.882,1.882,1.882,1.8639,1.8059,1.7943,1.7762,1.7123,1.6005,1.5096,1.5183,1.3877,1.1941,0.9145,0.8424,0.7189,0.4316,0.3888,0.3888,0.3888,0.3888,0.3888,0.3888,0.3888,0.4625,0.6466,0.6653,0.7757,1.0391,1.2237,1.4765,1.8106,1.9025,1.9434,1.9271,1.9271,1.9203,1.9061,1.9061,1.8972,1.883,1.883,1.8816,1.8091,1.8301,1.8653,1.9283,1.9856,2.0432,2.0881,2.1613,2.2082,2.1781,2.1572,2.1402,2.1152,2.1503,2.1607,2.0921,2.1186,2.1483,2.1483,2.1483,2.1483,2.1483,2.0963,2.0385,1.9741,1.9683,1.9683,1.9683,1.9683,1.9683,1.9683,1.9103,1.8905,1.9183,1.9203,1.9359,1.9725,1.9725,1.959,1.9434,2.0095,2.0003,1.9203,1.9915,2.0205,2.0271,2.0864,2.1357,2.179,2.179,2.2112,2.253,2.253,2.2464,2.2464,2.2464,2.2068,2.1426,2.0782,2.0601,2.0363,1.9161,1.9219,1.9567,1.9001,1.882,1.882,1.882,1.882,1.882,1.882,1.8762,1.8298,1.6483,1.6005,1.5487,1.3552,1.309,1.309,1.309,1.3234,1.2322,0.9012,0.8659,0.7635,0.4374,0.3888,0.3888,0.3888,0.3888,0.3888,0.3888,0.3888,0.3888,0.3888,0.3888,0.5058,0.7696,0.788,1.0214,1.5478,1.8239,1.959,1.9367,1.9367,1.9359,1.9203,1.9203,1.9128,1.8993,1.8993,1.8905,1.8057,1.8488,1.9029,1.9709,2.0354,2.0938,2.1383,2.167,2.1846,2.174,2.1572,2.1464,2.1383,2.1627,2.1447,2.0328,2.0863,2.1106,2.0363,2.0504,2.0942,2.1468,2.0601,2.0204,2.0905,2.0204,1.9683,1.9683,1.9683,1.9502,1.9103,1.9076,1.9115,1.9203,1.9413,1.9576,1.9725,1.9725,1.9644,1.959,2.0256,2.0303,1.9922,2.0553,2.0805,2.0864,2.1523,2.1847,2.2036,2.244,2.271,2.2787,2.2318,2.2114,2.1953,2.1487,2.112,2.0782,2.0204,1.9965,1.9864,1.9045,1.8943,1.9045,1.882,1.882,1.882,1.882,1.882,1.882,1.882,1.782,1.7006,1.7762,1.6942,1.5825,1.5248,1.4088,1.2735,1.1395,0.9763,0.8174,0.6794,0.6249,0.5503,0.4132,0.3888,0.3888,0.3888,0.3888,0.3888,0.3888,0.3888,0.3888,0.3888,0.3888,0.4258,0.5058,0.6837,0.941,1.2845,1.5478,1.6881,1.6773,1.8667,1.9522,1.9359,1.9359,1.9291,1.9128,1.9128,1.9115,1.8226,1.8732,1.9366,1.9863,2.0413,2.0991,2.1476,2.1555,2.1595,2.1741,2.1743,2.1721,2.1864,2.2024,2.1732,2.0625,2.0727,2.0808,2.0389,2.0193,2.0487,2.1748,2.0782,2.0443,2.1426,2.0848,2.0327,2.0081,2.0081,1.982,1.9251,1.9189,1.9169,1.9291,1.9468,1.959,1.9725,1.9955,2.0083,2.0083,2.0986,2.1307,2.1182,2.1533,2.172,2.1697,2.2299,2.2572,2.2631,2.2855,2.3,2.2941,2.2587,2.2221,2.1833,2.1422,2.0899,2.0335,1.9992,1.965,1.9375,1.9032,1.8816,1.882,1.882,1.882,1.882,1.882,1.824,1.7704,1.7704,1.5709,1.4194,1.6064,1.5126,1.3552,1.2793,1.1691,1.052,0.9407,0.7974,0.6779,0.617,0.5786,0.5215,0.4355,0.4066,0.3888,0.3888,0.3888,0.3888,0.3888,0.3888,0.3888,0.3888,0.3888,0.3888,0.3888,0.5424,0.7022,0.8615,1.2176,1.4139,1.4139,1.677,1.8079,1.7937,1.8978,1.9447,1.9291,1.9291,1.9257,1.8551,1.9082,1.971,1.9826,2.0309,2.0866,2.1307,2.1408,2.1514,2.1815,2.188,2.2042,2.2407,2.2506,2.2227,2.1422,2.0805,2.0648,2.1162,2.0313,2.0308,2.2102,2.1368,2.0905,2.1426,2.1426,2.1187,2.0667,2.0544,2.032,1.9845,1.9273,1.9115,1.9393,1.9367,1.9501,1.9786,2.0333,2.063,2.069,2.2017,2.2622,2.2622,2.269,2.269,2.2727,2.311,2.3336,2.3276,2.3106,2.3041,2.3041,2.2982,2.2568,2.1952,2.1893,2.1108,2.0027,2.0027,1.9581,1.9006,1.9006,1.8918,1.8854,1.8841,1.8841,1.8776,1.8581,1.7303,1.5947,1.5767,1.3032,1.0755,1.2452,1.1516,0.9817,0.8122,0.7775,0.7716,0.7537,0.7478,0.7323,0.672,0.6613,0.617,0.499,0.4297,0.3888,0.3888,0.3888,0.3888,0.3888,0.3888,0.3888,0.3888,0.3888,0.3888,0.3888,0.3888,0.3888,0.3888,0.8738,1.1433,1.1433,1.4012,1.5351,1.5351,1.8007,1.9213,1.9093,1.9327,1.9379,1.8814,1.9445,2.0123,2.0422,2.0883,2.1276,2.1384,2.1545,2.1716,2.1839,2.188,2.2042,2.2407,2.24,2.2074,2.1398,2.1061,2.0788,2.0527,2.0763,2.0946,2.0983,2.1187,2.1368,2.1483,2.1064,2.0724,2.0601,2.0146,1.9639,1.9094,1.8983,1.9081,1.9237,1.9359,1.975,2.038,2.0562,2.0858,2.1403,2.2206,2.2622,2.2622,2.3105,2.3339,2.3339,2.3427,2.3463,2.3463,2.3422,2.3362,2.3362,2.2881,2.2194,2.1474,2.0936,2.0193,1.9388,1.9388,1.9308,1.9149,1.9149,1.9128,1.9081,1.8972,1.8938,1.8619,1.7037,1.6302,1.565,1.4146,1.2038,1.0399,1.0805,1.0579,1.0165,0.9758,0.97,0.9286,0.7775,0.7478,0.7323,0.672,0.6613,0.617,0.499,0.4297,0.3888,0.3888,0.3888,0.3888,0.3888,0.3888,0.3888,0.3888,0.3888,0.3888,0.3888,0.3888,0.3888,0.3888,0.7022,0.8738,0.8738,1.1318,1.2657,1.2657,1.529,1.657,1.6542,1.8626,1.959,1.9154,1.9805,2.0427,2.093,2.1237,2.1384,2.1384,2.1465,2.1595,2.1871,2.188,2.2042,2.2407,2.2253,2.1945,2.1613,2.0955,2.0627,2.1023,2.0649,2.0455,2.0983,2.1064,2.1064,2.1064,2.0782,2.0486,2.0204,1.9864,1.9479,1.8929,1.8952,1.9061,1.9203,1.9271,1.9486,1.9907,2.0529,2.1009,2.1362,2.2028,2.2359,2.2505,2.3194,2.3528,2.3528,2.3528,2.3528,2.3528,2.3528,2.3528,2.3468,2.2856,2.2145,2.1398,2.075,2.0023,1.9413,1.9413,1.9379,1.9305,1.9305,1.9257,1.9183,1.9115,1.9094,1.8877,1.7734,1.6157,1.4495,1.3402,1.1039,0.8941,0.8941,0.8941,0.8941,0.8941,0.8941,0.8644,0.7716,0.7478,0.7427,0.7105,0.6774,0.6283,0.5387,0.4702,0.424,0.3947,0.3888,0.3888,0.3888,0.3888,0.3888,0.3888,0.3888,0.3888,0.3888,0.3888,0.3888,0.3888,0.5243,0.5978,0.5978,0.8615,0.9904,0.9965,1.3824,1.5728,1.5789,1.8428,1.9725,1.9497,2.0166,2.0812,2.129,2.1384,2.1384,2.1384,2.1425,2.1515,2.1695,2.1816,2.1985,2.2359,2.2091,2.1759,2.1719,2.0719,2.0296,2.1406,2.0331,1.9862,2.1048,2.0848,2.0544,2.0428,2.0428,2.0262,1.9741,1.9625,1.9398,1.8997,1.8959,1.9006,1.9169,1.9169,1.9228,1.9388,2.0411,2.1027,2.1145,2.1828,2.2219,2.2343,2.3049,2.3407,2.3528,2.3487,2.3487,2.3487,2.3447,2.3403,2.3427,2.2945,2.2288,2.1532,2.0986,2.0333,1.9725,1.9725,1.9576,1.9468,1.9468,1.9379,1.9271,1.9257,1.9237,1.9098,1.8287,1.5824,1.3251,1.238,0.9838,0.7492,0.7478,0.7478,0.7478,0.7478,0.7478,0.7478,0.7478,0.7478,0.7478,0.7478,0.6992,0.6391,0.5781,0.5159,0.4588,0.4008,0.3888,0.3888,0.3888,0.3888,0.3888,0.3888,0.3888,0.3888,0.3888,0.3888,0.3888,0.3888,0.3888,0.3888,0.3888,0.6101,0.7209,0.7209,1.1988,1.4374,1.4435,1.7569,1.8988,1.9637,2.0676,2.154,2.1425,2.1384,2.1384,2.1384,2.1636,2.1695,2.1229,2.1526,2.1945,2.2188,2.1613,2.1093,2.0952,2.0469,2.0158,2.0335,2.0355,2.0326,1.9965,2.0327,2.0363,1.9864,1.9806,1.9806,1.9683,1.9219,1.8878,1.8854,1.8854,1.8871,1.9006,1.9027,1.9362,2.0086,2.034,2.0786,2.1369,2.2188,2.2567,2.2583,2.2667,2.2984,2.3468,2.3358,2.336,2.3336,2.313,2.3146,2.3301,2.3233,2.2549,2.1593,2.1471,2.069,1.9725,1.9725,1.9705,1.9684,1.9684,1.9671,1.9576,1.9447,1.9393,1.864,1.5206,1.3857,1.2695,0.9229,0.7972,0.76,0.7492,0.7478,0.7478,0.7478,0.7478,0.7478,0.7478,0.7478,0.7478,0.7478,0.6992,0.6391,0.5781,0.5159,0.4588,0.4008,0.3888,0.3888,0.3888,0.3888,0.3888,0.3888,0.3888,0.3888,0.3888,0.3888,0.3888,0.3888,0.3888,0.3888,0.3888,0.4258,0.444,0.444,0.7447,0.8925,0.9048,1.3951,1.621,1.971,2.077,2.149,2.1408,2.1384,2.1384,2.1384,2.1246,2.104,2.0912,2.0893,2.0961,2.1139,2.1058,2.0736,2.0388,1.9826,1.9612,2.0038,2.0033,1.9929,1.9726,1.9907,1.9864,1.9226,1.9219,1.9219,1.9219,1.8943,1.882,1.882,1.882,1.8854,1.8871,1.8871,1.9066,1.9421,1.9836,2.0165,2.0467,2.1309,2.1556,2.1265,2.1812,2.2372,2.2984,2.2905,2.2918,2.2926,2.3154,2.311,2.2858,2.2505,2.1828,2.0986,2.069,2.0204,1.9725,1.9725,1.9725,1.9725,1.9725,1.9725,1.9705,1.9576,1.8762,1.752,1.5685,1.3604,1.1484,0.9667,0.8454,0.7665,0.76,0.7527,0.7521,0.7486,0.7478,0.7478,0.7478,0.7478,0.7478,0.7478,0.7264,0.6774,0.5835,0.5504,0.499,0.4004,0.3888,0.3888,0.3888,0.3888,0.3888,0.3888,0.3888,0.3888,0.3888,0.3888,0.3888,0.3888,0.3888,0.4625,0.6101,0.4686,0.3888,0.3888,0.6591,0.788,0.8003,1.1743,1.3518,1.9667,2.051,2.1096,2.1096,2.1183,2.1237,2.1277,2.093,2.0575,2.0642,2.0354,2.01,1.9897,2.0158,2.0195,1.9652,1.9117,1.8979,1.9538,1.9405,1.9282,1.9423,1.9465,1.9284,1.882,1.882,1.882,1.882,1.882,1.882,1.882,1.882,1.882,1.882,1.882,1.882,1.882,1.9261,1.9535,1.9571,2.0459,2.0656,2.0283,2.1,2.1616,2.2077,2.2205,2.225,2.231,2.2693,2.2633,2.225,2.1707,2.1139,2.0562,2.0083,1.9847,1.9725,1.9725,1.9725,1.9725,1.9725,1.9725,1.9725,1.9725,1.8677,1.724,1.6109,1.3728,1.1216,1.0101,0.8758,0.772,0.7665,0.7649,0.763,0.7492,0.7478,0.7478,0.7478,0.7478,0.7478,0.7478,0.7478,0.7159,0.6114,0.5781,0.5332,0.424,0.4008,0.3888,0.3888,0.3888,0.3888,0.3888,0.3888,0.3888,0.3888,0.3888,0.3888,0.3888,0.4563,0.5855,0.788,0.6591,0.5609,0.4934,0.7573,0.8553,0.8003,1.1257,1.2784,1.9441,1.9898,2.0333,2.0333,2.0545,2.0793,2.0957,2.0879,2.0642,2.0234,2.0293,1.9976,1.8632,1.8888,1.917,1.8814,1.8441,1.8201,1.8364,1.85,1.8643,1.8807,1.882,1.882,1.882,1.882,1.882,1.882,1.882,1.882,1.882,1.882,1.882,1.882,1.882,1.882,1.882,1.8963,1.9106,1.9242,1.9901,2.0283,2.0366,2.0448,2.054,2.0737,2.1188,2.1362,2.1347,2.125,2.1287,2.1362,2.1302,2.1044,2.063,2.0562,2.0204,1.9725,1.9725,1.9725,1.9725,1.9725,1.9725,1.9725,1.9725,1.9657,1.8738,1.4995,1.3763,1.2771,0.8905,0.7857,0.7782,0.772,0.7706,0.7679,0.7508,0.7478,0.7478,0.7478,0.7478,0.7478,0.7478,0.7478,0.7264,0.6668,0.6061,0.5443,0.4816,0.424,0.3888,0.3888,0.3888,0.3888,0.3888,0.3888,0.3888,0.3888,0.3888,0.3888,0.3888,0.635,0.7757,0.788,1.0214,1.0153,0.7696,1.0337,1.0337,0.8003,1.3094,1.5478,1.9405,1.9783,2.0157,2.0157,2.0312,2.0493,2.0775,2.0312,1.9921,1.9983,1.9553,1.897,1.8276,1.8754,1.8952,1.8295,1.8156,1.8145,1.8301,1.8443,1.8586,1.88,1.882,1.882,1.882,1.882,1.882,1.882,1.882,1.882,1.882,1.882,1.882,1.882,1.882,1.882,1.882,1.8875,1.8929,1.8918,1.9248,1.9442,1.9497,1.9608,1.9677,1.9732,1.9953,2.0377,2.0892,2.127,2.121,2.0846,2.0846,2.0512,2.0022,2.0022,1.9908,1.9725,1.9725,1.9725,1.9725,1.9725,1.9725,1.9725,1.9725,1.794,1.5616,1.421,1.2001,0.9665,0.8238,0.7858,0.7845,0.7782,0.7741,0.7698,0.7657,0.7535,0.7478,0.7478,0.7478,0.7478,0.7478,0.7478,0.7159,0.617,0.5835,0.5326,0.4355,0.4004,0.3888,0.3888,0.3888,0.3888,0.3888,0.3888,0.3888,0.3888,0.3888,0.3888,0.3888,0.6466,0.8676,1.0391,1.2968,1.3033,1.0391,1.1372,1.1306,1.0452,1.2351,1.3217,1.9195,1.9405,1.9662,1.972,1.9856,2.0075,2.0489,1.9906,1.9411,1.9811,1.9085,1.8321,1.8124,1.8509,1.8608,1.8011,1.7948,1.8077,1.8213,1.8375,1.8511,1.8674,1.8786,1.882,1.882,1.882,1.882,1.882,1.882,1.882,1.882,1.882,1.882,1.882,1.882,1.882,1.882,1.882,1.882,1.882,1.8871,1.8938,1.8993,1.9094,1.9149,1.9203,1.9359,1.9669,2.0242,2.0737,2.069,2.0272,2.0272,1.9981,1.959,1.9705,1.9684,1.959,1.9705,1.9725,1.9725,1.9725,1.9725,1.9725,1.9725,1.7879,1.5494,1.4149,1.1939,0.9552,0.8266,0.7894,0.7888,0.7845,0.779,0.7741,0.7741,0.7649,0.7508,0.7508,0.7492,0.7478,0.7478,0.7478,0.721,0.645,0.5945,0.5383,0.4585,0.4182,0.3888,0.3888,0.3888,0.3888,0.3888,0.3888,0.3888,0.3888,0.3888,0.3888,0.3888,0.7332,1.0027,1.1743,1.5229,1.616,1.4435,1.4435,1.4012,1.3156,1.4012,1.4435,0.0,0.0,0.0,1.8952,1.9182,1.9519,2.0134,1.9609,1.9174,1.9767,1.8936,1.8111,1.8091,1.8091,1.8036,1.7936,1.7915,1.797,1.8077,1.8233,1.8375,1.8454,1.8674,1.882,1.882,1.882,1.882,1.882,1.882,1.882,1.882,1.882,1.882,1.882,1.882,1.882,1.882,1.882,1.882,1.882,1.882,1.8888,1.8993,1.8993,1.9061,1.9203,1.9345,1.9413,1.9434,1.959,1.9725,1.9725,1.9725,1.9569,1.9447,1.961,1.9569,1.9468,1.961,1.9725,1.9725,1.9725,1.9725,1.9664,1.9725,1.9657,1.8799,1.4883,1.3777,1.2797,0.894,0.7894,0.7894,0.7894,0.7853,0.7804,0.7804,0.7714,0.7575,0.763,0.7521,0.7478,0.7478,0.7478,0.7478,0.7478,0.6446,0.5665,0.5665,0.4646,0.3888,0.3888,0.3888,0.3888,0.3888,0.3888,0.3888,0.3888,0.3888,0.3949,0.4011,0.9048,1.1866,1.1927,1.702,1.9725,1.9725,1.9725,1.836,1.585,1.8488,1.9725,1.882,0.0,0.0,0.0,0.0,0.0,1.9577,1.967,1.9576,1.9454,1.9241,1.8909,1.8243,1.8091,1.8036,1.7936,1.7915,1.797,1.8077,1.8233,1.8375,1.8454,1.8674,1.882,1.882,1.882,1.882,1.882,1.882,1.882,1.882,1.882,1.882,1.882,1.882,1.882,1.882,1.882,1.882,1.882,1.882,1.8841,1.883,1.883,1.8909,1.8943,1.904,1.9169,1.9291,1.9556,1.9725,1.9725,1.9725,1.9644,1.961,1.9705,1.9684,1.961,1.9705,1.9725,1.9725,1.9725,1.959,1.9522,1.9684,1.8606,1.6897,1.4486,1.2732,1.1081,0.8568,0.7894,0.7894,0.7894,0.788,0.7867,0.7867,0.7809,0.7741,0.7698,0.7643,0.76,0.76,0.7508,0.7374,0.694,0.617,0.5555,0.5102,0.4355,0.3888,0.3888,0.3888,0.3888,0.3888,0.3888,0.3888,0.3888,0.3888,0.4748,0.6714,1.0027,1.2662,1.4557,1.794,1.9725,1.9725,1.9725,1.9347,1.861,1.9347,1.9725,1.882,1.882,1.882,1.882,0.0,0.0,1.9374,1.9367,1.9216,1.9213,1.9114,1.8823,1.8187,1.8199,1.8233,1.8077,1.8057,1.8036,1.8002,1.8124,1.8287,1.8423,1.8565,1.8694,1.8762,1.882,1.882,1.882,1.882,1.882,1.882,1.882,1.882,1.882,1.882,1.882,1.882,1.882,1.882,1.882,1.882,1.882,1.882,1.882,1.882,1.882,1.8918,1.904,1.9128,1.9379,1.9596,1.9725,1.9725,1.9624,1.9569,1.9569,1.9569,1.9569,1.9569,1.961,1.9725,1.9725,1.9556,1.9468,1.9671,1.8762,1.7163,1.4547,1.1751,0.9303,0.8205,0.7894,0.7894,0.7894,0.7894,0.7894,0.7894,0.7867,0.7826,0.7763,0.7706,0.7665,0.7665,0.7616,0.7408,0.7084,0.6457,0.5951,0.5615,0.5047,0.4527,0.4297,0.4302,0.4182,0.3949,0.3888,0.4383,0.5485,0.5547,0.6776,0.941,1.2049,1.4134,1.5667,1.8299,1.9725,1.9725,1.9725,1.9725,1.9725,1.9725,1.9725,1.882,1.882,1.882,1.882,1.882,0.0,1.9386,1.8967,1.8589,1.9022,1.8732,1.8357,1.8089,1.8278,1.84,1.8221,1.8244,1.8199,1.7935,1.8023,1.8158,1.8287,1.8386,1.8586,1.8728,1.88,1.882,1.882,1.882,1.882,1.882,1.882,1.882,1.882,1.882,1.882,1.882,1.882,1.882,1.882,1.882,1.882,1.882,1.882,1.882,1.882,1.8918,1.9006,1.9027,1.9169,1.9379,1.9671,1.9684,1.9556,1.9374,1.9447,1.9447,1.9447,1.9434,1.9522,1.9644,1.9644,1.9535,1.9434,1.961,1.9556,1.8617,1.4842,1.0958,0.7894,0.7894,0.7894,0.7894,0.7894,0.7894,0.7894,0.7894,0.7894,0.788,0.7826,0.7763,0.772,0.772,0.7679,0.7635,0.7635,0.7037,0.662,0.662,0.6061,0.5443,0.4876,0.4821,0.4531,0.3947,0.3888,0.5058,0.7757,0.788,0.9232,1.2115,1.4496,1.585,1.616,1.8488,1.9725,1.9725,1.9725,1.9725,1.9725,1.9725,1.9725,1.8854,1.882,1.882,1.882,1.882,0.0,1.8943,1.9228,1.9274,1.8754,1.8948,1.89,1.7778,1.7988,1.8178,1.7641,1.7868,1.8111,1.8057,1.8179,1.8233,1.8145,1.8375,1.8494,1.8565,1.8694,1.882,1.882,1.882,1.882,1.882,1.882,1.882,1.882,1.882,1.882,1.882,1.882,1.882,1.882,1.882,1.882,1.882,1.882,1.882,1.882,1.8918,1.9061,1.9169,1.9325,1.9345,1.9305,1.9434,1.9447,1.9447,1.9569,1.9671,1.959,1.9468,1.9447,1.9481,1.9481,1.9379,1.9291,1.9637,1.9556,1.8617,1.4842,1.0958,0.7894,0.7894,0.7894,0.7894,0.7894,0.7894,0.7894,0.7894,0.7894,0.7888,0.788,0.7826,0.7782,0.7782,0.7733,0.7698,0.7698,0.7095,0.6674,0.6674,0.6082,0.5443,0.4876,0.4821,0.4531,0.3947,0.3888,0.5058,0.7757,0.788,1.0027,1.4745,1.5417,1.6709,1.8867,1.9408,1.9725,1.9725,1.9725,1.9725,1.9725,1.9725,1.9725,1.8854,1.882,1.882,1.882,1.882,0.0,0.0,1.898,1.8993,1.8698,1.899,1.9004,1.8214,1.8436,1.8626,1.8256,1.8286,1.8301,1.8301,1.8179,1.8091,1.8091,1.8213,1.8375,1.8511,1.8599,1.8674,1.8762,1.882,1.882,1.882,1.882,1.882,1.882,1.882,1.882,1.882,1.882,1.882,1.882,1.882,1.882,1.882,1.885,1.8929,1.8884,1.9027,1.9128,1.9203,1.9291,1.9271,1.9217,1.9379,1.9374,1.9374,1.9359,1.9379,1.9413,1.9257,1.9257,1.9139,1.8235,1.7782,1.7594,1.6898,1.595,1.474,1.2845,1.016,0.7894,0.7894,0.7894,0.7894,0.7894,0.7894,0.7894,0.7894,0.7894,0.7894,0.7894,0.7867,0.7845,0.7845,0.7796,0.7755,0.7755,0.7432,0.7175,0.7175,0.6847,0.6432,0.5816,0.5459,0.499,0.4417,0.529,0.7022,0.9658,1.1069,1.3579,1.7508,1.769,1.8299,1.9657,1.9725,1.9725,1.9725,1.9725,1.9725,1.9725,1.9725,1.9725,1.8512,1.842,1.842,1.842,1.842,1.8499,0.0,0.0,0.0,1.8742,1.8871,1.8905,1.866,1.8893,1.9015,1.8672,1.8548,1.8417,1.8194,1.7967,1.7891,1.8124,1.8111,1.8199,1.8464,1.8454,1.8599,1.88,1.882,1.882,1.882,1.882,1.882,1.882,1.882,1.882,1.882,1.882,1.882,1.882,1.882,1.882,1.882,1.8918,1.8993,1.9006,1.9169,1.9257,1.9257,1.9271,1.9291,1.9305,1.9393,1.9374,1.9353,1.9203,1.9183,1.9271,1.9128,1.9149,1.8946,1.7038,1.6138,1.5515,1.4144,1.2365,1.077,1.077,0.9426,0.7894,0.7894,0.7894,0.7894,0.7894,0.7894,0.7894,0.7894,0.7894,0.7894,0.7894,0.7894,0.7894,0.7894,0.7853,0.7826,0.7826,0.7769,0.7733,0.7733,0.7679,0.7371,0.6765,0.6596,0.6249,0.5619,0.7496,0.9798,1.236,1.4557,1.6898,1.9597,1.9725,1.9725,1.9725,1.9725,1.9725,1.9725,1.9725,1.9725,1.9725,1.9725,1.9725,1.7326,1.7135,1.7135,1.7135,1.7135,1.7258,1.7839,0.0,1.8046,1.8639,0.0,1.866,1.8001,0.0,0.0,1.7335,1.7883,1.8137,1.7033,1.7238,1.7645,1.8224,1.8179,1.8158,1.8321,1.8407,1.8599,1.88,1.882,1.882,1.882,1.882,1.882,1.882,1.882,1.882,1.882,1.882,1.882,1.882,1.882,1.882,1.882,1.8918,1.8993,1.9006,1.9291,1.9353,1.9413,1.9556,1.9671,1.965,1.9481,1.9374,1.9447,1.9556,1.965,1.959,1.9434,1.9333,1.904,1.7115,1.5416,1.4039,1.3875,1.236,1.077,1.077,0.9426,0.7894,0.7894,0.7894,0.7894,0.7894,0.7894,0.7894,0.7894,0.7894,0.7894,0.7894,0.7894,0.7894,0.7894,0.7888,0.7888,0.7888,0.7831,0.7796,0.7796,0.7741,0.7484,0.6881,0.8445,0.9216,0.8483,1.0329,1.2573,1.5117,1.5539,1.6898,1.9597,1.9725,1.9725,1.9725,1.9725,1.9725,1.9725,1.9725,1.9725,1.9725,1.9725,1.9725,1.7009,1.7249,1.7462,1.7037,1.7249,1.752,1.7316,1.7542,1.7884,1.8181,0.0,0.0,0.0,0.0,0.0,0.0,1.8051,1.7818,1.7383,1.7085,1.6953,1.7243,1.7199,1.7401,1.7978,1.847,1.883,1.8884,1.8816,1.882,1.882,1.882,1.882,1.882,1.882,1.882,1.882,1.882,1.882,1.882,1.882,1.882,1.882,1.9006,1.9115,1.9128,1.9434,1.9569,1.9569,1.9684,1.9725,1.9664,1.959,1.9501,1.9374,1.94,1.94,1.9379,1.9325,1.9291,1.8754,1.575,1.2759,1.0344,1.0344,0.9764,0.9119,0.9119,0.8507,0.7894,0.7894,0.7894,0.7894,0.7894,0.7894,0.7894,0.7894,0.7894,0.7894,0.7894,0.7894,0.7894,0.7894,0.7894,0.7894,0.7894,0.7875,0.7858,0.7858,0.8775,0.8926,0.7497,0.9527,1.0599,0.9604,1.2137,1.4338,1.5764,1.7239,1.8549,1.9657,1.9725,1.9725,1.9725,1.9725,1.9725,1.9725,1.9725,1.9725,1.9725,1.9725,1.9725,1.6991,1.732,1.761,1.7037,1.732,1.7656,1.7212,1.7478,1.782,1.8059,1.8545,0.0,0.0,0.0,1.8918,1.8697,0.0,1.7826,1.7581,1.7019,1.6615,1.6615,1.6584,1.6805,1.746,1.8033,1.8423,1.8639,1.859,1.8581,1.8762,1.882,1.882,1.882,1.882,1.882,1.882,1.882,1.882,1.882,1.882,1.882,1.8841,1.9061,1.9203,1.9217,1.9522,1.9725,1.9725,1.9725,1.9725,1.9725,1.9725,1.959,1.9481,1.9359,1.9325,1.9325,1.9325,1.8607,1.7164,1.3849,1.0515,0.7831,0.7831,0.7858,0.7894,0.7894,0.7894,0.7894,0.7894,0.7894,0.7894,0.7894,0.7894,0.7894,0.7894,0.7894,0.7894,0.7894,0.7894,0.7894,0.7894,0.7894,0.7894,0.7894,0.8384,0.8691,0.8691,1.0362,1.0932,0.9351,1.1369,1.2513,1.1722,1.4399,1.6395,1.7076,1.8806,1.9773,1.9773,1.9739,1.9725,1.9725,1.9725,1.9725,1.9725,1.9725,1.9725,1.9725,1.9725,1.9725,1.7108,1.6902,1.696,1.6902,1.6902,1.7077,1.7646,1.7762,1.8001,1.8639,1.8762,1.882,1.882,1.882,1.8601,0.0,1.8342,0.0,0.0,1.6902,1.6884,1.6884,1.6774,1.6694,1.6752,1.677,1.7056,1.7762,1.782,1.8123,1.8762,1.882,1.882,1.882,1.882,1.882,1.882,1.882,1.882,1.882,1.882,1.882,1.8841,1.9061,1.9203,1.9217,1.9522,1.9725,1.9725,1.9725,1.9725,1.9725,1.9725,1.9725,1.9664,1.9705,1.9705,1.9705,1.9705,1.7191,1.364,1.1555,0.9542,0.7894,0.7894,0.7894,0.7894,0.7894,0.7894,0.7894,0.7894,0.7894,0.7894,0.7894,0.7894,0.7894,0.7894,0.7894,0.7894,0.7894,0.7894,0.7894,0.7894,0.7894,0.7894,0.7894,0.9487,1.0709,1.0709,1.2487,1.3405,1.2732,1.4601,1.5834,1.5784,1.7754,1.927,1.9912,1.9942,1.9875,1.9875,1.9793,1.9725,1.9725,1.9725,1.9725,1.9725,1.9725,1.9725,1.9725,1.9725,1.9725,1.6942,1.733,1.7587,1.6589,1.7083,1.7587,1.681,1.7239,1.8001,1.8639,1.882,1.8943,1.9342,1.9045,0.0,0.0,0.0,1.782,0.0,1.6198,1.5621,1.5621,1.6063,1.6379,1.6379,1.7225,1.7927,1.8239,1.8609,1.8925,1.9061,1.9061,1.8959,1.882,1.882,1.882,1.882,1.882,1.882,1.882,1.882,1.882,1.8841,1.9061,1.9203,1.9217,1.9522,1.9725,1.9725,1.9725,1.9725,1.9725,1.9725,1.9725,1.9725,1.9725,1.9725,1.9725,1.9725,1.7081,1.3716,1.2981,1.0593,0.7894,0.7894,0.7894,0.7894,0.7894,0.7894,0.7894,0.7894,0.7894,0.7894,0.7894,0.7894,0.7894,0.7894,0.7894,0.7894,0.7894,0.7894,0.7894,0.7894,0.7894,0.7894,0.7894,0.8445,0.8879,0.8879,1.1751,1.3042,1.1081,1.4612,1.6859,1.6213,1.8467,2.0004,2.0198,2.0098,2.0031,2.0031,1.9875,1.98,1.98,1.9332,1.9286,1.9725,1.9225,1.9286,1.9725,1.9725,1.9725,1.7568,1.8033,1.8235,1.723,1.7734,1.8235,1.723,1.7762,1.8581,1.9045,1.9103,1.9219,0.0,0.0,0.0,0.0,0.0,1.7484,0.0,1.5842,1.526,1.5037,1.5454,1.5868,1.6155,1.6786,1.7398,1.7939,1.8421,1.8707,1.8853,1.9077,1.9115,1.8918,1.8875,1.882,1.882,1.882,1.882,1.882,1.882,1.882,1.8841,1.9061,1.9203,1.9217,1.9522,1.9725,1.9725,1.9725,1.9725,1.9725,1.9725,1.9725,1.9725,1.9725,1.9725,1.9475,1.8068,1.5916,1.3589,1.2184,0.9982,0.7894,0.7894,0.7894,0.7902,0.7951,0.7929,0.7902,0.7951,0.7929,0.7894,0.7894,0.7894,0.7894,0.7894,0.7894,0.7894,0.7894,0.7894,0.7894,0.7894,0.7894,0.7894,0.7894,0.8507,0.894,0.894,1.1751,1.3231,1.1825,1.4633,1.6702,1.6892,1.8586,1.9835,2.0334,1.9822,1.9549,1.9805,1.9473,1.9267,1.9365,1.8748,1.8684,1.9163,1.8633,1.8549,1.8988,1.8988,1.8988]},{"header":{"parameterUnit":"m.s-1","parameterCategory":1,"la1":30.6,"la2":29.2853,"lo1":-89.7004,"lo2":-87.6739,"dy":0.0162,"dx":0.0183,"nx":112,"ny":82,"refTime":"2023-04-07T18:00:00:Z","depth":0,"parameterNumber":3,"parameterNumberName":"V-component_of_WINDS"},"data":[0.0,0.0,0.0,0.0,0.0,0.0,0.0,0.0,0.0,0.0,0.0,0.0,0.0,0.0,0.0,0.0,0.0,0.0,0.0,0.0,0.0,0.0,0.0,0.0,0.0,0.0,0.0,0.0,0.0,0.0,0.0,0.0,0.0,0.0,0.0,0.0,0.0,0.0,0.0,0.0,0.0,0.0,0.0,0.0,0.0,0.0,0.0,0.0,0.0,0.0,0.0,0.0,0.0,0.0,0.0,0.0,0.0,0.0,0.0,0.0,0.0,0.0,0.0,0.0,0.0,0.0,0.0,0.0,0.0,0.0,0.0,0.0,0.0,0.0,0.0,0.0,0.0,0.0,0.0,0.0,0.0,0.0,0.0,0.0,0.0,0.0,0.0,0.0,0.0,0.0,6.5069,6.5185,6.4527,6.4101,6.4101,6.4101,6.4101,6.4101,0.0,0.0,0.0,0.0,0.0,0.0,0.0,0.0,0.0,0.0,0.0,0.0,0.0,0.0,0.0,0.0,0.0,0.0,0.0,0.0,0.0,0.0,0.0,0.0,0.0,0.0,0.0,0.0,0.0,0.0,0.0,0.0,0.0,0.0,0.0,0.0,0.0,0.0,0.0,0.0,0.0,0.0,0.0,0.0,0.0,0.0,0.0,0.0,0.0,0.0,0.0,0.0,0.0,0.0,0.0,0.0,0.0,0.0,0.0,0.0,0.0,0.0,0.0,0.0,0.0,0.0,0.0,0.0,0.0,0.0,0.0,0.0,0.0,0.0,0.0,0.0,0.0,0.0,0.0,0.0,0.0,0.0,0.0,0.0,0.0,0.0,0.0,0.0,0.0,0.0,0.0,0.0,0.0,0.0,0.0,0.0,0.0,0.0,0.0,0.0,0.0,0.0,0.0,0.0,6.5262,6.5953,6.5915,6.5837,6.5837,6.5837,6.5837,6.5837,0.0,0.0,0.0,0.0,0.0,0.0,0.0,0.0,0.0,0.0,0.0,0.0,0.0,0.0,0.0,0.0,0.0,0.0,0.0,0.0,0.0,0.0,0.0,0.0,0.0,0.0,0.0,0.0,0.0,0.0,0.0,0.0,0.0,0.0,0.0,0.0,0.0,0.0,0.0,0.0,0.0,0.0,0.0,0.0,0.0,0.0,0.0,0.0,0.0,0.0,0.0,0.0,0.0,0.0,0.0,0.0,0.0,0.0,0.0,0.0,0.0,0.0,0.0,0.0,0.0,0.0,0.0,0.0,0.0,0.0,0.0,0.0,0.0,0.0,0.0,0.0,0.0,0.0,0.0,0.0,0.0,0.0,0.0,0.0,0.0,0.0,0.0,0.0,0.0,0.0,0.0,0.0,0.0,0.0,0.0,0.0,0.0,0.0,0.0,0.0,0.0,0.0,0.0,6.7075,6.7191,6.7578,6.7617,6.7617,6.7617,6.7617,6.7423,6.692,6.6185,0.0,0.0,0.0,0.0,0.0,0.0,0.0,0.0,0.0,0.0,0.0,0.0,0.0,0.0,0.0,0.0,0.0,0.0,0.0,0.0,0.0,0.0,0.0,0.0,0.0,0.0,0.0,0.0,0.0,0.0,0.0,0.0,0.0,0.0,0.0,0.0,0.0,0.0,0.0,0.0,0.0,0.0,0.0,0.0,0.0,0.0,0.0,0.0,0.0,0.0,0.0,0.0,0.0,0.0,0.0,0.0,0.0,0.0,0.0,0.0,0.0,0.0,0.0,0.0,0.0,0.0,0.0,0.0,0.0,0.0,0.0,0.0,0.0,0.0,0.0,0.0,0.0,0.0,0.0,0.0,0.0,0.0,0.0,0.0,0.0,0.0,0.0,0.0,0.0,0.0,0.0,0.0,0.0,0.0,0.0,0.0,0.0,0.0,0.0,0.0,0.0,0.0,6.928,6.9396,6.9396,6.9396,6.9396,6.9396,6.9396,6.9125,6.8429,6.839,0.0,0.0,0.0,0.0,0.0,0.0,0.0,0.0,0.0,0.0,0.0,0.0,0.0,0.0,0.0,0.0,0.0,0.0,0.0,0.0,0.0,0.0,0.0,0.0,0.0,0.0,0.0,0.0,0.0,0.0,0.0,0.0,0.0,0.0,0.0,0.0,0.0,0.0,0.0,0.0,0.0,0.0,0.0,0.0,0.0,0.0,0.0,0.0,0.0,0.0,0.0,0.0,0.0,0.0,0.0,0.0,0.0,0.0,0.0,0.0,0.0,0.0,0.0,0.0,0.0,0.0,0.0,0.0,0.0,0.0,0.0,0.0,0.0,0.0,0.0,0.0,0.0,0.0,0.0,0.0,0.0,0.0,0.0,0.0,0.0,0.0,0.0,0.0,0.0,0.0,0.0,0.0,0.0,0.0,0.0,0.0,0.0,0.0,0.0,0.0,0.0,0.0,7.0639,7.1137,7.1137,7.1137,7.1137,7.1137,7.1137,7.1098,7.1021,7.1021,0.0,0.0,0.0,0.0,0.0,0.0,0.0,0.0,0.0,0.0,0.0,0.0,0.0,0.0,0.0,0.0,0.0,0.0,0.0,0.0,0.0,0.0,0.0,0.0,0.0,0.0,0.0,0.0,0.0,0.0,0.0,0.0,0.0,0.0,0.0,0.0,0.0,0.0,0.0,0.0,0.0,0.0,0.0,0.0,0.0,0.0,0.0,0.0,0.0,0.0,0.0,0.0,0.0,0.0,0.0,0.0,0.0,0.0,0.0,0.0,0.0,0.0,0.0,0.0,0.0,0.0,0.0,0.0,0.0,0.0,0.0,0.0,0.0,0.0,0.0,0.0,0.0,0.0,0.0,0.0,0.0,0.0,0.0,0.0,0.0,0.0,0.0,0.0,0.0,0.0,0.0,0.0,0.0,0.0,0.0,0.0,0.0,0.0,0.0,0.0,0.0,0.0,7.2375,7.2916,7.2916,7.2916,7.2916,7.2916,7.2916,7.2916,7.2916,0.0,0.0,0.0,0.0,0.0,0.0,0.0,0.0,0.0,0.0,0.0,0.0,0.0,0.0,0.0,0.0,0.0,0.0,0.0,0.0,0.0,0.0,0.0,0.0,0.0,0.0,0.0,0.0,0.0,0.0,0.0,0.0,0.0,0.0,0.0,0.0,0.0,0.0,0.0,0.0,0.0,0.0,0.0,0.0,0.0,0.0,0.0,0.0,0.0,0.0,0.0,0.0,0.0,0.0,0.0,0.0,0.0,0.0,0.0,0.0,0.0,0.0,0.0,0.0,0.0,0.0,0.0,0.0,0.0,0.0,0.0,0.0,0.0,0.0,0.0,0.0,0.0,0.0,0.0,0.0,0.0,0.0,0.0,0.0,0.0,0.0,0.0,0.0,0.0,0.0,0.0,0.0,0.0,0.0,0.0,0.0,0.0,0.0,0.0,0.0,0.0,0.0,7.2993,7.3535,7.3883,7.3883,7.3883,7.3883,7.3883,7.3883,7.3883,7.3883,0.0,0.0,0.0,0.0,0.0,0.0,0.0,0.0,0.0,0.0,0.0,0.0,0.0,0.0,0.0,0.0,0.0,0.0,0.0,0.0,0.0,0.0,0.0,0.0,0.0,0.0,0.0,0.0,0.0,0.0,0.0,0.0,0.0,0.0,0.0,0.0,0.0,0.0,0.0,0.0,0.0,0.0,0.0,0.0,0.0,0.0,0.0,0.0,0.0,0.0,0.0,0.0,0.0,0.0,0.0,0.0,0.0,0.0,0.0,0.0,0.0,0.0,0.0,0.0,0.0,0.0,0.0,0.0,0.0,0.0,0.0,0.0,0.0,0.0,0.0,0.0,0.0,0.0,0.0,0.0,0.0,0.0,0.0,0.0,0.0,0.0,0.0,0.0,0.0,0.0,0.0,0.0,0.0,0.0,0.0,0.0,0.0,0.0,0.0,0.0,0.0,0.0,7.3922,7.3922,7.3922,7.3922,7.3922,7.3922,7.3922,7.3922,7.3922,0.0,0.0,0.0,0.0,0.0,0.0,0.0,0.0,0.0,0.0,0.0,0.0,0.0,0.0,0.0,0.0,0.0,0.0,0.0,0.0,0.0,0.0,0.0,0.0,0.0,0.0,0.0,0.0,0.0,0.0,0.0,0.0,0.0,0.0,0.0,0.0,0.0,0.0,0.0,0.0,0.0,0.0,0.0,0.0,0.0,0.0,0.0,0.0,0.0,0.0,0.0,0.0,0.0,0.0,0.0,0.0,0.0,0.0,0.0,0.0,0.0,0.0,0.0,0.0,0.0,0.0,0.0,0.0,0.0,0.0,0.0,0.0,0.0,0.0,0.0,0.0,0.0,0.0,0.0,0.0,0.0,0.0,0.0,0.0,0.0,0.0,0.0,0.0,0.0,0.0,0.0,0.0,0.0,0.0,0.0,0.0,0.0,0.0,0.0,0.0,0.0,0.0,0.0,7.4767,7.5276,7.5668,7.5668,7.5668,7.5668,7.5668,7.5668,7.5668,7.5668,0.0,0.0,0.0,0.0,0.0,0.0,0.0,0.0,0.0,0.0,0.0,0.0,0.0,0.0,0.0,0.0,0.0,0.0,0.0,0.0,0.0,0.0,0.0,0.0,0.0,0.0,0.0,0.0,0.0,0.0,0.0,0.0,0.0,0.0,0.0,0.0,0.0,0.0,0.0,0.0,0.0,0.0,0.0,0.0,0.0,0.0,0.0,0.0,0.0,0.0,0.0,0.0,0.0,0.0,0.0,0.0,0.0,0.0,0.0,0.0,0.0,0.0,0.0,0.0,0.0,0.0,0.0,0.0,0.0,0.0,0.0,0.0,0.0,0.0,0.0,0.0,0.0,0.0,0.0,0.0,0.0,0.0,0.0,0.0,0.0,0.0,0.0,0.0,0.0,0.0,0.0,0.0,0.0,0.0,0.0,0.0,0.0,0.0,0.0,0.0,0.0,0.0,7.5624,7.6088,7.6403,7.6403,7.6403,7.6403,7.6403,7.6403,7.6403,7.6403,0.0,0.0,0.0,0.0,0.0,0.0,0.0,0.0,0.0,0.0,0.0,0.0,0.0,0.0,0.0,0.0,0.0,0.0,0.0,0.0,0.0,0.0,0.0,0.0,0.0,0.0,0.0,0.0,0.0,0.0,0.0,0.0,0.0,0.0,0.0,0.0,0.0,0.0,0.0,0.0,0.0,0.0,0.0,0.0,0.0,0.0,0.0,0.0,0.0,0.0,0.0,0.0,0.0,0.0,0.0,0.0,0.0,0.0,0.0,0.0,0.0,0.0,0.0,0.0,0.0,0.0,0.0,0.0,0.0,0.0,0.0,0.0,0.0,0.0,0.0,0.0,0.0,0.0,0.0,0.0,0.0,0.0,0.0,0.0,0.0,0.0,0.0,0.0,0.0,0.0,0.0,0.0,0.0,0.0,0.0,0.0,0.0,0.0,0.0,0.0,0.0,0.0,7.6403,7.6403,7.6403,7.6403,7.6403,7.6403,7.6403,7.6403,7.6403,7.6403,0.0,0.0,0.0,0.0,0.0,0.0,0.0,0.0,0.0,0.0,0.0,0.0,0.0,0.0,0.0,0.0,0.0,0.0,0.0,0.0,0.0,0.0,0.0,0.0,0.0,0.0,0.0,0.0,0.0,0.0,0.0,0.0,0.0,0.0,0.0,0.0,0.0,0.0,0.0,0.0,0.0,0.0,0.0,0.0,0.0,0.0,0.0,0.0,0.0,0.0,0.0,0.0,0.0,0.0,0.0,0.0,0.0,0.0,0.0,0.0,7.336,7.3626,0.0,0.0,0.0,0.0,0.0,0.0,0.0,0.0,0.0,0.0,0.0,0.0,0.0,0.0,0.0,0.0,0.0,0.0,0.0,0.0,0.0,0.0,0.0,0.0,0.0,0.0,0.0,0.0,0.0,0.0,0.0,0.0,0.0,0.0,0.0,0.0,0.0,0.0,0.0,0.0,7.6403,7.6403,7.6403,7.6403,7.6403,7.6403,7.6403,7.6403,7.6403,7.6403,7.6403,0.0,0.0,0.0,0.0,0.0,0.0,0.0,0.0,0.0,0.0,0.0,0.0,0.0,0.0,0.0,0.0,0.0,0.0,0.0,0.0,0.0,0.0,0.0,0.0,0.0,0.0,0.0,0.0,0.0,0.0,0.0,0.0,0.0,0.0,0.0,0.0,0.0,0.0,0.0,0.0,0.0,0.0,0.0,0.0,0.0,0.0,0.0,0.0,0.0,0.0,0.0,0.0,0.0,0.0,0.0,0.0,0.0,0.0,0.0,7.4591,7.5043,0.0,0.0,0.0,0.0,0.0,0.0,0.0,0.0,0.0,0.0,0.0,0.0,0.0,0.0,0.0,0.0,0.0,0.0,0.0,0.0,0.0,0.0,0.0,0.0,0.0,0.0,0.0,0.0,0.0,0.0,0.0,0.0,0.0,0.0,0.0,0.0,0.0,0.0,0.0,0.0,7.7641,7.7641,7.7641,7.7641,7.7641,7.7641,7.7641,7.7641,7.7641,7.7641,7.7641,0.0,0.0,0.0,0.0,0.0,0.0,0.0,0.0,0.0,0.0,0.0,0.0,0.0,0.0,0.0,0.0,0.0,0.0,0.0,0.0,0.0,0.0,0.0,0.0,0.0,0.0,0.0,0.0,0.0,0.0,0.0,0.0,0.0,0.0,0.0,0.0,0.0,0.0,0.0,0.0,0.0,0.0,0.0,0.0,0.0,0.0,0.0,0.0,0.0,0.0,0.0,0.0,0.0,7.7484,7.74,7.6245,7.7138,7.7138,7.6438,7.6438,7.676,7.7306,7.716,0.0,0.0,0.0,0.0,0.0,0.0,0.0,0.0,0.0,0.0,0.0,0.0,0.0,0.0,0.0,0.0,0.0,0.0,0.0,0.0,0.0,0.0,7.8986,7.9358,7.9453,7.9453,7.9453,0.0,0.0,0.0,0.0,0.0,0.0,0.0,0.0,0.0,0.0,0.0,7.8989,7.8989,7.8989,7.8989,7.8989,7.8989,7.8989,7.8989,7.8989,7.8989,7.8989,7.8989,0.0,0.0,0.0,0.0,0.0,0.0,0.0,0.0,0.0,0.0,0.0,0.0,0.0,0.0,0.0,0.0,0.0,0.0,0.0,0.0,0.0,0.0,0.0,0.0,0.0,0.0,0.0,0.0,0.0,0.0,0.0,0.0,7.372,7.4535,0.0,0.0,0.0,0.0,0.0,0.0,0.0,0.0,0.0,0.0,0.0,0.0,0.0,7.8292,7.8176,7.6823,7.6476,7.7138,7.6592,7.6592,7.7176,7.7984,7.8292,7.8176,7.8176,0.0,7.7316,7.6584,0.0,0.0,0.0,0.0,0.0,0.0,0.0,0.0,0.0,0.0,0.0,0.0,0.0,0.0,0.0,0.0,0.0,0.0,0.0,0.0,0.0,0.0,7.9288,8.0827,8.1188,8.1188,8.1188,8.0034,7.8989,7.8989,7.8989,7.8989,0.0,0.0,0.0,0.0,0.0,0.0,7.8989,7.8989,7.8989,7.8989,7.8989,7.8989,7.8989,7.8989,7.8989,7.8989,7.8989,7.8989,7.8989,7.8989,0.0,0.0,0.0,0.0,0.0,0.0,0.0,0.0,0.0,0.0,0.0,0.0,0.0,0.0,0.0,0.0,0.0,0.0,0.0,0.0,0.0,0.0,0.0,0.0,0.0,0.0,0.0,0.0,0.0,7.5372,7.5796,7.6142,7.6537,7.7246,0.0,0.0,0.0,0.0,0.0,0.0,0.0,0.0,0.0,7.8746,7.9054,7.9015,7.8484,7.7739,7.7555,7.79,7.7508,7.7484,7.7868,7.8214,7.8367,7.8367,7.8367,7.8199,7.7931,7.8107,7.9151,8.068,0.0,0.0,0.0,0.0,8.0705,8.0449,7.9337,7.8858,7.8712,7.8342,0.0,0.0,0.0,0.0,0.0,0.0,0.0,8.0959,8.18,8.148,8.1315,8.2541,8.2903,8.2973,8.2973,8.2393,8.1736,8.1233,8.1472,8.1762,8.1845,8.1852,0.0,0.0,0.0,8.1852,8.1852,8.1852,8.1852,8.1852,8.1426,8.1162,8.1162,8.0691,8.042,8.042,8.042,8.042,8.042,8.042,8.017,0.0,0.0,0.0,0.0,0.0,0.0,0.0,0.0,0.0,0.0,0.0,0.0,0.0,0.0,0.0,0.0,0.0,0.0,0.0,0.0,0.0,0.0,0.0,0.0,0.0,0.0,0.0,0.0,7.6837,7.713,7.7553,7.7577,7.8177,0.0,0.0,0.0,0.0,0.0,0.0,7.9815,8.0361,8.0384,7.9784,7.9722,7.9522,7.9107,7.906,7.9152,7.9374,7.9341,7.9432,7.9662,7.9662,7.9654,7.959,7.959,7.9612,7.9565,7.9467,7.9946,8.077,8.077,8.0885,8.1054,8.113,8.1085,8.0885,8.0383,8.0,7.9697,7.9699,7.9845,8.0128,8.0728,0.0,0.0,0.0,0.0,8.2032,8.2108,8.2174,8.2508,8.3389,8.385,8.4095,8.4095,8.4237,8.4114,8.3283,8.3586,8.3991,8.4089,8.4095,0.0,8.4095,8.4095,8.4095,8.4095,8.4095,8.4095,8.4095,8.3521,8.3135,8.3135,8.249,8.2129,8.2129,8.211,8.2103,8.2103,8.2103,8.1788,8.1111,0.0,0.0,0.0,0.0,0.0,0.0,0.0,0.0,0.0,0.0,0.0,0.0,0.0,0.0,0.0,0.0,0.0,0.0,0.0,0.0,0.0,0.0,0.0,0.0,0.0,0.0,0.0,0.0,0.0,7.8238,7.8369,0.0,0.0,0.0,0.0,8.1093,8.0906,8.0544,7.9854,7.9665,7.9569,7.9612,7.9539,7.9872,8.0677,8.0723,8.1187,8.1993,8.2083,8.2546,8.3316,8.3316,8.3267,8.3137,8.3137,8.3095,8.2825,7.968,7.8845,7.9582,7.9582,8.0081,8.0826,8.0871,8.0904,8.0896,8.0866,8.032,7.9596,7.9522,8.0131,8.0844,8.0962,8.224,0.0,0.0,8.1935,8.1275,8.134,8.1368,8.1589,8.2553,8.3431,8.4095,8.4095,8.4668,8.4905,8.4166,8.4057,8.4095,8.4095,0.0,8.4095,8.4095,8.4095,8.4095,8.4095,8.4095,8.4095,8.4095,8.4063,8.4018,8.4018,8.3875,8.3796,8.3796,8.3726,8.369,8.369,8.369,8.3616,8.3549,8.3503,0.0,0.0,0.0,0.0,0.0,0.0,0.0,0.0,0.0,0.0,0.0,0.0,0.0,0.0,0.0,0.0,0.0,0.0,0.0,0.0,0.0,0.0,0.0,0.0,0.0,0.0,0.0,0.0,7.9891,7.9473,0.0,8.1065,8.1252,8.1486,8.1766,8.1741,8.165,8.1431,8.1883,8.2103,8.2032,8.2103,8.2216,8.2394,8.2429,8.2574,8.2857,8.2801,8.2898,8.3213,8.3213,8.3186,8.315,8.315,8.3131,8.3027,8.1831,8.156,8.1943,8.1943,8.2099,8.2361,8.242,8.2446,8.2455,8.2476,8.2267,8.1969,8.192,8.2111,8.2518,8.3162,8.3722,8.4118,8.4048,8.3733,8.3453,8.3478,8.4034,8.4809,8.559,8.6609,8.739,8.739,8.7602,8.7704,8.7422,8.6421,8.5666,8.5713,8.572,8.572,8.572,8.572,8.572,8.572,8.572,8.572,8.572,8.5217,8.4869,8.4869,8.4255,8.3905,8.3905,8.3835,8.3792,8.3792,8.3792,8.3784,8.3755,8.3703,8.3549,0.0,0.0,0.0,0.0,0.0,0.0,0.0,0.0,0.0,0.0,0.0,0.0,0.0,0.0,0.0,0.0,0.0,0.0,0.0,0.0,0.0,0.0,0.0,0.0,0.0,8.0049,8.0298,8.1142,8.0928,8.1162,8.2312,8.2223,8.2228,8.2557,8.2566,8.2591,8.2658,8.3171,8.3551,8.3751,8.3785,8.3895,8.4029,8.4104,8.4239,8.4442,8.4414,8.4548,8.4825,8.4509,8.4529,8.4729,8.4156,8.406,8.425,8.3945,8.3907,8.399,8.3416,8.315,8.3141,8.3168,8.3378,8.3655,8.368,8.3662,8.356,8.3227,8.3132,8.3284,8.3975,8.4083,8.4029,8.4251,8.4268,8.4225,8.4225,8.5247,8.6408,8.6892,8.8089,8.9093,8.9093,8.9093,8.9093,8.9093,8.8204,8.7445,8.7454,8.7499,8.7454,8.7427,8.744,8.7447,8.7427,8.742,8.742,8.742,8.6858,8.6496,8.6496,8.5917,8.5449,8.514,8.5066,8.4867,8.4604,8.4566,8.4566,8.4566,8.4281,8.4096,8.4096,0.0,0.0,0.0,0.0,0.0,0.0,0.0,0.0,0.0,0.0,0.0,0.0,0.0,0.0,0.0,0.0,0.0,0.0,0.0,0.0,0.0,0.0,0.0,8.1022,8.0791,8.0997,8.1868,8.2719,8.3217,8.3217,8.4056,8.4264,8.3429,8.3353,8.34,8.34,8.331,8.3647,8.4432,8.4423,8.4757,8.554,8.5695,8.6164,8.692,8.7054,8.7561,8.8375,8.7522,8.7504,8.8107,8.6471,8.6183,8.6762,8.5922,8.5578,8.5387,8.3715,8.3076,8.3076,8.3076,8.3611,8.4337,8.4337,8.4337,8.4222,8.3381,8.3114,8.3133,8.3304,8.3332,8.335,8.3403,8.3391,8.3391,8.3391,8.4767,8.617,8.6162,8.761,8.8969,8.8969,8.8969,8.8969,8.8969,8.9142,8.924,8.9201,8.9201,8.9135,8.9018,8.9114,0.0,8.9018,8.9011,8.9011,8.9011,8.8937,8.8892,8.8892,8.8852,8.8449,8.7602,8.749,8.7055,8.6209,8.617,8.617,8.617,8.544,8.5008,8.5008,0.0,0.0,0.0,0.0,0.0,0.0,0.0,0.0,0.0,0.0,0.0,0.0,0.0,0.0,0.0,0.0,0.0,0.0,0.0,0.0,0.0,8.4352,8.3693,8.3574,8.2936,8.2796,8.359,8.3305,8.3305,8.3955,8.4242,8.4557,8.5015,8.5024,8.5052,8.5116,8.5098,8.5167,8.5332,8.5973,8.6384,8.6418,8.7139,8.7618,8.7778,8.7798,8.7933,8.8162,8.7933,8.7951,8.8122,8.7625,8.7567,8.7727,8.746,8.7384,8.7192,8.5473,8.4824,8.4824,8.4824,8.5025,8.5332,8.5369,8.5388,8.5455,8.5724,8.582,8.5925,8.6564,8.6746,8.6651,8.6059,8.5896,8.5781,8.5178,8.649,8.7885,8.7863,8.9311,9.0705,9.0705,9.079,9.0867,9.0867,9.0955,9.0597,8.9206,8.8998,8.8991,8.893,8.8945,8.8991,8.893,8.8922,8.8922,8.8922,8.8899,8.8892,8.8892,8.8852,8.868,8.8449,8.8375,8.8256,8.7987,8.7987,8.7987,8.7987,8.7756,8.7671,0.0,0.0,0.0,0.0,0.0,0.0,0.0,0.0,0.0,0.0,0.0,0.0,0.0,0.0,0.0,0.0,0.0,0.0,0.0,0.0,0.0,0.0,8.4987,8.4509,8.491,8.4222,8.385,8.4299,8.4175,8.425,8.4747,8.5129,8.5569,8.6135,8.6489,8.67,8.6758,8.6758,8.6738,8.6718,8.7226,8.7618,8.7832,8.8056,8.8476,8.9141,8.8797,8.8797,8.9141,8.8759,8.8797,8.9103,8.8377,8.8301,8.8606,8.8606,8.8606,8.8453,0.0,0.0,0.0,0.0,8.6927,8.6767,8.7121,8.7064,8.6825,8.7264,8.7627,8.7999,8.8474,8.8874,8.896,8.8142,8.7894,8.7703,8.691,8.8145,8.9548,8.9493,9.097,9.2365,9.2365,9.2407,9.2486,9.2486,9.2526,0.0,9.111,9.0411,8.9995,8.9925,8.9949,8.9956,8.9917,8.9917,8.9917,8.9917,8.9885,8.9861,8.9861,8.9811,0.0,0.0,0.0,8.9056,8.8718,8.8718,0.0,0.0,0.0,8.8718,8.8718,8.8179,0.0,0.0,8.4986,8.4632,0.0,0.0,0.0,0.0,0.0,0.0,0.0,0.0,0.0,0.0,0.0,0.0,0.0,0.0,0.0,0.0,8.5207,8.4862,8.5702,8.5167,8.4671,8.4594,8.532,8.5769,8.5769,8.6495,8.6953,8.6953,8.7651,8.812,8.812,8.8196,0.0,0.0,0.0,8.8835,8.9447,8.8912,8.9409,9.085,9.0086,9.0135,9.085,9.0096,9.0162,9.0812,8.9294,8.9065,8.9714,8.9714,8.9714,8.9638,8.8721,8.8377,8.8453,8.9179,8.8988,8.8502,8.919,0.0,0.0,8.8359,8.8808,8.9332,8.9409,8.9971,9.043,8.9551,8.9294,8.9103,8.8301,8.9418,9.0752,9.0752,9.218,9.3548,9.3548,9.3642,9.3728,9.3728,9.3737,9.3746,9.3728,9.2685,9.1778,9.1586,9.1628,9.1644,9.157,9.1561,9.1561,9.1561,9.1523,0.0,9.1479,9.1402,9.1018,9.0239,9.0086,8.9748,8.9026,8.8987,8.8987,8.8987,8.8987,8.8987,8.8987,8.8872,8.8833,8.8795,8.7171,8.6401,0.0,0.0,0.0,0.0,0.0,0.0,0.0,0.0,0.0,0.0,0.0,0.0,0.0,0.0,0.0,8.759,8.6918,8.6609,8.746,8.746,8.7116,8.638,8.7078,8.7613,8.7613,8.7766,8.7842,8.7842,8.7995,8.812,8.812,8.8721,8.8759,8.811,9.002,9.0861,9.0353,9.1548,9.2312,9.2618,9.2465,0.0,9.2618,9.2427,9.2465,9.2618,9.2274,9.2236,9.2389,9.2389,9.2389,9.2236,9.0708,9.0135,9.0124,9.0277,9.0239,9.0145,9.0342,8.9825,8.919,8.997,8.9786,8.9447,9.0124,9.0468,0.0,8.9551,8.9294,8.9103,8.8301,8.8937,8.9764,8.9764,9.1184,9.2554,9.2554,9.3258,9.3864,9.3864,9.3885,9.391,9.3881,9.3538,9.3281,9.3246,9.3255,9.3264,9.3246,9.3237,9.3237,9.3237,9.3219,9.321,9.321,9.2633,9.2172,9.2018,9.1325,9.0864,9.071,9.071,9.071,9.071,9.071,9.071,9.071,9.0017,8.9663,8.9624,8.8671,8.8218,0.0,0.0,0.0,0.0,0.0,0.0,0.0,0.0,0.0,0.0,0.0,8.6036,8.6833,0.0,8.7217,8.8019,8.7768,8.7613,8.8033,8.8835,8.8874,8.7613,8.7842,8.812,8.812,8.8874,8.937,8.937,9.0135,9.0593,9.0593,9.0975,9.1013,9.0593,9.1816,9.2465,9.2493,9.2886,9.3306,9.3764,9.3306,9.3115,9.3115,9.3115,9.3115,9.3115,9.3115,9.3115,9.3153,9.36,9.4042,9.4386,9.3545,9.2661,9.1843,9.1843,9.1886,9.19,9.1503,9.1023,9.0648,9.0689,9.0638,9.0631,9.109,9.151,9.1663,9.0784,9.0555,9.0478,9.0058,9.0676,9.1485,9.1906,9.3149,9.4216,9.4216,9.4683,9.5091,9.5091,9.5126,9.5144,9.5099,9.5055,9.4711,9.3826,9.371,9.371,9.371,9.371,9.371,9.371,9.371,9.371,9.371,9.3326,9.3095,9.3095,9.2672,9.2441,9.2441,9.2441,9.2441,9.2441,9.2441,9.2249,9.1864,9.1402,9.097,9.0547,9.0133,8.9479,0.0,0.0,0.0,0.0,0.0,0.0,0.0,8.5193,8.552,8.5529,8.5626,8.6154,8.7456,8.736,8.7445,8.8436,8.8606,8.8683,8.9027,9.0249,9.0583,8.9218,8.9065,8.9065,8.9065,9.0287,9.1079,9.1079,9.2351,9.3115,9.3115,9.3268,9.3268,9.3115,9.3421,9.3841,9.4403,9.3879,9.3955,9.4632,9.3917,9.3573,9.3573,9.3573,9.3573,9.3573,9.3573,9.3573,9.3661,9.4407,9.5138,9.581,9.581,9.4926,9.3638,9.3584,9.3697,9.3698,9.2988,9.2654,9.2396,9.1707,9.175,9.2077,9.2077,9.2563,9.2962,9.2236,9.2045,9.2045,9.2045,9.2644,9.3482,9.4318,9.5315,9.6116,9.6328,9.6443,9.6519,9.6519,9.6403,9.6288,9.6288,9.6288,9.5826,9.4403,9.421,9.421,9.421,9.421,9.421,9.421,9.421,9.4134,9.3989,9.3941,9.3864,9.371,9.371,9.371,9.371,9.371,9.371,9.371,9.371,9.3364,9.271,9.271,9.2364,9.171,9.171,9.0787,8.571,8.5851,8.615,8.6862,8.6493,8.5901,0.0,8.5091,8.4566,8.4575,8.5074,8.5579,8.576,8.6983,8.8474,9.0058,9.0315,9.085,9.2351,9.2695,9.2771,9.258,9.2542,9.2542,9.2542,9.2695,9.2809,9.2809,9.3,9.3115,9.3115,9.3841,9.3917,9.3115,9.4529,9.5025,9.4403,9.5025,9.5369,9.5446,9.5369,9.5331,9.5331,9.5331,9.5331,9.5331,9.5331,9.5331,9.5331,9.5429,9.561,9.581,9.581,9.571,9.5581,9.5369,9.5434,9.5601,9.5421,9.4954,9.4385,9.427,9.3739,9.3148,9.3148,9.3113,9.3077,9.2962,9.2962,9.2962,9.2962,9.3049,9.3349,9.4297,9.5226,9.6181,9.7048,9.7299,9.7365,9.7365,9.6788,9.6288,9.6288,9.6288,9.6249,9.6057,9.6019,9.6019,9.6019,9.6019,9.6019,9.6019,9.6019,9.5711,9.4912,9.4835,9.4527,9.3749,9.371,9.371,9.371,9.371,9.371,9.371,9.371,9.3672,9.3557,9.3557,9.3518,9.3403,9.3403,9.2518,8.8185,8.7804,8.7366,8.7148,8.6795,8.6365,8.5762,8.5714,8.58,8.58,8.6458,8.7154,8.7651,8.8721,8.9944,9.1128,9.1739,9.2312,9.3,9.3535,9.3879,9.3879,9.4261,9.4185,9.3191,9.3573,9.3879,9.3879,9.4299,9.4796,9.5293,9.5675,9.5904,9.6008,9.6695,9.6898,9.6542,9.6898,9.705,9.705,9.705,9.705,9.705,9.705,9.705,9.705,9.7128,9.7117,9.7062,9.7205,9.7286,9.7276,9.734,9.7396,9.7324,9.6173,9.5828,9.5823,9.5312,9.4939,9.4635,9.4098,9.3685,9.3348,9.3348,9.3266,9.3221,9.3211,9.3168,9.3229,9.3726,9.3879,9.4217,9.5636,9.6326,9.6928,9.7883,9.8183,9.825,9.825,9.798,9.775,9.775,9.775,9.775,9.775,9.6903,9.6288,9.6288,9.6288,9.6288,9.6288,9.6288,9.6134,9.5788,9.5749,9.5595,9.5249,9.5211,9.5211,9.5211,9.5211,9.5211,9.5211,9.5211,9.4941,9.445,9.445,9.422,9.371,9.371,9.3326,9.0067,8.9255,8.8251,8.7791,8.7485,8.7101,8.6372,8.6696,8.7221,8.745,8.8186,8.9027,8.9829,9.0708,9.1538,9.2389,9.3038,9.3535,9.3764,9.4338,9.472,9.472,9.5446,9.5484,9.4261,9.449,9.4834,9.5064,9.5637,9.6324,9.7203,9.7241,9.7509,9.8071,9.8109,9.8109,9.8109,9.8109,9.8109,9.8109,9.8109,9.8109,9.8109,9.8109,9.8109,9.812,9.821,9.821,9.8177,9.8353,9.8417,9.8395,9.849,9.8582,9.8509,9.7172,9.6691,9.6566,9.573,9.5472,9.5338,9.4494,9.4167,9.4147,9.4147,9.4078,9.4035,9.4025,9.3942,9.3999,9.461,9.478,9.5173,9.698,9.7497,9.7897,9.9103,9.924,9.9173,9.9173,9.8942,9.8788,9.8788,9.8788,9.8788,9.8788,9.775,9.6903,9.6673,9.6442,9.6288,9.6288,9.6288,9.6288,9.6288,9.6288,9.6288,9.6288,9.6288,9.6288,9.6288,9.6288,9.6288,9.6288,9.6288,9.598,9.5374,9.5374,9.4912,9.4057,9.4057,9.3941,9.0759,8.9612,8.8423,8.9227,8.8736,8.8043,8.8043,8.8033,8.8262,8.9065,8.9933,9.0774,9.1586,9.2427,9.3306,9.4174,9.4327,9.4643,9.5407,9.556,9.556,9.556,9.6324,9.6859,9.6783,9.6019,9.5904,9.6745,9.6859,9.7203,9.8032,9.8071,9.8071,9.8109,9.8109,9.8109,9.8109,9.8109,9.8109,9.8109,9.8109,9.8109,9.8109,9.8109,9.8109,9.8109,9.8109,9.8188,9.8298,9.8298,9.8427,9.8584,9.8584,9.8692,9.8788,9.875,9.8702,9.8577,9.7635,9.7356,9.7279,9.6471,9.6136,9.6021,9.6021,9.5952,9.5823,9.5823,9.578,9.5723,9.5761,9.5648,9.6047,9.7995,9.848,9.8953,10.0817,10.0596,10.0106,10.0106,9.9375,9.8788,9.8788,9.8788,9.8788,9.8788,9.875,9.8404,9.7557,9.6788,9.6288,9.6288,9.6288,9.6288,9.6288,9.6288,9.6288,9.6288,9.6288,9.6288,9.6288,9.6288,9.6288,9.6288,9.6288,9.6288,9.6249,9.6249,9.5826,9.4951,9.4951,9.4527,9.0254,8.9544,8.8977,8.8649,8.8331,8.8377,8.9523,8.9752,9.0135,9.1548,9.2567,9.327,9.3538,9.4303,9.5002,9.527,9.5233,9.5293,9.556,9.6095,9.6477,9.6477,9.7203,9.7689,9.7689,9.7421,9.7383,9.765,9.7689,9.8082,9.8923,9.8961,9.9228,9.9752,9.9763,9.9763,9.9763,9.9763,9.9763,9.9763,9.9763,9.9763,9.9763,9.9843,9.9889,9.9889,10.0092,10.0097,10.0114,10.0188,10.022,10.0181,10.0302,10.0391,10.0393,10.0413,10.0519,10.0192,9.8711,9.8191,9.8182,9.7913,9.7866,9.7895,9.7895,9.7779,9.7679,9.7657,9.7552,9.7435,9.7358,9.7302,9.7428,9.8205,9.8838,9.9508,10.0189,10.0586,10.0904,10.0904,10.0712,10.0519,10.0519,10.0519,10.0519,10.0519,9.9519,9.8673,9.8404,9.8134,9.7942,9.7942,9.7942,9.7711,9.7134,9.7096,9.6865,9.6326,9.6288,9.6288,9.6288,9.6288,9.6288,9.6288,9.6288,9.6288,9.6288,9.6288,9.6134,9.5865,9.5865,9.5711,9.1181,9.0613,9.0266,8.9964,8.9905,9.0173,9.1243,9.1499,9.1881,9.3268,9.432,9.5055,9.5362,9.6121,9.6755,9.6712,9.6637,9.6571,9.6488,9.6974,9.7318,9.7318,9.8082,9.8693,9.8949,9.8988,9.8873,9.8579,9.8579,9.8923,9.9763,9.984,10.0107,10.0604,10.0909,10.11,10.11,10.1406,10.1483,10.1483,10.1215,10.11,10.11,10.0883,10.0787,10.0798,10.0994,10.1095,10.1113,10.1185,10.1196,10.1088,10.1198,10.119,10.12,10.1298,10.1279,10.1087,9.9634,9.9153,9.9076,9.8769,9.8731,9.8788,9.8788,9.874,9.8662,9.8562,9.8448,9.8331,9.821,9.8143,9.8219,9.8659,9.9458,10.0303,10.0686,10.1479,10.2212,10.2212,10.2212,10.2097,10.1779,10.151,10.1279,10.1279,10.0404,9.9596,9.9298,9.8981,9.8788,9.8788,9.8788,9.8557,9.8019,9.7942,9.775,9.725,9.7173,9.7057,9.6749,9.6749,9.6596,9.6326,9.6288,9.6288,9.6288,9.6288,9.6134,9.5826,9.5826,9.5672,9.3235,9.255,9.2083,9.2886,9.3115,9.3115,9.3153,9.3191,9.3421,9.4327,9.5287,9.6176,9.7008,9.7908,9.8514,9.8397,9.8337,9.8244,9.8132,9.8147,9.8185,9.8185,9.8923,9.9763,10.0489,10.0604,10.0298,9.9572,9.9496,9.9801,10.0604,10.0604,10.0604,10.0604,10.1394,10.1891,10.1891,10.2782,10.3214,10.3176,10.24,10.2018,10.1903,10.1315,10.0913,10.1011,10.1083,10.12,10.1303,10.1303,10.1315,10.1394,10.1394,10.1394,10.1394,10.1394,10.1394,10.1289,10.0404,10.0183,9.999,9.9211,9.8942,9.8942,9.8942,9.8942,9.8885,9.8778,9.8677,9.8612,9.8446,9.8325,9.846,9.9386,10.0311,10.13,10.2097,10.3209,10.3905,10.3905,10.3905,10.3597,10.2789,10.202,10.1394,10.1394,10.1394,10.1096,10.0298,9.9452,9.8942,9.8942,9.8942,9.8904,9.8865,9.8865,9.8865,9.8788,9.8788,9.8442,9.7596,9.7557,9.7211,9.6442,9.6442,9.6403,9.6365,9.6365,9.5903,9.5066,9.5066,9.4604,9.2376,9.2487,9.2809,9.3038,9.3115,9.3268,9.3917,9.407,9.449,9.5981,9.7112,9.8033,9.8791,9.92,9.9358,9.9277,9.8642,9.8154,9.8109,9.8655,9.9075,9.9075,9.9801,10.0413,10.0604,10.0604,10.0795,10.1203,10.0718,10.0413,10.0604,10.0604,10.0604,10.0604,10.0795,10.1203,10.1891,10.2782,10.3223,10.3305,10.2982,10.2906,10.2884,10.2894,10.289,10.3014,10.3091,10.3191,10.3221,10.248,10.2308,10.2289,10.2289,10.2289,10.2289,10.2289,10.2289,10.2097,10.1289,10.1019,10.1019,10.0712,10.0712,10.0712,10.0712,10.0712,10.0606,10.0593,10.0504,10.0519,10.0191,10.0114,10.0003,9.9564,10.0705,10.1816,10.1388,10.2696,10.3905,10.3905,10.3905,10.3789,10.3597,10.3405,10.3212,10.3212,10.3212,10.2712,10.1212,10.0789,10.0712,10.0712,10.0712,10.0404,9.9837,9.976,9.949,9.8827,9.8788,9.8711,9.8481,9.8481,9.8365,9.8173,9.8173,9.7827,9.7211,9.7211,9.6788,9.598,9.598,9.5865,9.2973,9.3306,9.3764,9.4108,9.4185,9.4425,9.5359,9.5522,9.6041,9.7779,9.8964,9.9787,10.0092,10.0617,10.0715,10.0207,9.9659,9.9247,9.919,9.961,9.9916,9.9916,10.0298,10.0795,10.1089,10.0795,10.11,10.24,10.1712,10.1215,10.1215,10.1521,10.1597,10.1215,10.1903,10.2705,10.3622,10.4119,10.4294,10.4385,10.4009,10.3891,10.3902,10.3717,10.3409,10.3088,10.3288,10.3097,10.2789,10.2597,10.2597,10.2597,10.2981,10.3212,10.3212,10.3212,10.3212,10.3097,10.2597,10.2404,10.2289,10.151,10.1279,10.1279,10.1279,10.1279,10.1298,10.1208,10.1185,10.1102,10.0919,10.0791,10.062,10.0092,10.141,10.2523,10.1713,10.3297,10.4982,10.4982,10.4713,10.4405,10.4405,10.4097,10.3905,10.3905,10.3905,10.3482,10.2597,10.2097,10.1702,10.1279,10.1279,10.1096,10.0712,10.0596,10.0404,9.9942,9.9904,9.975,9.9375,9.9375,9.9183,9.8788,9.8788,9.8557,9.8057,9.8057,9.7827,9.7403,9.7019,9.6826,9.4174,9.4479,9.472,9.5446,9.5675,9.5976,9.6822,9.7199,9.7844,9.9532,10.0683,10.129,10.1202,10.1803,10.1995,10.0913,10.0802,10.0692,10.0615,10.0604,10.0604,10.0604,10.0604,10.0909,10.1712,10.1089,10.1406,10.3099,10.2591,10.2209,10.2094,10.2705,10.2705,10.2094,10.3584,10.4781,10.562,10.5722,10.5783,10.5898,10.5185,10.4898,10.4994,10.4313,10.3598,10.2878,10.3095,10.2712,10.201,10.2712,10.2904,10.2981,10.3789,10.4097,10.4097,10.4097,10.4097,10.3982,10.3905,10.3905,10.3712,10.2097,10.1587,10.1587,10.1587,10.1597,10.15,10.141,10.1193,10.1,10.088,10.0681,10.0577,10.0604,10.2011,10.3103,10.2297,10.4302,10.629,10.6405,10.579,10.529,10.529,10.4713,10.4212,10.4212,10.4212,10.4212,10.4097,10.3289,10.252,10.1702,10.151,10.151,10.151,10.1394,10.1279,10.1279,10.1279,10.1019,10.0298,10.0298,9.9904,9.9135,9.9135,9.9058,9.8981,9.8981,9.8904,9.8788,9.8019,9.7673,9.4365,9.4911,9.5446,9.556,9.6133,9.674,9.6937,9.8118,9.9452,10.048,10.1489,10.2114,10.1898,10.2107,10.1904,10.0788,10.0589,10.0589,10.0604,10.0604,10.0604,10.0604,10.0604,10.0718,10.0795,10.128,10.2094,10.3087,10.3699,10.3699,10.3011,10.24,10.24,10.3023,10.389,10.4609,10.5008,10.5595,10.6009,10.6096,10.5892,10.5788,10.6013,10.5804,10.5704,10.5721,10.5703,10.5703,10.552,10.4905,10.4723,10.4723,10.4789,10.4905,10.4905,10.4905,10.4905,10.4789,10.4097,10.3905,10.3915,10.3482,10.3405,10.3405,10.3405,10.2904,10.2404,10.2385,10.1805,10.1078,10.1011,10.0891,10.0692,10.0589,10.1484,10.2309,10.2222,10.3818,10.5482,10.629,10.629,10.6213,10.6213,10.6097,10.602,10.602,10.602,10.5713,10.4982,10.4212,10.3597,10.3482,10.2789,10.2404,10.2404,10.1712,10.1279,10.1279,10.1279,10.1202,10.1096,10.1096,10.101,10.0904,10.0904,10.0519,9.9875,9.9875,9.949,9.8788,9.8634,9.8557,9.4911,9.5293,9.5713,9.6172,9.6592,9.7172,9.8161,9.9392,10.071,10.2184,10.3188,10.3793,10.3585,10.3596,10.3295,10.2275,10.2482,10.2509,10.1522,10.2084,10.2214,10.0806,10.0986,10.1292,10.1292,10.1712,10.2388,10.3699,10.3813,10.3813,10.3813,10.3393,10.3608,10.4609,10.4991,10.5315,10.541,10.5813,10.5985,10.6199,10.6107,10.6216,10.6284,10.6284,10.6084,10.5713,10.5713,10.5482,10.5097,10.5097,10.5107,10.5097,10.5597,10.579,10.579,10.579,10.579,10.5713,10.529,10.5213,10.5213,10.5213,10.4597,10.3905,10.3905,10.3597,10.3289,10.3289,10.2911,10.2501,10.2411,10.2309,10.2,10.1484,10.1308,10.1683,10.3306,10.4016,10.4694,10.6105,10.6395,10.6395,10.6395,10.6395,10.6395,10.6395,10.6395,10.6203,10.579,10.5405,10.4905,10.3982,10.3482,10.3289,10.3289,10.2904,10.252,10.202,10.202,10.1789,10.1279,10.1279,10.1279,10.1279,10.1279,10.1096,10.0712,10.0712,10.0481,10.0096,9.9673,9.949,9.5495,9.5598,9.5789,9.6668,9.7012,9.7653,9.9566,10.0808,10.1995,10.3788,10.4789,10.5297,10.5002,10.498,10.4718,10.3706,10.4194,10.4188,10.262,10.3707,10.3699,10.1189,10.1585,10.2094,10.1891,10.2197,10.3011,10.431,10.399,10.4014,10.4384,10.4599,10.5092,10.5886,10.5886,10.5982,10.598,10.598,10.6085,10.6193,10.6193,10.6312,10.6395,10.6395,10.602,10.5405,10.5405,10.4982,10.4482,10.5097,10.5405,10.5405,10.6087,10.6395,10.6395,10.6395,10.6395,10.6395,10.6395,10.6395,10.6395,10.6395,10.552,10.4405,10.4413,10.4298,10.4095,10.4113,10.3915,10.359,10.359,10.3399,10.3087,10.2486,10.169,10.1916,10.4605,10.45,10.4396,10.6287,10.651,10.6395,10.6395,10.6395,10.6395,10.6395,10.6395,10.6395,10.6395,10.6395,10.5905,10.4597,10.4289,10.4222,10.4222,10.3982,10.3597,10.2904,10.2904,10.2597,10.1904,10.1712,10.1597,10.1597,10.1394,10.1279,10.1279,10.1279,10.1279,10.1279,10.0712,10.0414,9.5823,9.5598,9.5789,9.6668,9.7471,9.8483,10.041,10.2112,10.3607,10.4787,10.5713,10.5979,10.5194,10.498,10.4718,10.3706,10.4194,10.4379,10.3297,10.4013,10.3891,10.1991,10.2514,10.2782,10.2006,10.3317,10.4195,10.4386,10.5194,10.5292,10.4591,10.5396,10.5886,10.6012,10.6012,10.6106,10.6216,10.6177,10.6193,10.6385,10.6385,10.6395,10.6395,10.6395,10.6405,10.629,10.629,10.6203,10.6213,10.629,10.629,10.629,10.6405,10.6395,10.6395,10.6395,10.6395,10.6395,10.6395,10.6395,10.6395,10.6395,10.628,10.6105,10.6011,10.5403,10.4806,10.4698,10.4089,10.3309,10.3309,10.3293,10.3188,10.3111,10.3117,10.3604,10.5513,10.5306,10.5288,10.7182,10.6895,10.6395,10.6395,10.6395,10.6395,10.6395,10.6395,10.6395,10.6395,10.6395,10.628,10.6203,10.5482,10.4992,10.4992,10.4289,10.3915,10.3789,10.3789,10.3712,10.3712,10.2904,10.252,10.252,10.1712,10.1279,10.1279,10.1279,10.1279,10.1279,10.1202,10.1212,9.5861,9.5981,9.6592,9.7432,9.8273,9.9373,10.1291,10.261,10.3788,10.4903,10.579,10.6308,10.5882,10.6305,10.6487,10.6088,10.7202,10.7291,10.5211,10.6108,10.5886,10.2997,10.3393,10.3813,10.3381,10.4004,10.469,10.5309,10.5802,10.5903,10.5596,10.5804,10.6018,10.6085,10.6085,10.6188,10.6294,10.6294,10.6315,10.6395,10.6395,10.6395,10.6395,10.6395,10.6395,10.6395,10.6395,10.6395,10.6395,10.6395,10.6395,10.6395,10.6395,10.6395,10.6395,10.6395,10.6395,10.6395,10.6395,10.6395,10.6395,10.6395,10.6315,10.6301,10.6284,10.6102,10.5812,10.5695,10.541,10.501,10.4893,10.4484,10.3985,10.3914,10.3594,10.3714,10.5595,10.5788,10.6107,10.8105,10.8098,10.779,10.729,10.7213,10.7021,10.651,10.6395,10.6395,10.6395,10.6395,10.6395,10.6395,10.6097,10.5905,10.5905,10.5597,10.5213,10.4723,10.4597,10.4405,10.3905,10.3597,10.3405,10.3405,10.252,10.2097,10.2097,10.1597,10.1279,10.1279,10.1279,10.1279,9.5948,9.6248,9.7089,9.788,9.8945,10.0298,10.2183,10.3295,10.4176,10.5297,10.6213,10.679,10.679,10.7521,10.8098,10.8098,10.9,10.9118,10.7099,10.781,10.7615,10.4682,10.4891,10.5108,10.4915,10.4877,10.5203,10.5905,10.6101,10.621,10.628,10.6205,10.6205,10.628,10.6291,10.6284,10.6395,10.6395,10.6395,10.6395,10.6395,10.6395,10.6395,10.6395,10.6395,10.6395,10.6395,10.6395,10.6395,10.6395,10.6395,10.6395,10.6395,10.6395,10.6395,10.6395,10.6395,10.6395,10.6395,10.6413,10.6315,10.6315,10.6319,10.6205,10.6319,10.6319,10.6188,10.6117,10.6122,10.6023,10.5894,10.5491,10.5,10.4793,10.4384,10.4506,10.64,10.6598,10.6984,10.8902,10.9098,10.8713,10.8213,10.8098,10.779,10.7213,10.6895,10.679,10.679,10.6597,10.6395,10.6395,10.6395,10.6395,10.6395,10.6395,10.6087,10.5482,10.5482,10.5213,10.4713,10.4405,10.4299,10.4299,10.3405,10.2981,10.2981,10.2097,10.1712,10.1712,10.1394,10.1279,9.6123,9.6248,9.7089,9.788,9.9434,10.1279,10.3087,10.4281,10.5319,10.6182,10.7098,10.7713,10.7713,10.829,10.8906,10.8906,10.8821,10.8706,10.8706,10.8595,10.8285,10.7415,10.7097,10.6805,10.6089,10.5985,10.5991,10.6188,10.6199,10.628,10.6395,10.6395,10.6395,10.6395,10.6395,10.6395,10.6395,10.6395,10.6395,10.6395,10.6395,10.6395,10.6395,10.6395,10.6395,10.6395,10.6395,10.6395,10.6395,10.6395,10.6395,10.6395,10.6395,10.6395,10.6395,10.6395,10.6395,10.6395,10.6395,10.6294,10.6199,10.6199,10.6085,10.5985,10.5985,10.5982,10.5904,10.5684,10.5686,10.5686,10.5686,10.5783,10.5892,10.571,10.5783,10.6422,10.8186,10.7913,10.7905,10.9786,10.9483,10.8906,10.8906,10.8906,10.8906,10.8906,10.8213,10.7713,10.7713,10.6895,10.6395,10.6395,10.6395,10.6395,10.6395,10.6395,10.6395,10.6395,10.6395,10.6395,10.6405,10.5482,10.5107,10.5107,10.4289,10.3905,10.3905,10.2981,10.2597,10.2597,10.1712,10.1279,9.7908,9.8642,9.9742,10.001,10.1384,10.301,10.4204,10.4806,10.5319,10.6182,10.6587,10.7021,10.7598,10.8406,10.8885,10.881,10.9178,10.9403,10.8699,10.8615,10.8516,10.8209,10.7599,10.6913,10.5986,10.6095,10.6085,10.6079,10.6182,10.6402,10.6395,10.6395,10.6395,10.6395,10.6395,10.6395,10.6395,10.6395,10.6395,10.6395,10.6395,10.6395,10.6395,10.6395,10.6395,10.6395,10.6395,10.6395,10.6395,10.6395,10.6395,10.6395,10.6395,10.6395,10.6395,10.6395,10.6395,10.6395,10.6395,10.6413,10.6305,10.6305,10.6188,10.5985,10.5985,10.6001,10.5905,10.5892,10.5797,10.5711,10.5711,10.5783,10.5916,10.5792,10.5913,10.6499,10.8311,10.8498,10.8811,11.0682,11.0906,11.0521,10.9906,10.979,10.9598,10.8983,10.8713,10.8482,10.8482,10.779,10.729,10.729,10.679,10.6395,10.6395,10.6395,10.6395,10.6395,10.6395,10.6395,10.6395,10.6087,10.602,10.602,10.5213,10.4713,10.4713,10.3905,10.3482,10.3482,10.2597,10.2212,9.8866,9.9707,10.1011,10.1011,10.25,10.4193,10.4893,10.5281,10.5707,10.6308,10.6895,10.7521,10.8098,10.9098,10.9885,10.9809,10.9606,10.9512,10.9688,10.911,10.8615,10.8584,10.79,10.711,10.6104,10.5887,10.5885,10.6079,10.6284,10.6395,10.6395,10.6395,10.6395,10.6395,10.6395,10.6395,10.6395,10.6395,10.6395,10.6395,10.6395,10.6395,10.6395,10.6395,10.6395,10.6395,10.6395,10.6395,0.0,10.6395,10.6395,10.6395,10.6395,10.6395,10.6395,10.6395,10.6395,10.6395,10.6315,10.6312,10.6193,10.6188,10.6084,10.5886,10.5886,10.5886,10.5901,10.5792,10.5785,10.5711,10.5711,10.5818,10.5898,10.5901,10.6016,10.6611,10.83,10.8706,10.9316,11.1105,11.1511,11.128,11.0791,11.0714,11.0483,10.9983,10.9598,10.9406,10.9406,10.8713,10.8213,10.8213,10.7405,10.6895,10.6895,10.6587,10.6395,10.6395,10.6395,10.6395,10.6395,10.6395,10.6395,10.6395,10.5905,10.5597,10.5597,10.4789,10.4212,10.3905,10.3289,10.3097,0.0,9.992,10.1185,10.1185,10.3189,10.5106,10.5106,10.5795,0.0,10.651,10.7713,10.8906,10.8983,11.0291,11.1395,11.1385,10.9776,10.9297,11.1083,10.9787,10.8699,10.8597,10.8101,10.7315,10.6314,10.5602,10.552,10.6308,10.6395,10.6395,10.6395,10.6395,10.6395,10.6395,10.6395,10.6395,10.6395,10.6395,10.6395,10.6395,10.6395,10.6395,10.6395,10.6395,10.6395,10.6395,10.6395,10.6395,10.6395,10.6395,10.6395,10.6395,10.6395,10.6395,10.6395,10.6395,10.6395,10.6385,10.628,10.6096,10.5996,10.5909,10.5792,10.5722,10.571,10.5698,10.5686,10.5686,10.5698,10.5698,10.5698,10.5889,10.6012,10.5898,10.6084,10.6709,10.8295,10.8602,10.9211,11.1,11.1395,11.1395,11.1511,11.1511,11.1511,11.1511,11.0791,11.0291,11.0291,10.9483,10.8983,10.8983,10.829,10.779,10.779,10.6895,10.6395,10.6395,10.6395,10.6395,10.6395,10.6395,10.6395,10.6395,10.6395,10.6395,10.6395,10.5597,10.4789,10.4097,10.3982,10.3982,10.0807,0.0,10.3219,10.3219,10.47,10.6095,0.0,10.6192,10.6587,10.729,10.7713,10.8406,10.9713,11.0214,11.0489,11.0402,10.9385,10.8995,11.0216,11.0002,10.9316,10.7778,10.7712,10.7294,10.6205,10.6099,10.6095,10.6203,10.6315,10.6395,10.6395,10.6395,10.6395,10.6395,10.6395,10.6395,10.6395,10.6395,10.6395,10.6395,10.6395,10.6395,10.6395,10.6395,10.6395,10.6395,10.6395,10.6395,10.6395,10.6395,10.6395,10.6395,10.6395,10.6395,10.6395,10.6395,10.6395,10.6395,10.6413,10.6305,10.6301,10.6194,10.6101,10.6095,10.6005,10.5804,10.5698,10.5807,10.5919,10.5904,10.5909,10.6007,10.6107,10.6085,10.6182,10.6595,10.771,10.7902,10.8413,11.0214,11.0483,11.0714,11.1406,11.1511,11.1511,11.1511,11.128,11.1214,11.1214,11.0406,10.9906,10.9906,10.9098,10.8598,10.8598,10.729,10.6395,10.6395,10.6395,10.6395,10.6395,10.6395,10.6395,10.6395,10.6395,10.6395,10.6395,10.6213,10.602,10.579,10.5097,10.4789,10.1279,10.2597,10.3905,10.3905,10.5213,10.6395,10.6395,10.6703,10.7021,10.7098,10.8021,10.8983,10.9483,10.9906,11.0308,11.0589,10.948,10.8798,10.9309,10.9793,10.9288,10.7083,10.6912,10.6609,10.57,10.5718,10.5913,10.6312,10.6402,10.6395,10.6395,10.6395,10.6395,10.6395,10.6395,10.6395,10.6395,10.6395,10.6395,10.6395,10.6395,10.6395,10.6395,10.6395,10.6395,10.6395,10.6395,10.6395,10.6395,10.6395,10.6395,10.6395,10.6395,10.6395,10.6395,10.6395,10.6395,10.6395,10.6305,10.6291,10.6199,10.6096,10.6123,10.6112,10.6007,10.5894,10.5916,10.5909,10.5894,10.5982,10.6012,10.6112,10.6199,10.6199,10.6284,10.6587,10.7521,10.7713,10.8213,10.9906,11.0224,11.0483,11.128,11.1511,11.1511,11.1511,11.1511,11.1511,11.1511,11.1098,11.0791,11.0791,10.9983,10.9483,10.9483,10.829,10.7405,10.701,10.6587,10.6395,10.6395,10.6395,10.6395,10.6395,10.6395,10.6395,10.6395,10.6395,10.6395,10.6395,10.5905,10.5713,10.152,10.2712,10.3905,10.3905,10.5213,10.6395,10.6395,10.7021,10.729,10.6703,10.8406,10.979,10.8983,10.9713,11.0521,11.0989,10.9711,10.8591,10.8213,10.8979,10.88,10.6414,10.6188,10.5983,10.5297,10.5279,10.5597,10.628,10.6395,10.6395,10.6395,10.6395,10.6395,10.6395,10.6395,10.6395,10.6395,10.6395,10.6395,10.6395,10.6395,10.6395,10.6395,10.6395,10.6395,10.6395,10.6395,10.6395,10.6395,10.6395,10.6395,10.6395,10.6395,10.6395,10.6395,10.6395,10.6395,10.6385,10.6193,10.6085,10.5985,10.5985,10.5996,10.6007,10.5996,10.6007,10.6117,10.6018,10.6007,10.6018,10.6117,10.6107,10.6182,10.6182,10.6294,10.6587,10.729,10.7521,10.7982,10.9713,10.9983,11.0291,11.128,11.1511,11.1511,11.1511,11.1498,11.1578,11.1578,11.1602,11.1604,11.1604,11.0898,11.051,11.051,10.9601,10.879,10.8098,10.7087,10.651,10.6395,10.6395,10.6395,10.6395,10.6395,10.6395,10.6395,10.6395,10.6395,10.6395,10.6395,10.6395,10.2212,10.3097,10.3905,10.3905,10.5213,10.6395,10.6395,10.651,10.679,10.7405,10.8406,10.9098,10.8906,11.0214,11.0797,10.9392,10.8821,10.8009,10.6394,10.7112,10.7401,10.6085,10.6205,10.6305,10.6116,10.6113,10.629,10.6395,10.6395,10.6395,10.6395,10.6395,10.6395,10.6395,10.6395,10.6395,10.6395,10.6395,10.6395,10.6395,10.6395,10.6395,10.6395,10.6395,10.6395,10.6395,10.6395,10.6395,10.6395,10.6395,10.6395,10.6395,10.6395,10.6395,10.6395,10.6395,10.6395,10.6385,10.6193,10.6085,10.5985,10.5985,10.609,10.6117,10.6018,10.6205,10.6294,10.6199,10.6205,10.6188,10.6284,10.6402,10.6413,10.6413,10.6385,10.6395,10.6587,10.6587,10.7098,10.879,10.9098,10.9598,11.1203,11.1511,11.1511,11.1511,11.1684,11.1782,11.1782,11.2011,11.2214,11.2214,11.1892,11.1597,11.1597,11.0583,10.9906,10.979,10.8406,10.7213,10.6395,10.6395,10.6395,10.6395,10.6395,10.6395,10.6395,10.6395,10.6395,10.6395,10.6395,10.6395,10.2404,10.3212,10.3895,10.3796,10.5095,10.651,10.7021,10.7405,10.7713,10.7713,10.9098,10.9906,10.8482,10.9199,10.9508,10.8207,10.8293,10.8098,10.6793,10.6978,10.6794,10.5484,10.581,10.5996,10.5497,10.5987,10.6395,10.6395,10.6395,10.6395,10.6395,10.6395,10.6395,10.6395,10.6395,10.6395,10.6395,10.6395,10.6395,10.6395,10.6395,10.6395,10.6395,10.6395,10.6395,10.6395,10.6395,10.6395,10.6395,10.6395,10.6402,10.6312,10.6312,10.6193,10.6188,10.6188,10.6188,10.6216,10.6085,10.6106,10.5985,10.5985,10.6101,10.6188,10.6096,10.6193,10.6385,10.6294,10.6284,10.6294,10.6385,10.6395,10.6395,10.6395,10.6395,10.6395,10.6395,10.6395,10.6895,10.8598,10.8906,10.9479,11.1414,11.1713,11.1788,11.1878,11.2011,11.211,11.211,11.2192,11.2311,11.2311,11.2189,11.211,11.211,11.1486,11.07,10.9619,10.879,10.7982,10.7098,10.7098,10.6905,10.6395,10.6395,10.6395,10.6395,10.6395,10.6395,10.6395,10.6395,10.6395,10.2712,10.3482,10.4192,10.4003,10.5187,10.6392,10.6679,10.7486,10.7986,10.7217,10.9122,11.0209,10.8017,10.8009,10.8207,10.7695,10.7779,10.7706,10.7017,10.6882,10.6384,10.5196,10.57,10.5805,10.5298,10.5882,10.6395,10.6395,10.6395,10.6395,10.6395,10.6395,10.651,10.6703,10.6703,10.679,10.7021,10.7021,10.679,10.6395,10.6395,10.6395,10.6395,10.6395,10.6395,10.6395,10.6395,10.6385,10.6402,10.6402,10.6301,10.6194,10.6194,10.6101,10.5985,10.5985,10.6012,10.5989,10.6012,10.5989,10.5905,10.6001,10.609,10.6194,10.6194,10.6291,10.6395,10.6413,10.6423,10.6395,10.6395,10.6395,10.6395,10.6395,10.6395,10.6395,10.6395,10.6395,10.678,10.829,10.879,10.9511,11.1306,11.18,11.1994,11.231,11.2406,11.2404,11.2404,11.2417,11.2489,11.2489,11.24,11.2418,11.2317,11.2103,11.1302,10.9705,10.9391,10.879,10.7982,10.7982,10.7598,10.6703,10.6703,10.6587,10.6395,10.6395,10.6395,10.6395,10.6395,10.6395,10.3597,10.4405,10.5,10.4897,10.5595,10.5793,10.4199,10.5098,10.6018,10.5213,10.7105,10.8602,10.7719,10.7505,10.7618,10.8412,10.7014,10.5901,10.5786,10.5883,10.6013,10.5897,10.6085,10.6193,10.6297,10.6395,10.6395,10.6395,10.6395,10.6395,10.6395,10.6395,10.679,10.7598,10.7598,10.7982,10.8713,10.8713,10.7905,10.6395,10.6395,10.6395,10.6395,10.6395,10.6395,10.6395,10.6395,10.6305,10.621,10.621,10.6107,10.5996,10.5996,10.5996,10.5985,10.5985,10.5993,10.5913,10.5989,10.5913,10.5785,10.5905,10.5996,10.5996,10.5996,10.6188,10.6413,10.6193,10.6284,10.6395,10.6395,10.6395,10.6395,10.6395,10.6395,10.6395,10.6395,10.6395,10.6713,10.7598,10.8406,10.9319,11.0494,11.1413,11.1994,11.231,11.251,11.271,11.271,11.2888,11.2998,11.2998,11.2808,11.2596,11.2291,11.2291,11.2115,11.1706,11.0719,10.9713,10.879,10.879,10.8406,10.7598,10.7598,10.7213,10.6395,10.6395,10.6395,10.6395,10.6395,10.6395,10.2904,10.3712,10.4287,10.411,10.5092,10.581,10.4588,10.518,10.5908,10.5601,10.6298,10.7099,10.7291,10.7284,10.7415,10.7722,10.6581,10.5696,10.5901,10.5901,10.5901,10.5909,10.6079,10.6188,10.6194,10.6284,10.6395,10.6395,10.6395,10.6395,10.6395,10.6895,10.7405,10.7713,10.8213,10.8598,10.8906,10.8906,10.8598,10.7905,10.7405,10.6895,10.6395,10.6395,10.6395,10.6395,10.6284,10.6193,10.6188,10.6085,10.5985,10.5909,10.5777,10.5792,10.5792,10.5792,10.5795,10.5821,10.5913,10.5889,10.5792,10.6005,10.6117,10.6096,10.6096,10.6319,10.6395,10.6305,10.6402,10.6395,10.6395,10.6395,10.6395,10.6395,10.6395,10.6395,10.6395,10.6517,10.6804,10.7691,10.8702,10.9779,11.0899,11.1797,11.2489,11.2813,11.2885,11.2916,11.2916,11.2996,11.3097,11.3097,11.2983,11.2783,11.2596,11.2503,11.24,11.2207,11.1598,11.0806,10.9811,10.9713,10.929,10.8482,10.8406,10.8021,10.7213,10.7213,10.6895,10.6395,10.6395,10.6395,10.2404,10.3405,10.4211,10.3984,10.4791,10.541,10.4483,10.4909,10.5296,10.4798,10.5407,10.6296,10.748,10.7496,10.7293,10.7289,10.6387,10.5807,10.5905,10.5898,10.5889,10.5889,10.5985,10.6085,10.609,10.6182,10.6305,10.6305,10.6305,10.6305,10.6305,10.6885,10.7521,10.8098,10.8598,10.9213,10.9713,10.9713,10.9598,10.929,10.872,10.7979,10.7213,10.7095,10.7112,10.7102,10.6995,10.6814,10.6501,10.6384,10.6089,10.5807,10.571,10.5711,10.5711,10.5711,10.571,10.5809,10.5901,10.5898,10.6009,10.609,10.6205,10.6199,10.6319,10.6305,10.6395,10.6395,10.6395,10.6395,10.6395,10.6395,10.6387,10.6487,10.6507,10.6497,10.6602,10.6697,10.6987,10.7606,10.8609,10.9585,11.0795,11.1714,11.2505,11.3003,11.3097,11.3097,11.3097,11.3097,11.3097,11.3097,11.3097,11.2991,11.2783,11.2812,11.2702,11.2411,11.2304,11.1684,11.0796,11.0721,11.0214,10.929,10.929,10.8906,10.8098,10.8098,10.7598,10.679,10.679,10.6713,10.2597,10.3789,10.5115,10.5002,10.4895,10.4505,10.35,10.3909,10.389,10.2197,10.3997,10.6384,10.8186,10.7798,10.71,10.7315,10.6507,10.5889,10.5889,10.5889,10.5889,10.5889,10.5993,10.6106,10.6188,10.6199,10.6199,10.6199,10.6199,10.6199,10.6199,10.6305,10.7213,10.879,10.8906,10.979,11.1511,11.1511,11.1098,11.0214,11.0095,10.9595,10.8906,10.8778,10.8685,10.8712,10.86,10.7986,10.7102,10.7102,10.6598,10.5711,10.5711,10.5686,10.5686,10.5686,10.5809,10.5901,10.5989,10.5985,10.5991,10.6294,10.6284,10.622,10.6402,10.6395,10.6395,10.6395,10.6395,10.6395,10.6395,10.6405,10.6486,10.6703,10.6697,10.6813,10.6996,10.7093,10.7093,10.7093,10.7784,10.8678,10.9904,11.0795,11.181,11.2884,11.3097,11.3097,11.3097,11.3097,11.3097,11.3097,11.3097,11.3097,11.3097,11.3097,11.3012,11.2706,11.2693,11.2506,11.1903,11.1605,11.1098,11.0186,11.0186,10.979,10.8906,10.8906,10.8482,10.7713,10.7713,10.7213,10.2404,10.2883,10.3301,10.3809,10.3804,10.3489,10.252,10.25,10.2502,10.2006,10.3997,10.6092,10.6587,10.6896,10.7211,10.739,10.6093,10.5208,10.5991,10.5486,10.5281,10.5813,10.5985,10.6101,10.6005,10.6101,10.6199,10.6199,10.6199,10.6193,10.6305,10.75,10.8406,10.8906,11.0098,11.1021,11.1511,11.1511,11.1406,11.1098,11.0979,11.0216,10.8816,10.8579,10.8611,10.86,10.8511,10.8287,10.8009,10.7886,10.771,10.7494,10.7592,10.7196,10.671,10.6805,10.648,10.5989,10.6101,10.6107,10.6205,10.6315,10.6413,10.6315,10.6395,10.6395,10.6395,10.6395,10.6395,10.6395,10.6395,10.6488,10.6621,10.6497,10.6591,10.6684,10.6807,10.7006,10.7097,10.7287,10.8193,10.9186,11.0103,11.1113,11.2013,11.301,11.3097,11.3097,11.3097,11.3097,11.3097,11.3097,11.3097,11.3097,11.3097,11.3097,11.3084,11.3012,11.2801,11.2498,11.2197,11.1903,11.17,11.14,11.1178,11.0714,10.979,10.979,10.9406,10.8482,10.8482,10.8406,10.1422,10.1687,10.2006,10.2786,10.2917,10.2601,10.1582,10.1406,10.1597,10.2285,10.3682,10.5003,10.5692,10.6177,10.6516,10.6418,10.5403,10.4909,10.5509,10.5109,10.5092,10.5716,10.5989,10.6095,10.5901,10.6016,10.6117,10.6085,10.6085,10.6293,10.6794,10.7797,10.8713,10.9406,11.0406,11.1098,11.1511,11.1391,11.1407,11.1407,11.1201,11.0583,10.9612,10.9504,10.9507,10.9392,10.8992,10.8816,10.8804,10.8398,10.8207,10.822,10.8294,10.8011,10.7612,10.7695,10.7519,10.711,10.7214,10.6999,10.6811,10.6913,10.6713,10.6395,10.6395,10.6395,10.6395,10.6395,10.6496,10.6507,10.6507,10.6701,10.6913,10.6688,10.6785,10.6996,10.709,10.7294,10.7415,10.7519,10.8104,10.889,10.9709,11.0395,11.1088,11.2415,11.2895,11.3097,11.3097,11.3097,11.3097,11.3097,11.3097,11.3097,11.3097,11.3097,11.3097,11.3097,11.2916,11.2789,11.26,11.231,11.212,11.212,11.1796,11.1394,11.0902,11.0808,11.0291,10.9406,10.9406,10.9213,10.0092,10.0509,10.1104,10.1997,10.2101,10.1709,10.078,10.0718,10.1215,10.2908,10.3214,10.3699,10.5418,10.5597,10.5416,10.4706,10.4591,10.4702,10.4599,10.4807,10.5087,10.5682,10.5913,10.6005,10.5901,10.5901,10.5909,10.6012,10.5996,10.6397,10.74,10.7584,10.8406,10.9983,11.0186,11.0598,11.15,11.1402,11.1307,11.1296,11.1001,11.088,11.088,11.0906,11.0906,11.0778,10.9901,10.9494,10.9506,10.8704,10.8398,10.8398,10.8411,10.8498,10.8504,10.8516,10.8592,10.8717,10.8717,10.8283,10.779,10.779,10.729,10.6587,10.651,10.651,10.6482,10.6397,10.6613,10.6705,10.6693,10.71,10.7392,10.7209,10.7313,10.7482,10.7702,10.7806,10.781,10.7783,10.7788,10.8111,10.8894,10.9096,10.9709,11.149,11.2496,11.3097,11.3097,11.3097,11.3097,11.3097,11.3097,11.3097,11.3097,11.3097,11.3097,11.3097,11.3097,11.3097,11.3097,11.2591,11.231,11.231,11.2096,11.1881,11.1881,11.1722,11.1085,11.0392,11.0312,10.9906,10.1513,10.0917,10.0306,10.18,10.1507,10.0906,10.0604,10.1089,10.1891,10.3023,10.3214,10.3699,10.5418,10.51,10.469,10.4591,10.4102,10.3917,10.4686,10.4679,10.5001,10.579,10.5909,10.5913,10.5889,10.5894,10.6001,10.5985,10.6112,10.6287,10.6584,10.7318,10.8213,10.9098,10.979,11.0594,11.1314,11.128,11.1185,11.1081,11.1004,11.088,11.088,11.078,11.0691,11.0691,11.0513,11.0385,11.0385,11.0194,11.0207,11.0207,11.0308,11.001,10.9516,10.962,10.9283,10.8913,10.8913,10.8808,10.8598,10.8598,10.8482,10.8213,10.7598,10.7405,10.7303,10.6814,10.6691,10.671,10.6998,10.7217,10.7388,10.7309,10.741,10.741,10.7487,10.7493,10.749,10.7806,10.7788,10.8111,10.8894,10.9096,10.9709,11.149,11.2496,11.3097,11.3097,11.3097,11.3097,11.3097,11.3097,11.3097,11.3097,11.3097,11.3097,11.3097,11.3097,11.3097,11.3097,11.2789,11.2591,11.2591,11.24,11.2179,11.2179,11.189,11.1707,11.1514,11.1304,11.1098,10.1489,10.1006,10.0404,10.1178,10.0994,10.0604,10.0604,10.0986,10.1597,10.2896,10.3214,10.3699,10.5418,10.4692,10.3799,10.3909,10.3286,10.3113,10.391,10.4105,10.462,10.579,10.5894,10.5894,10.5894,10.5989,10.6007,10.6101,10.6205,10.6395,10.701,10.7482,10.8098,10.8906,10.929,10.9808,11.0089,11.0094,11.0004,10.9896,10.9804,10.9897,11.0306,11.0602,11.0691,11.0691,11.0691,11.0691,11.0691,11.0691,11.0691,11.0704,11.0792,11.0697,11.0406,11.0609,11.0386,11.0098,11.0098,10.9906,10.9483,10.9483,10.9213,10.879,10.8406,10.829,10.809,10.7413,10.7306,10.7385,10.7212,10.7285,10.7598,10.7598,10.7598,10.7598,10.7598,10.7598,10.7583,10.781,10.7788,10.7909,10.84,10.8813,10.9585,11.0885,11.1893,11.2615,11.3017,11.3097,11.3097,11.3097,11.3097,11.3097,11.3097,11.3097,11.3097,11.3097,11.3097,11.3097,11.3097,11.3003,11.2888,11.2888,11.26,11.2494,11.2489,11.208,11.1908,11.1899,11.1614,11.1511,10.1185,10.1094,10.0883,10.0703,10.0604,10.0604,10.0604,10.0795,10.1494,10.2894,10.3188,10.3711,10.5189,10.4207,10.32,10.3008,10.2696,10.2621,10.3194,10.3689,10.4615,10.5817,10.6016,10.5996,10.6018,10.6018,10.609,10.6188,10.621,10.6609,10.7395,10.7521,10.779,10.8713,10.8713,10.8703,10.8913,10.8805,10.8807,10.8784,10.8808,10.9208,10.982,11.0512,11.0717,11.0691,11.05,11.05,11.05,11.0309,11.0398,11.0513,11.0614,11.0788,11.1096,11.1201,11.1402,11.1511,11.1511,11.1021,11.0406,11.0406,10.9906,10.929,10.9213,10.9098,10.9003,10.8192,10.8303,10.8412,10.761,10.7715,10.7982,10.7788,10.7788,10.7788,10.7788,10.7788,10.7788,10.7788,10.7788,10.7788,10.7788,10.8486,10.9384,11.0317,11.1208,11.2093,11.3015,11.3097,11.3097,11.3097,11.3097,11.3097,11.3097,11.3097,11.3097,11.3097,11.3097,11.3097,11.3097,11.3097,11.3097,11.3097,11.2882,11.2817,11.2817,11.2291,11.2011,11.2003,11.1713,11.1599,10.1914,10.1908,10.1609,10.0795,10.0604,10.0604,10.0604,10.1788,10.2894,10.319,10.3208,10.352,10.4386,10.3909,10.3099,10.241,10.2906,10.3405,10.341,10.4719,10.5799,10.6107,10.6117,10.5991,10.6205,10.6216,10.6216,10.6199,10.6284,10.6385,10.6587,10.6587,10.7021,10.779,10.7905,10.8084,10.8706,10.9414,10.9808,10.9616,11.029,11.0612,11.0688,11.0791,11.0805,11.0704,10.9889,10.9608,10.9494,10.8819,10.8895,10.9621,10.9596,11.0217,11.1085,11.1108,11.1296,11.1511,11.1511,11.1395,11.128,11.128,11.1203,11.1021,11.0291,10.9983,10.9915,10.9496,10.9399,10.9304,10.8906,10.8888,10.868,10.7982,10.7788,10.7788,10.7788,10.7788,10.7788,10.7788,10.7788,10.7788,10.7788,10.8486,10.9384,11.0317,11.1208,11.2093,11.3015,11.3097,11.3097,11.3097,11.3097,11.3097,11.3097,11.3097,11.3097,11.3097,11.3097,11.3097,11.3097,11.3097,11.3097,11.3097,11.3084,11.2998,11.2998,11.2684,11.2615,11.2606,11.2104,11.1799,10.2895,10.2088,10.11,10.0718,10.0604,10.0604,10.0604,10.1312,10.1993,10.2498,10.298,10.3604,10.4484,10.3504,10.2493,10.2205,10.2594,10.2993,10.3388,10.4583,10.5597,10.6111,10.6117,10.6205,10.6322,10.6284,10.6284,10.6284,10.6413,10.6395,10.6395,10.6395,10.6587,10.7021,10.7021,10.7105,10.7399,10.768,10.7818,10.7801,10.8991,10.9619,10.9716,11.0604,11.089,11.0805,11.0423,11.0181,11.0219,10.9812,10.9901,11.0193,11.0306,11.068,11.1201,11.1296,11.1385,11.1511,11.1511,11.1511,11.1511,11.1511,11.1511,11.1395,11.1021,11.1003,11.1009,11.0296,11.0297,11.042,10.9809,10.9714,10.9615,10.868,10.8489,10.8411,10.7904,10.7788,10.7788,10.7788,10.7788,10.7788,10.7788,10.8115,10.8813,11.0197,11.0801,11.149,11.2898,11.3097,11.3097,11.3097,11.3097,11.3097,11.3097,11.3097,11.3097,11.3097,11.3097,11.3097,11.3097,11.3097,11.2991,11.2882,11.2989,11.3097,11.3097,11.2815,11.2693,11.2685,11.2317,11.2117,10.3897,10.2818,10.1702,10.1702,10.1285,10.0994,10.1185,10.1178,10.141,10.2313,10.3207,10.4013,10.4489,10.3405,10.2402,10.1991,10.2212,10.2714,10.3524,10.4383,10.5319,10.6088,10.6319,10.6312,10.6395,10.6395,10.6395,10.6395,10.6395,10.6395,10.6395,10.6395,10.6395,10.6395,10.6395,10.6395,10.6395,10.6514,10.6703,10.6895,10.808,10.8798,10.9107,11.0284,11.0881,11.0989,11.0685,11.0596,11.0584,11.0307,11.0319,11.0596,11.0704,11.1013,11.128,11.1407,11.1489,11.1511,11.1511,11.1511,11.1511,11.1511,11.1511,11.1511,11.1511,11.1612,11.1606,11.1104,11.1305,11.139,11.0594,11.0513,11.0394,10.9615,10.9381,10.9108,10.7982,10.7788,10.7788,10.7788,10.7788,10.7788,10.7788,10.7788,10.8318,10.9791,11.0317,11.1005,11.2615,11.3015,11.3097,11.3097,11.3097,11.3097,11.3097,11.3097,11.3097,11.3097,11.3097,11.3097,11.3097,11.2994,11.2895,11.2693,11.2815,11.2907,11.3017,11.2714,11.2605,11.2685,11.2406,11.2204,10.4893,10.4807,10.4604,10.4604,10.3289,10.2203,10.3007,10.2624,10.2313,10.3191,10.4095,10.4594,10.4008,10.3803,10.3116,10.1513,10.1979,10.2895,10.3818,10.4587,10.5395,10.6318,10.6395,10.6395,10.6395,10.6395,10.6395,10.6395,10.6395,10.6395,10.6395,10.6395,10.6395,10.6395,10.6395,10.6395,10.6395,10.7203,10.801,10.878,10.8701,10.9107,10.9886,10.999,11.049,11.1208,11.0288,10.9896,10.9819,10.9002,10.9194,10.9896,10.9908,11.0514,11.1307,11.128,11.1385,11.1511,11.1511,11.1511,11.1511,11.1511,11.1511,11.1511,11.1511,11.1483,11.1602,11.2008,11.2088,11.2087,11.1598,11.1481,11.129,11.0394,11.0199,10.981,10.8216,10.7788,10.7788,10.7788,10.7788,10.7788,10.7788,10.7788,10.8115,10.9015,10.9911,11.0804,11.1693,11.2615,11.3097,11.3097,11.3097,11.3097,11.3097,11.3097,11.3097,11.3097,11.3097,11.3097,11.3097,11.2907,11.2702,11.2693,11.2506,11.2511,11.2706,11.2495,11.2495,11.2685,11.2207,11.1903,10.5019,10.4511,10.4002,10.4002,10.3892,10.3618,10.2685,10.3295,10.3689,10.2802,10.3918,10.4582,10.3318,10.3391,10.3196,10.1489,10.199,10.2904,10.3789,10.4597,10.5405,10.628,10.6395,10.6395,10.6395,10.6395,10.6395,10.6395,10.6395,10.6395,10.6395,10.6395,10.6395,10.6395,10.6395,10.6395,10.6395,10.6703,10.701,10.729,10.7787,10.8189,10.8496,10.9111,10.9496,10.9803,11.0002,11.0281,11.0702,11.0391,11.0403,11.079,11.079,11.1011,11.1418,11.1418,11.1478,11.1511,11.1511,11.1511,11.1511,11.1511,11.1511,11.1511,11.1511,11.1693,11.2002,11.2189,11.2408,11.2593,11.2511,11.2382,11.2187,11.129,11.0706,11.0083,10.9498,10.8606,10.7788,10.7788,10.7788,10.7788,10.7788,10.7788,10.8318,10.9709,11.0197,11.0888,11.2415,11.2898,11.3097,11.3097,11.3097,11.3097,11.3097,11.3097,11.3097,11.3097,11.3097,11.3097,11.3097,11.2783,11.2596,11.2411,11.2182,11.2214,11.2411,11.2316,11.2283,11.2405,11.2213,11.2193,10.5494,10.5019,10.4494,10.4801,10.4895,10.4495,10.33,10.3613,10.3786,10.2517,10.329,10.3905,10.2789,10.2998,10.2901,10.15,10.1789,10.252,10.3289,10.4212,10.4982,10.5905,10.6203,10.6395,10.6395,10.6395,10.6395,10.6395,10.6395,10.6395,10.6395,10.6395,10.6395,10.6395,10.6395,10.6395,10.6395,10.6395,10.6395,10.6395,10.7021,10.7405,10.7713,10.829,10.8598,10.8906,10.979,11.0489,11.0902,11.1208,11.1296,11.1413,11.1413,11.1187,11.1098,11.1395,11.128,11.1098,11.1395,11.1511,11.1511,11.1511,11.1511,11.1511,11.1511,11.1703,11.2019,11.2197,11.2414,11.2721,11.2901,11.2888,11.281,11.2187,11.1407,11.0706,11.0706,10.9381,10.8216,10.8216,10.7982,10.7788,10.7788,10.7788,10.8197,10.938,10.9995,11.0807,11.2015,11.2696,11.3097,11.3097,11.3097,11.3097,11.3097,11.3097,11.3097,11.3097,11.3097,11.3097,11.3097,11.2809,11.2483,11.2317,11.1898,11.1886,11.2003,11.2003,11.2096,11.22,11.2096,11.2003,0.0,0.0,0.0,10.7482,10.641,10.4998,10.4802,10.359,10.2519,10.2287,10.2484,10.2712,10.2597,10.2597,10.2289,10.1394,10.1279,10.1587,10.252,10.3405,10.4212,10.4992,10.5905,10.6395,10.6395,10.6395,10.6395,10.6395,10.6395,10.6395,10.6395,10.6395,10.6395,10.6395,10.6395,10.6395,10.6395,10.6395,10.6395,10.6395,10.6395,10.678,10.7713,10.7713,10.8098,10.8906,10.9713,11.0098,11.0214,11.1098,11.1511,11.1511,11.1511,11.0983,11.0291,11.1214,11.0983,11.0406,11.1214,11.1511,11.1511,11.1511,11.1511,11.1522,11.1511,11.1483,11.1591,11.2102,11.2204,11.232,11.281,11.2888,11.2888,11.2888,11.2304,11.1602,11.1602,11.0316,10.919,10.9108,10.8411,10.7788,10.7788,10.7788,10.7788,10.7788,10.9302,11.0401,11.0401,11.2013,11.3097,11.3097,11.3097,11.3097,11.3097,11.3097,11.3097,11.3097,11.3097,11.3095,11.3093,11.2606,11.2304,11.2298,11.1798,11.1511,11.1511,11.1511,11.1585,11.1891,11.1604,11.1511,10.6395,0.0,0.0,0.0,0.0,0.0,10.5305,10.5486,10.5623,10.3699,10.3818,10.3918,10.2808,10.2597,10.2289,10.1394,10.1279,10.1587,10.252,10.3405,10.4212,10.4992,10.5905,10.6395,10.6395,10.6395,10.6395,10.6395,10.6395,10.6395,10.6395,10.6395,10.6395,10.6395,10.6395,10.6395,10.6395,10.6395,10.6395,10.6395,10.6395,10.651,10.679,10.679,10.6895,10.7087,10.7982,10.8713,10.9406,11.0906,11.1511,11.1511,11.1511,11.1406,11.1214,11.1395,11.128,11.1214,11.1395,11.1511,11.1511,11.1511,11.1098,11.0714,11.128,11.1188,11.0987,11.1918,11.2288,11.2502,11.28,11.2888,11.2888,11.2888,11.2693,11.2498,11.2498,11.168,11.0706,11.0083,10.9303,10.868,10.868,10.8216,10.799,10.8606,10.9709,11.0603,11.1289,11.2415,11.3097,11.3097,11.3097,11.3097,11.3097,11.3097,11.3097,11.3097,11.3097,11.2986,11.2808,11.2483,11.2217,11.1987,11.1693,11.1511,11.1511,11.1511,11.1498,11.1583,11.1498,11.1511,10.6395,10.6395,10.6395,10.6395,0.0,0.0,10.5819,10.5781,10.5609,10.3982,10.408,10.4093,10.2818,10.3212,10.3405,10.252,10.2404,10.2289,10.2097,10.2789,10.3712,10.4482,10.529,10.602,10.6405,10.6395,10.6395,10.6395,10.6395,10.6395,10.6395,10.6395,10.6395,10.6395,10.6395,10.6395,10.6395,10.6395,10.6395,10.6395,10.6395,10.6395,10.6395,10.6395,10.6395,10.6395,10.729,10.7982,10.8482,10.9906,11.078,11.1511,11.1511,11.1291,11.0983,11.0983,11.0983,11.0983,11.0983,11.1214,11.1511,11.1511,11.0906,11.0406,11.1203,11.1003,11.0708,11.191,11.2395,11.2702,11.2905,11.2888,11.2888,11.2888,11.2888,11.2888,11.2888,11.2498,11.1914,11.1018,11.0199,10.9615,10.9615,10.8913,10.8497,10.8989,10.9497,11.0112,11.06,11.1409,11.2096,11.2496,11.2613,11.2696,11.3095,11.3097,11.3118,11.2913,11.291,11.2804,11.2498,11.2285,11.2081,11.1916,11.1595,11.1511,11.1511,11.1511,11.1511,11.1511,11.1511,11.1511,10.6395,10.6395,10.6395,10.6395,10.6395,0.0,10.6214,10.5218,10.4095,10.3898,10.3911,10.3779,10.2914,10.3992,10.4684,10.4002,10.3799,10.3212,10.1712,10.2212,10.2981,10.3712,10.4607,10.5405,10.6213,10.628,10.6395,10.6395,10.6395,10.6395,10.6395,10.6395,10.6395,10.6395,10.6395,10.6395,10.6395,10.6395,10.6395,10.6395,10.6395,10.6395,10.6395,10.6395,10.6395,10.6395,10.729,10.779,10.7905,10.8713,10.9906,11.1203,11.128,11.0906,11.0224,11.0291,11.0291,11.0291,11.0214,11.0714,11.1406,11.1406,11.0791,11.0214,11.1214,11.0906,11.0513,11.1792,11.2514,11.2888,11.2888,11.2888,11.2888,11.2888,11.2888,11.2888,11.2888,11.2888,11.2693,11.1914,11.1018,11.0394,11.0394,10.981,10.9186,10.9186,10.9187,10.9213,10.9213,10.9911,11.0804,11.169,11.181,11.2213,11.3017,11.3097,11.3012,11.2702,11.2693,11.2591,11.2317,11.1995,11.1891,11.1886,11.1604,11.1511,11.1511,11.1511,11.1511,11.1511,11.1511,11.1511,10.6587,10.6395,10.6395,10.6395,10.6395,0.0,10.6413,10.6004,10.5599,10.5018,10.4785,10.4516,10.3801,10.4003,10.4088,10.4022,10.331,10.2712,10.2404,10.3097,10.3405,10.2904,10.4212,10.5223,10.529,10.602,10.6395,10.6395,10.6395,10.6395,10.6395,10.6395,10.6395,10.6395,10.6395,10.6395,10.6395,10.6395,10.6395,10.6395,10.6395,10.6395,10.6395,10.6395,10.6395,10.6395,10.729,10.8098,10.8713,10.9598,10.9713,10.9483,11.0214,11.0291,11.0291,11.0983,11.1203,11.1098,11.0406,11.0291,11.0483,11.0483,10.9906,10.9406,11.1011,11.0906,11.0513,11.1792,11.2514,11.2888,11.2888,11.2888,11.2888,11.2888,11.2888,11.2888,11.2888,11.2888,11.281,11.2693,11.1914,11.129,11.129,11.0589,11.0083,11.0083,11.0084,11.011,11.011,11.0301,11.0804,11.169,11.181,11.2213,11.3017,11.3097,11.3012,11.2702,11.2693,11.2483,11.2002,11.1912,11.1805,11.162,11.1487,11.1511,11.1511,11.1511,11.1511,11.1511,11.1511,11.1511,10.6587,10.6395,10.6395,10.6395,10.6395,0.0,0.0,10.6287,10.569,10.5703,10.6008,10.6084,10.5311,10.5907,10.631,10.5899,10.4704,10.3789,10.3789,10.3097,10.2597,10.2597,10.3289,10.4212,10.4982,10.5482,10.5905,10.6405,10.6395,10.6395,10.6395,10.6395,10.6395,10.6395,10.6395,10.6395,10.6395,10.6395,10.6395,10.6395,10.6395,10.6395,10.6395,10.6905,10.701,10.7098,10.7905,10.8482,10.8906,10.9406,10.929,10.8983,10.9906,11.0224,11.0224,10.979,10.9906,11.0098,10.9213,10.9213,10.9591,10.9705,10.9186,10.8781,11.0591,11.1284,11.1491,11.2197,11.2589,11.2888,11.2888,11.2888,11.2888,11.2888,11.2888,11.2888,11.2888,11.2888,11.2888,11.2888,11.2498,11.2187,11.2187,11.1485,11.0901,11.0901,11.061,11.0392,11.0392,10.9982,11.0085,11.098,11.1116,11.149,11.2413,11.2688,11.2789,11.2516,11.2386,11.211,11.1722,11.1693,11.1595,11.1483,11.1511,11.1511,11.1511,11.1511,11.1511,11.1511,11.1511,11.1511,10.6687,10.6504,10.6504,10.6504,10.6504,10.661,0.0,0.0,0.0,10.629,10.7021,10.7213,10.6503,10.7493,10.8185,10.7611,10.6205,10.5117,10.5196,10.3213,10.2116,10.2789,10.2712,10.3212,10.4713,10.4992,10.5482,10.628,10.6395,10.6395,10.6395,10.6395,10.6395,10.6395,10.6395,10.6395,10.6395,10.6395,10.6395,10.6395,10.6395,10.6395,10.6395,10.729,10.7713,10.779,10.8713,10.9213,10.9213,10.929,10.9406,10.9483,10.9983,11.0224,11.0109,10.8906,10.879,10.929,10.8482,10.8598,10.9189,10.9503,10.9204,10.9097,11.0701,11.1779,11.2493,11.2493,11.2692,11.2888,11.2888,11.2888,11.2888,11.2888,11.2888,11.2888,11.2888,11.2888,11.2888,11.2888,11.2888,11.2888,11.2888,11.2304,11.1914,11.1914,11.1096,11.0589,11.0589,10.981,10.9713,11.0613,11.0819,11.1113,11.189,11.2485,11.27,11.229,11.1987,11.1816,11.1494,11.1511,11.1511,11.1511,11.1511,11.1511,11.1511,11.1511,11.1511,11.1511,11.1511,11.1511,10.7123,10.6679,10.6679,10.6679,10.6679,10.6699,10.6603,0.0,10.641,10.6387,0.0,10.6503,10.6497,0.0,0.0,10.6805,10.5804,10.5206,10.5311,10.4407,10.3705,10.3684,10.3097,10.2981,10.3905,10.4723,10.5482,10.628,10.6395,10.6395,10.6395,10.6395,10.6395,10.6395,10.6395,10.6395,10.6395,10.6395,10.6395,10.6395,10.6395,10.6395,10.6395,10.729,10.7713,10.779,10.9406,11.0109,11.0098,11.0906,11.1203,11.1088,11.0483,11.0224,11.0291,11.0906,11.1088,11.1098,11.0214,10.9993,11.0084,11.04,11.1005,11.1817,11.1995,11.229,11.2493,11.2493,11.2692,11.2888,11.2888,11.2888,11.2888,11.2888,11.2888,11.2888,11.2888,11.2888,11.2888,11.2888,11.2888,11.2888,11.2888,11.281,11.281,11.281,11.1992,11.1485,11.1485,11.0706,11.0489,11.1506,11.1986,11.2396,11.2493,11.3084,11.3092,11.1992,11.1895,11.1816,11.1494,11.1511,11.1511,11.1511,11.1511,11.1511,11.1511,11.1511,11.1511,11.1511,11.1511,11.1511,10.7016,10.7017,10.722,10.6814,10.7017,10.721,10.669,10.6613,10.6517,10.6506,0.0,0.0,0.0,0.0,0.0,0.0,10.6092,10.5419,10.6006,10.4907,10.4097,10.4089,10.3819,10.3984,10.5312,10.6099,10.679,10.7098,10.6713,10.6395,10.6395,10.6395,10.6395,10.6395,10.6395,10.6395,10.6395,10.6395,10.6395,10.6395,10.6395,10.6395,10.6395,10.779,10.8406,10.8482,11.0214,11.0983,11.0983,11.128,11.1511,11.1522,11.1098,11.0598,11.0224,11.0021,11.0021,10.9906,10.9598,10.9406,10.9499,10.9892,11.0909,11.1905,11.1905,11.231,11.2717,11.2717,11.2804,11.2888,11.2888,11.2888,11.2888,11.2888,11.2888,11.2888,11.2888,11.2888,11.2888,11.2888,11.2888,11.2888,11.2888,11.2888,11.2888,11.2888,11.2615,11.2382,11.2382,11.1491,11.1087,11.1584,11.1704,11.1999,11.2599,11.31,11.3197,11.2613,11.2001,11.1594,11.1483,11.1511,11.1511,11.1511,11.1511,11.1511,11.1511,11.1511,11.1511,11.1511,11.1511,11.1511,10.69,10.7085,10.7394,10.6814,10.7085,10.7307,10.6786,10.6584,10.6488,10.6487,10.6879,0.0,0.0,0.0,10.729,10.7408,0.0,10.5813,10.6488,10.559,10.4903,10.4903,10.471,10.4991,10.6112,10.669,10.7217,10.7418,10.6792,10.6397,10.6405,10.6395,10.6395,10.6395,10.6395,10.6395,10.6395,10.6395,10.6395,10.6395,10.6395,10.6395,10.651,10.8098,10.8906,10.8983,11.0714,11.1511,11.1511,11.1511,11.1511,11.1511,11.1511,11.1098,11.0483,10.979,10.9598,10.9598,10.9598,10.9722,10.9918,11.0306,11.1105,11.1992,11.1992,11.2382,11.2888,11.2888,11.2888,11.2888,11.2888,11.2888,11.2888,11.2888,11.2888,11.2888,11.2888,11.2888,11.2888,11.2888,11.2888,11.2888,11.2888,11.2888,11.2888,11.2888,11.2814,11.279,11.279,11.21,11.1614,11.1797,11.1688,11.1998,11.2712,11.3189,11.3509,11.3409,11.2382,11.178,11.178,11.1588,11.1511,11.1511,11.1511,11.1511,11.1511,11.1511,11.1511,11.1511,11.1511,11.1511,10.6881,10.6716,10.6707,10.6716,10.6716,10.6689,10.6517,10.6497,10.6497,10.6387,10.6405,10.6395,10.6395,10.6395,10.6513,0.0,10.6399,0.0,0.0,10.6716,10.6601,10.6601,10.5906,10.5405,10.5395,10.5511,10.5821,10.6497,10.6488,10.6516,10.6405,10.6395,10.6395,10.6395,10.6395,10.6395,10.6395,10.6395,10.6395,10.6395,10.6395,10.6395,10.651,10.8098,10.8906,10.8983,11.0714,11.1511,11.1511,11.1511,11.1511,11.1511,11.1511,11.1511,11.1522,11.1395,11.1395,11.1395,11.1395,11.1692,11.2103,11.2297,11.2604,11.2888,11.2888,11.2888,11.2888,11.2888,11.2888,11.2888,11.2888,11.2888,11.2888,11.2888,11.2888,11.2888,11.2888,11.2888,11.2888,11.2888,11.2888,11.2888,11.2888,11.2888,11.2888,11.2888,11.2687,11.2499,11.2499,11.2316,11.221,11.2288,11.2809,11.3116,11.3202,11.37,11.4008,11.4016,11.3099,11.2714,11.2714,11.1895,11.1511,11.1511,11.1511,11.1511,11.1511,11.1511,11.1511,11.1511,11.1511,11.1511,10.6591,10.7518,10.7991,10.7003,10.7479,10.7991,10.6889,10.6583,10.6497,10.6387,10.6395,10.6413,10.6301,10.6315,0.0,0.0,0.0,10.6488,0.0,10.6786,10.6912,10.6912,10.7083,10.7193,10.7193,10.7614,10.8212,10.8992,10.9009,10.8716,10.8098,10.8098,10.7521,10.6395,10.6395,10.6395,10.6395,10.6395,10.6395,10.6395,10.6395,10.6395,10.651,10.8098,10.8906,10.8983,11.0714,11.1511,11.1511,11.1511,11.1511,11.1511,11.1511,11.1511,11.1511,11.1511,11.1511,11.1511,11.1511,11.1788,11.2211,11.2299,11.2588,11.2888,11.2888,11.2888,11.2888,11.2888,11.2888,11.2888,11.2888,11.2888,11.2888,11.2888,11.2888,11.2888,11.2888,11.2888,11.2888,11.2888,11.2888,11.2888,11.2888,11.2888,11.2888,11.2888,11.2809,11.2815,11.2815,11.2395,11.2292,11.2502,11.2413,11.2809,11.4009,11.4576,11.4912,11.4918,11.3984,11.3599,11.3599,11.2714,11.2291,11.2291,11.1778,11.1508,11.1511,11.1519,11.1508,11.1511,11.1511,11.1511,10.6411,10.7403,10.7884,10.6901,10.7413,10.7884,10.6901,10.6497,10.6397,10.6315,10.6305,10.6284,0.0,0.0,0.0,0.0,0.0,10.6623,0.0,10.68,10.6885,10.6995,10.7409,10.7783,10.8096,10.8277,10.8694,10.9398,10.9714,10.9586,10.9006,10.8888,10.8406,10.729,10.6703,10.6395,10.6395,10.6395,10.6395,10.6395,10.6395,10.6395,10.651,10.8098,10.8906,10.8983,11.0714,11.1511,11.1511,11.1511,11.1511,11.1511,11.1511,11.1511,11.1511,11.1511,11.1511,11.1515,11.1712,11.1921,11.2188,11.2388,11.2683,11.2888,11.2888,11.2888,11.3005,11.3706,11.3395,11.3005,11.3706,11.3395,11.2888,11.2888,11.2888,11.2888,11.2888,11.2888,11.2888,11.2888,11.2888,11.2888,11.2888,11.2888,11.2888,11.2888,11.2804,11.281,11.281,11.2395,11.2309,11.2505,11.2096,11.2596,11.4305,11.5308,11.5813,11.5687,11.4983,11.4515,11.4511,11.3696,11.3612,11.419,11.2788,11.2403,11.2996,11.2095,11.1594,11.1599,11.1599,11.1599]}]]